     2              OBSERVATION DATA    GPS                 RINEX VERSION / TYPE
teqc 1997Jun30 19970702                                     PGM / RUN BY / DATE
                                                            COMMENT
BIT 2 OF LLI FLAGS DATA COLLECTED UNDER A-S CONDITION       COMMENT
BIT 2 OF LLI FLAGS DATA COLLECTED UNDER A-S CONDITION       COMMENT
Original Marker Name: HMCP                                  COMMENT
Campaign Name: HMC San Gabriel Valley 1993-1996             COMMENT
4-Character Station Name: HMCP                              COMMENT
6-Character Antenna Code: DMRCHT                            COMMENT
Vertical Measurement Point: BPA                             COMMENT
Vertical Offset to Rinex Ref. Point: 0.0000                 COMMENT
Radial Measurement Point: RRP                               COMMENT
Radial Offset to Rinex Ref. Point: 0.0000                   COMMENT
Antenna Height from Field Measurement: 0.0000 m             COMMENT
Additional Antenna Identification Info.:                    COMMENT
Turborogue and Ashtech Choke Ring                           COMMENT
Fixed antenna mounting on roof of Parsons                   COMMENT
building, HMC.                                              COMMENT
Original XYZ: -2458604.2700 -4680496.3333 3556454.1544      COMMENT
New XYZ position is based on association with SCEC monument COMMENT
E1D0R2C7+0011. Position of that monument is believed to be  COMMENT
valid to within 1 m horizontally; vertical accuracy         COMMENT
should be no worse than 3-times this value.                 COMMENT
                                                            COMMENT
Revised Rinex header created by UCSD GPS archive for        COMMENT
GSAC on 13-Apr-1999 (1999:103) 20:11:12 GMT                 COMMENT
For assistance contact dagnew@ucsd.edu or hjohnson@ucsd.edu COMMENT
                                                            COMMENT
HARVEY MUDD COLLEGE PHYSICS                                 MARKER NAME
MGB HARVEY MUDD COLLEGE                                     OBSERVER / AGENCY
T-262/263 TURBOROGUE SNR-8000 95.03.08                      REC # / TYPE / VERS
260/329 DORNE-MARGOL. TYPE T                                ANT # / TYPE
 -2458598.0000 -4680494.0000  3556451.0000                  APPROX POSITION XYZ
        0.0000        0.0000        0.0000                  ANTENNA: DELTA H/E/N
     1     1     0                                          WAVELENGTH FACT L1/2
     5    L1    L2    C1    P2    P1                        # / TYPES OF OBSERV
     0                                                      INTERVAL
  1996     4     8     1     1    0.000000                  TIME OF FIRST OBS
  1996     4     8    23    59   30.000000                  TIME OF LAST OBS
     0                                                      # OF SATELLITES
                                                            END OF HEADER
 96  4  8  1  1  0.0000000  0  4G16G24G 4G20
         0.07454         0.47354  21607744.5074   21607745.9954
        -0.87854        -0.08054  21614637.9444   21614638.7574
        -1.20754         0.04154  24429717.5554   24429717.6094
        -0.31054        -0.24554  20745476.9524   20745477.4974
 96  4  8  1  1 30.0000000  0  5G16G24G20G 4G 9
    -56951.45044    -44377.29544  21596907.1934   21596908.6324
     66069.64744     51483.45444  21627210.9214   21627211.7844
    -40452.91844    -31521.74744  20737779.2734   20737779.7754
     96754.88644     75394.29944  24448130.2344   24448130.7064
        -0.15454         0.58454  24759753.9664   24759757.5224
 96  4  8  1  2  0.0000000  0  6G16G24G20G 5G 4G 9
   -113719.55544    -88612.14144  21586104.1014   21586105.2624
    132034.54244    102884.67444  21639763.1944   21639764.1564
    -80703.01244    -62885.44444  20730119.9654   20730120.4184
        -0.35254        -0.16454  20317271.8854   20317272.1634
    193205.42144    150550.54044  24466483.7924   24466485.7694
     90073.55544     70187.73844  24776894.7994   24776897.9074
 96  4  8  1  2 30.0000000  0  6G16G20G 5G24G 4G 9
   -170575.56444   -132915.48144  21575284.7964   21575286.3454
   -121027.34344    -94306.99144  20722446.3674   20722447.1294
     22249.48444     17337.37444  20321505.8714   20321505.9824
    197609.99944    153982.43644  21652242.0014   21652242.8594
    289081.89744    225259.46744  24484728.4064   24484727.1894
    179450.55144    139831.97044  24793901.8124   24793907.0914
 96  4  8  1  3  0.0000000  0  7G 6G16G20G 5G24G 4G 9
        -0.75554        -0.64954  22561540.5964   22561541.1584
   -227237.88944   -177067.90844  21564502.1194   21564503.4544
   -161123.34344   -125550.61644  20714816.2714   20714817.0554
     44759.07844     34877.31444  20325789.4234   20325789.3624
    263090.09144    205005.88644  21664702.5174   21664703.3424
    384654.14244    299731.33744  24502915.3154   24502917.2604
    268410.60044    209151.30744  24810831.7204   24810835.3054
 96  4  8  1  3 30.0000000  0  7G 6G17G16G20G 5G24G 4
    -64493.55544    -50254.74344  22549267.7384   22549268.2124
        -0.40254                  25358536.0844
   -283447.04244   -220867.20644  21553805.9934   21553807.2804
   -200695.73044   -156386.23144  20707285.9274   20707286.3444
     67843.09944     52864.85844  20330182.1544   20330182.3284
    328779.74744    256192.63444  21677202.9634   21677203.2584
    480210.60944    374190.92644  24521099.1514   24521099.1624
 96  4  8  1  4  0.0000000  0  8G 6G17G16G20G 5G24G 4G25
   -128819.10744   -100378.51544  22537026.8774   22537027.4874
    -97707.63044                  25339944.1634
   -339078.74244   -264216.53944  21543219.6304   21543220.6234
   -239623.67944   -186719.69144  20699878.2584   20699878.7744
     91615.06444     71388.46344  20334705.8184   20334705.9194
    394797.36244    307634.93544  21689765.5764   21689766.0384
    575865.93944    448727.55344  24539301.0084   24539300.4944
        -0.66454         0.73654  25323365.8214   25323366.4364
 96  4  8  1  4 30.0000000  0  8G 6G17G16G20G 5G24G 4G25
   -192886.38844   -150301.02144  22524835.6784   22524836.6854
   -195084.40944   -152012.92044  25321413.7674
   -394033.08744   -307038.06444  21532762.2814   21532763.7704
   -277814.84844   -216479.03644  20692610.5094   20692610.9924
    116152.76044     90508.74144  20339375.0884   20339375.0844
    461222.44244    359394.73944  21702405.9024   21702406.5094
    671698.34044    523402.14944  24557538.9344   24557538.2704
    -40656.41644    -31677.28744  25315627.4204   25315629.5044
 96  4  8  1  5  0.0000000  0  8G 6G17G16G20G 5G24G 4G25
   -256772.24044   -200082.16144  22512678.6604   22512679.1984
   -292212.88144   -227697.18744  25302929.6004
   -448377.92644   -349384.65144  21522420.6164   21522422.1524
   -315352.36744   -245729.04044  20685467.4434   20685467.9164
    141378.10344    110164.85444  20344175.2914   20344175.2474
    527979.19544    411412.99244  21715109.3894   21715109.9984
    767632.49444    598156.01844  24575794.5664   24575793.1824
    -80739.25344    -62909.49744  25308003.6534   25308004.5604
 96  4  8  1  5 30.0000000  0  8G 6G17G16G20G 5G24G 4G25
   -320680.54444   -249880.79344  22500517.6694   22500517.4464
   -389319.40944                  25284446.4254
   -502320.23544   -391417.57944  21512155.6814   21512157.3504
   -352465.10744   -274648.05044  20678405.1744   20678405.5144
    167064.75844    130180.42844  20349063.3804   20349063.6874
    594842.30744    463514.11844  21727833.0554   21727833.0664
    863462.67344    672828.92144  24594029.1584   24594029.4924
   -120452.80844    -93854.60044  25300444.3654
 96  4  8  1  6  0.0000000  0  8G 6G16G17G20G 5G24G 4G25
   -384501.64144   -299611.48444  22488372.5414   22488372.9634
   -555734.73144   -433039.23044  21501991.5674   21501992.6394
   -486306.56444                  25265984.9124
   -389051.56644   -303156.96844  20671443.0694   20671443.5804
    193295.98144    150620.34244  20354055.0414   20354055.2104
    661910.33744    515774.92744  21740595.5264   21740595.8804
    959290.08244    747499.55444  24612264.5904   24612266.6424
   -159684.62144   -124424.16144  25292979.0554   25292982.6584
 96  4  8  1  6 30.0000000  0  7G 6G16G20G 5G24G 4G25
   -448209.63644   -349254.03244  22476249.6424   22476249.4534
   -608612.62944   -474242.75644  21491928.9484   21491930.4414
   -425092.07544   -331240.47544  20664584.7334   20664585.4544
    220093.48544    171501.51044  20359154.5134   20359154.6544
    729210.56744    568216.67044  21753402.2474   21753403.0684
   1055145.00344    822191.75444  24630506.3984   24630504.3954
   -198406.54444   -154596.23344  25285609.8574   25285610.4064
 96  4  8  1  7  0.0000000  0  7G 6G16G20G 5G24G 4G25
   -511872.86944   -398861.70544  22464134.8814   22464134.9394
   -661047.30644   -515100.90944  21481950.5894   21481952.3114
   -460652.85444   -358950.16144  20657817.8044   20657818.3004
    247390.61144    192771.99344  20364348.9704   20364348.8854
    796665.15844    620778.68444  21766238.4524   21766239.1734
   1150956.61144    896850.15144  24648737.3614   24648740.6134
   -236681.72644   -184420.66844  25278326.0584
 96  4  8  1  7 30.0000000  0  8G 6G16G17G20G 5G24G 4G25
   -575448.70444   -448401.27644  22452037.0074   22452037.1254
   -712992.93044   -555577.97244  21472065.7734   21472067.2204
        -0.28054         0.58954  25210780.2004
   -495664.85644   -386232.23044  20651155.1994   20651155.6584
    275229.69344    214464.78044  20369646.5574   20369646.7944
    864327.65344    673502.70844  21779114.2724   21779114.8484
   1246756.34044    971499.29644  24666967.7414   24666966.3354
   -274460.87544   -213858.21244  25271138.0894   25271138.6804
 96  4  8  1  8  0.0000000  0  8G 6G16G17G20G 5G24G 4G25
   -638961.47144   -497891.69744  22439950.7934   22439951.1724
   -764456.77544   -595679.63544  21462272.7254   21462273.9284
    -96463.94844    -75165.57244  25192426.2534   25192429.3844
   -530132.31644   -413089.97944  20644596.2174   20644596.5774
    303609.76644    236579.12144  20375047.1684   20375047.1794
    932182.49844    726376.61244  21792026.0954   21792026.9734
   1342515.65844   1046116.95744  24685190.3194   24685191.5714
   -311762.74644   -242923.82344  25264040.5524   25264040.8644
 96  4  8  1  8 30.0000000  0  8G 6G16G17G20G 5G24G 4G25
   -702445.86944   -547360.02244  22427869.4964   22427869.7944
   -815467.27244   -635428.03944  21452565.6524   21452566.9464
   -192833.14644   -150258.15944  25174087.9094   25174089.7514
   -564074.92144   -439538.74944  20638136.9834   20638137.6354
    332514.42744    259102.23044  20380547.4524   20380547.4024
   1000201.16344    779378.17844  21804970.1374   21804970.8664
   1438206.81244   1120681.46844  24703399.2894   24703398.2084
   -348617.62444   -271641.69544  25257026.7404   25257029.7284
 96  4  8  1  9  0.0000000  0  8G 6G16G24G17G20G 5G 4G25
   -765866.62644   -596778.74744  22415800.5954   22415800.9404
   -865967.62944   -674778.92344  21442955.7454   21442957.0184
   1068419.53044    832535.34844  21817951.8444   21817952.5614
   -289078.36844   -225254.11544  25155773.7454   25155775.0934
   -597455.13644   -465549.29744  20631785.0354   20631785.6994
    361990.38944    282070.50744  20386156.4294   20386156.6174
   1533847.20444   1195206.42944  24721599.1494   24721599.5244
   -384986.50544   -299981.11244  25250107.7474   25250109.8534
 96  4  8  1  9 30.0000000  0  8G 6G16G24G17G20G 5G 4G25
   -829227.94544   -646151.14944  22403743.7524   22403744.1664
   -915947.34144   -713724.11244  21433444.7414   21433446.2694
   1136839.99144    885849.99144  21830971.6234   21830972.4754
   -385196.97044   -300151.42644  25137481.9204   25137484.7374
   -630287.34044   -491132.81644  20625537.3544   20625537.7194
    392034.16344    305481.23844  20391873.4494   20391873.5344
   1629437.38244   1269692.25344  24739790.1284   24739789.6844
   -420865.09244   -327938.40644  25243277.4394   25243278.3334
 96  4  8  1 10  0.0000000  0  8G 6G16G24G17G20G 5G 4G25
   -892522.80144   -695471.78144  22391699.1014   22391699.4834
   -965409.53444   -752266.04344  21424032.5964   21424033.8504
   1205453.71244    939315.22344  21844028.4704   21844029.0864
   -481182.42244   -374945.00044  25119216.6904   25119216.0654
   -662585.12644   -516299.91544  20619391.3184   20619391.8594
    422642.30844    329331.73344  20397698.1954   20397698.4704
   1724981.47244   1344142.19744  24757970.1534   24757972.3854
   -456259.63044   -355518.64644  25236542.8924   25236540.7214
 96  4  8  1 10 30.0000000  0  8G 6G16G24G17G20G 5G 4G25
   -955739.82244   -744731.75944  22379669.1624   22379669.7464
  -1014342.98544   -790395.97044  21414720.8784   21414722.1684
   1274275.79244    992942.81544  21857124.7174   21857125.7884
   -577029.06044                  25100973.6154
   -694335.29544   -541040.29244  20613349.3784   20613349.9044
    453812.68544    353620.32944  20403629.7924   20403629.8254
   1820499.27544   1418571.67344  24776146.3664   24776144.7034
   -491170.31144   -382721.86344  25229902.4304   25229899.3084
 96  4  8  1 11  0.0000000  0  7G 6G16G24G20G 5G 4G25
  -1018867.61244   -793922.21344  22367656.2184   22367656.8234
  -1062729.26544   -828099.53844  21405512.8104   21405514.2404
   1343312.41544   1046737.59344  21870262.0484   21870262.3754
   -725517.44544   -565338.06344  20607415.4724   20607415.9584
    485550.17744    378350.83444  20409669.3104   20409669.3014
   1916003.91244   1492990.87244  24794321.5504   24794321.2174
   -525586.82044   -409539.99344  25223350.6264
 96  4  8  1 11 30.0000000  0  8G 6G16G24G17G20G 5G 4G25
  -1081994.98644   -843112.33144  22355643.5134   22355643.8744
  -1110657.27544   -865446.01244  21396392.6914   21396394.1484
   1412477.16844   1100632.21144  21883423.7034   21883424.0884
        -0.38254                  25064562.8804
   -756193.03144   -589241.10944  20601578.1334   20601578.4854
    517758.01344    403447.84344  20415798.2674   20415798.3544
   2011432.88244   1567351.15344  24812481.8014   24812482.5414
   -559595.31544   -436040.13144  25216882.2444   25216884.7804
 96  4  8  1 12  0.0000000  0  8G 6G16G24G17G20G 5G 4G25
  -1145059.35544   -892253.35744  22343642.7224   22343643.1044
  -1158061.41044   -902384.27544  21387371.8104   21387373.2594
   1481830.17544   1154673.51044  21896621.1814   21896621.6464
    -95489.60144                  25046394.6964
   -786291.11844   -612694.15644  20595850.8134   20595851.0314
    550493.12244    428955.72344  20422027.3214   20422027.5074
   2106841.71944   1641695.70544  24830637.1454   24830636.5244
   -593136.30244   -462175.95044  25210496.6944
 96  4  8  1 12 30.0000000  0  8G 6G16G24G17G20G 5G 4G25
  -1208056.20544   -941341.77844  22331654.9644   22331655.2394
  -1204946.95144   -938918.42944  21378449.7944   21378451.6804
   1551365.58344   1208856.93744  21909853.6304   21909854.3954
   -190849.06344   -148712.62044  25028249.1454
   -815807.39744   -635693.84744  20590233.9774   20590234.5854
    583761.64444    454879.24844  20428358.0344   20428358.3814
   2202222.58544   1716018.50544  24848787.1124   24848788.7384
   -626195.54544                  25204206.1664
 96  4  8  1 13  0.0000000  0  8G 6G16G24G17G20G 5G 4G25
  -1270967.04144   -990363.17444  22319683.4704   22319683.8024
  -1251314.60244   -975049.01744  21369626.1264   21369627.8144
   1621084.15644   1263183.09344  21923120.1684   21923120.8234
   -286047.10844   -222892.65344  25010135.6674   25010135.9244
   -844732.09944   -658232.57144  20584729.7224   20584730.1744
    617579.00744    481230.44144  20434793.2564   20434793.5664
   2297574.32944   1790318.54144  24866932.0664   24866933.2784
   -658746.15144   -513300.46744  25198010.5734   25198009.8694
 96  4  8  1 13 30.0000000  0  8G 6G16G24G17G20G 5G 4G25
  -1333801.62244  -1039325.15044  22307726.2814   22307726.5854
  -1297172.97744  -1010782.77444  21360899.8254   21360900.9484
   1690970.45644   1317639.95144  21936419.1354   21936419.3794
   -381099.43844   -296959.06044  24992049.1054   24992051.7184
   -873096.24244   -680334.49444  20579332.4664   20579332.9934
    651943.68644    508008.11744  20441332.7604   20441332.9844
   2392879.26044   1864582.11444  24885068.7964
   -690791.35244   -538270.74844  25191912.7144   25191910.9674
 96  4  8  1 14  0.0000000  0  8G 6G16G24G17G20G 5G 4G25
  -1396545.08444  -1088216.12844  22295786.8694   22295786.7484
  -1342497.71544  -1046100.70944  21352274.7204   21352275.6734
   1761028.02544   1372230.26644  21949750.8164   21949751.3474
   -475997.29044   -370905.12944  24973989.5994   24973993.2934
   -900901.98944   -702001.30344  20574041.0364   20574041.5904
    686881.85144    535232.66544  20447981.3324   20447981.2674
   2488138.47244   1938810.14644  24903195.5394
   -722319.44744   -562838.13044  25185913.4394
 96  4  8  1 14 30.0000000  0  8G 6G16G24G17G20G 5G 4G25
  -1459229.94744  -1137061.44644  22283858.3954   22283858.1434
  -1387319.94244  -1081027.07744  21343745.4174   21343746.6324
   1831218.55844   1426924.18644  21963107.6114   21963108.2744
   -570751.64244   -444739.39544  24955958.1264   24955958.8614
   -928168.86744   -723248.21544  20568852.2144   20568852.7724
    722366.12344    562882.75244  20454733.9344   20454733.9364
   2583326.07744                  24921308.2104
   -753361.93244                  25180005.5684
 96  4  8  1 15  0.0000000  0  8G 6G16G24G17G20G 5G 4G25
  -1521852.72044  -1185858.39044  22271941.4624   22271942.1084
  -1431622.21944  -1115548.29144  21335315.0714   21335316.0504
   1901551.48844   1481729.07044  21976491.6334   21976492.2274
   -665366.03444   -518464.59244  24937951.8194   24937955.9624
   -954886.29444   -744066.97844  20563768.3174   20563768.8424
    758405.78744    590965.61144  20461591.8244   20461592.1474
   2678459.51544                  24939410.2014
   -783920.46644                  25174189.3944
 96  4  8  1 15 30.0000000  0  8G 6G16G24G17G20G 5G 4G25
  -1584418.79944  -1234611.15844  22260035.3794   22260035.3874
  -1475397.15544  -1149658.59444  21326984.5764   21326985.7394
   1972026.72344   1536644.83744  21989902.5574   21989903.0214
   -759850.01944                  24919968.9914
   -981057.61744   -764460.20544  20558787.7524   20558788.4494
    794989.38744    619472.30944  20468553.7184   20468553.8734
   2773542.16544                  24957503.2934
   -814011.35144   -634287.38844  25168465.1764
 96  4  8  1 16  0.0000000  0  8G 6G16G24G17G20G 5G 4G25
  -1646890.45844  -1283290.34544  22248147.6664   22248147.8674
  -1518627.72344  -1183344.71644  21318758.2844   21318759.6914
   2042674.87044   1591695.34344  22003346.3434   22003347.4484
   -854166.63644   -665581.25644  24902019.7554
  -1006649.39044   -784401.83844  20553918.0054   20553918.5914
    832124.91144    648409.07544  20475620.2064   20475620.4064
   2868606.95544                  24975595.0564
   -843616.14944   -657356.09444  25162829.0694   25162831.7134
 96  4  8  1 16 30.0000000  0  7G 6G16G24G17G20G 5G25
  -1709297.07344  -1331918.84444  22236271.6934   22236272.1104
  -1561355.20544  -1216638.82044  21310627.5684   21310628.8854
   2113466.83444   1646857.91344  22016817.3424   22016818.1094
   -948355.83944                  24884096.4624
  -1031707.61944   -803927.71644  20549149.6084   20549149.9624
    869774.52144    677746.42944  20482784.7094   20482784.7804
   -872775.25144                  25157281.3044
 96  4  8  1 17  0.0000000  0  7G 6G16G24G17G20G 5G25
  -1771635.20044  -1380493.97844  22224409.2474   22224409.5034
  -1603563.02444  -1249527.99244  21302595.4964   21302596.9744
   2184408.59744   1702137.20844  22030317.5474   22030318.0964
  -1042414.40144   -812267.26444  24866198.8604
  -1056243.20044   -823046.34344  20544480.6094   20544481.0254
    907938.11344    707484.28644  20490047.0464   20490047.3044
   -901489.64244                  25151815.0684
 96  4  8  1 17 30.0000000  0  8G 6G16G24G17G20G 5G 9G25
  -1833800.81644  -1428934.69444  22212579.5314   22212579.9444
  -1645132.97344  -1281920.12944  21294685.2294   21294686.6804
   2255608.62044   1757617.74444  22043866.2014   22043866.6274
  -1136202.68344   -885348.74844  24848353.7224
  -1080140.11444   -841667.30344  20539933.1574   20539933.9014
    946715.14244    737700.14444  20497426.0114   20497426.3644
        -0.70954        -0.51754  25292707.0274
   -929635.14744                  25146459.9714
 96  4  8  1 18  0.0000000  0  7G 6G16G24G17G20G 5G 9
  -1895929.07344  -1477346.29344  22200756.8104   22200756.7044
  -1686189.15844  -1313911.91744  21286872.4654   21286873.4954
   2326926.50544   1813190.11944  22057437.8624   22057438.1104
  -1229858.41544   -958327.01244  24830531.6714   24830531.6104
  -1103518.37344   -859884.12244  20535484.4044   20535484.7904
    985993.67444    768306.78244  20504900.4554   20504900.7774
     85117.27144                  25308905.5824
 96  4  8  1 18 30.0000000  0  7G 6G16G24G17G20G 5G 9
  -1958043.28944  -1525746.95344  22188937.0424   22188937.2214
  -1726728.19444  -1345500.73044  21279158.0194   21279159.0984
   2398350.62444   1868845.28244  22071029.2424   22071029.2794
  -1323389.13544  -1031207.79044  24812732.0704   24812735.1844
  -1126371.16644   -877691.48144  20531135.5084   20531136.0774
   1025778.03144    799307.57044  20512471.2094   20512471.4344
    170015.43044                  25325060.7904
 96  4  8  1 19  0.0000000  0  7G 6G16G24G17G20G 5G 9
  -2020158.83144  -1574148.64144  22177116.9664   22177116.9044
  -1766745.94544  -1376683.35344  21271542.7854   21271543.9714
   2469872.16944   1924576.36244  22084639.6114   22084639.6314
  -1416783.38744  -1103982.28544  24794960.4234   24794958.8014
  -1148680.28944   -895075.20644  20526890.4524   20526890.8454
   1066055.78944    830692.83144  20520135.8214   20520136.0084
    254688.81944                  25341174.0764
 96  4  8  1 19 30.0000000  0  7G 6G16G24G17G20G 5G 9
  -2082258.34444  -1622537.84344  22165299.8174   22165299.6264
  -1806246.96444  -1407463.32744  21264026.1724   21264026.9404
   2541508.27244   1980396.69844  22098271.2284   22098271.9394
  -1510052.15644  -1176659.04044  24777212.3564   24777210.2404
  -1170428.79744   -912022.08844  20522751.6864   20522752.2434
   1106850.40144    862480.83444  20527898.9374   20527899.0044
    339158.53444                  25357247.8444
 96  4  8  1 20  0.0000000  0  8G 6G16G24G17G20G 5G 9G25
  -2144314.62944  -1670893.35944  22153490.8164   22153490.9724
  -1845227.17444  -1437837.47944  21256608.0284   21256609.2834
   2613276.92744   2036320.31444  22111928.4254   22111929.1774
  -1603217.94144  -1249255.50344  24759483.4224   24759486.4234
  -1191622.62944   -928536.75944  20518718.6254   20518719.1544
   1148178.77144    894684.75844  20535763.3954   20535763.5354
    423426.25444                  25373282.5004
        -0.74254                  25120991.7054
 96  4  8  1 20 30.0000000  0  8G 6G16G24G17G20G 5G 9G25
  -2206299.12044  -1719192.93044  22141695.3114   22141695.4514
  -1883671.60744  -1467794.15644  21249292.6614   21249294.0324
   2685200.21244   2092364.42644  22125615.0974   22125615.6044
  -1696263.29044  -1321758.11044  24741777.0834   24741781.9964
  -1212255.29244   -944614.15544  20514792.3424   20514792.8484
   1190042.86144    927306.12744  20543729.8914   20543730.0314
    507484.65644                  25389280.4424
    -25322.41244                  25116169.5904
 96  4  8  1 21  0.0000000  0  8G 6G16G24G17G20G 5G 9G25
  -2268199.67944  -1767427.10144  22129915.9514   22129916.3184
  -1921592.26044  -1497342.68344  21242076.4324   21242077.5924
   2757267.67244   2148520.89044  22139328.8604   22139329.8024
  -1789203.39444  -1394178.76244  24724089.5344   24724096.0224
  -1232339.70844   -960264.34644  20510970.5994   20510970.9924
   1232434.83944    960338.83344  20551796.8734   20551797.0534
    591327.47644                  25405234.6894
    -50166.25344                  25111443.5654
 96  4  8  1 21 30.0000000  0  8G 6G16G24G17G20G 5G 9G25
  -2329972.30344  -1815561.57944  22118160.5754   22118161.1454
  -1958965.76044  -1526464.85344  21234964.3914   21234965.6484
   2829505.12144   2204809.80044  22153075.2604   22153076.3844
  -1882017.05344                  24706425.4054
  -1251859.51644   -975474.58144  20507256.0174   20507256.3494
   1275372.68944    993796.89444  20559967.7034   20559967.8494
    674977.96444                  25421153.3564
    -74517.09344                  25106810.5474
 96  4  8  1 22  0.0000000  0  8G 6G16G24G17G20G 5G 9G25
  -2391600.84744  -1863583.79344  22106433.1014   22106433.3404
  -1995758.94644  -1555134.82544  21227962.8724   21227964.2284
   2901912.06044   2261230.78744  22166853.7894   22166854.4334
  -1974670.50844  -1538698.05244  24688793.1304
  -1270797.54144   -990231.47844  20503652.1944   20503652.7354
   1318845.87744   1027672.10044  20568240.2324   20568240.4944
    758447.60244                  25437037.0934
    -98370.41244                  25102273.6694
 96  4  8  1 22 30.0000000  0  8G 6G16G24G17G20G 5G 9G25
  -2453121.11344  -1911521.63644  22094726.3934   22094726.3414
  -2031995.48344  -1583371.04244  21221067.6814   21221068.3244
   2974445.85844   2317750.62544  22180656.2674   22180657.2854
  -2067156.48044  -1610764.80144  24671195.1694   24671199.6994
  -1289166.74244  -1004545.13244  20500156.6174   20500157.0244
   1362817.61944   1061935.79344  20576607.5964   20576607.9184
    841722.08344                  25452884.4744
   -121740.80544                  25097826.2214
 96  4  8  1 23  0.0000000  0  8G 6G16G24G17G20G 5G 9G25
  -2514557.40944  -1959394.04944  22083035.5764   22083035.8664
  -2067688.54644  -1611183.77844  21214275.0344   21214276.2484
   3047095.62944   2374360.83644  22194481.3504   22194481.8654
  -2159476.58044                  24653626.6274
  -1306969.08844  -1018417.08444  20496769.1614   20496769.6894
   1407275.07044   1096577.95844  20585067.7674   20585068.1554
    924802.73944                  25468692.7684
   -144644.82644                  25093469.0024
 96  4  8  1 23 30.0000000  0  8G 6G16G24G17G20G 5G 9G25
  -2575942.99144  -2007226.94044  22071354.3544   22071354.6794
  -2102855.97244  -1638586.93044  21207582.8564   21207583.8114
   3119840.44044   2431045.10444  22208324.1284   22208324.7464
  -2251642.03844  -1754519.26444  24636088.3724   24636094.5014
  -1324227.25044  -1031864.99444  20493485.0534   20493485.4234
   1452184.55844   1131572.36644  20593613.7374   20593614.0374
   1007657.18044                  25484462.4304
   -167100.82144                  25089196.1294
 96  4  8  1 24  0.0000000  0  7G 6G16G17G20G 5G24G25
  -2637301.05844  -2055038.38744  22059678.1014   22059678.5984
  -2137507.33544  -1665587.95644  21200989.1204   21200990.2944
  -2343654.01644  -1826216.74644  24618578.8674   24618584.5894
  -1340937.26444  -1044885.77344  20490305.1024   20490305.7254
   1497553.67844   1166924.93244  20602247.3684   20602247.4984
   3192666.03844   2487792.32444  22222182.2084   22222182.9564
   -189115.41044                  25085007.9934
 96  4  8  1 24 30.0000000  0  7G 6G16G24G17G20G 5G25
  -2698577.93944  -2102786.57644  22048017.8304   22048018.2614
  -2171591.29544  -1692146.84844  21194503.2534   21194504.3884
   3265642.51144   2544657.09744  22236069.1434   22236070.4674
  -2435450.73744  -1897746.41444  24601111.4394   24601118.2134
  -1357023.59344  -1057420.56844  20487244.0664   20487244.4814
   1543464.67344   1202699.74044  20610983.8184   20610983.9524
   -210619.05344                  25080917.2544
 96  4  8  1 25  0.0000000  0  7G 6G16G24G17G20G 5G 4
  -2759796.55044  -2150489.35744  22036368.5304   22036368.5624
  -2205129.55044  -1718280.51944  21188121.0474   21188122.1314
   3338756.63944   2601629.14244  22249982.4824   22249983.5004
  -2527071.79744  -1969139.19844  24583676.7404   24583680.1984
  -1372503.77744  -1069483.04044  20484298.3544   20484298.6804
   1589908.54244   1238889.76844  20619821.9554   20619822.1684
        -0.12954                  25299027.5104
 96  4  8  1 25 30.0000000  0  7G 6G16G24G17G20G 5G 4
  -2820970.51544  -2198157.35744  22024727.3144   22024727.1584
  -2238142.20244  -1744004.62644  21181838.7244   21181839.8634
   3411969.87044   2658678.40744  22263914.2354   22263914.8854
  -2618540.36944  -2040413.21444  24566272.3234   24566272.8524
  -1387407.20944  -1081096.09344  20481462.1774   20481462.6984
   1636866.10344   1275480.07344  20628757.5124   20628757.5904
     93731.66344                  25316862.5414
 96  4  8  1 26  0.0000000  0  7G 6G16G24G17G20G 5G 4
  -2882109.59044  -2245798.16444  22013092.6454   22013093.0254
  -2270630.64844  -1769320.26144  21175656.4224   21175657.0814
   3485259.88644   2715787.51344  22277861.2124   22277861.7384
  -2709871.90444  -2111580.47044  24548892.7004   24548892.7824
  -1401744.78344  -1092268.22244  20478733.9154   20478734.2864
   1684339.28644   1312472.15744  20637791.5744   20637791.4424
    187371.02144                  25334684.5494
 96  4  8  1 26 30.0000000  0  6G 6G16G24G17G20G 5
  -2943180.00844  -2293385.47344  22001471.3044   22001471.6604
  -2302570.83444  -1794208.68644  21169578.5424   21169579.5194
   3558647.63544   2772972.77244  22291826.2764   22291827.0934
  -2801054.59244  -2182631.73244  24531540.6194   24531542.9264
  -1415510.33344  -1102994.61544  20476114.3514   20476114.9464
   1732335.26544   1349871.61444  20646924.8154   20646925.0714
 96  4  8  1 27  0.0000000  0  6G 6G16G24G17G20G 5
  -3004148.57544  -2340893.42244  21989869.7394   21989869.6664
  -2333937.46744  -1818650.18944  21163609.5874   21163610.3634
   3632141.63144   2830240.81844  22305812.1124   22305812.5774
  -2892073.44344  -2253555.27344  24514218.3484   24514221.0514
  -1428696.31344  -1113269.39944  20473605.3314   20473605.8294
   1780865.17444   1387687.12444  20656159.6264   20656160.0044
 96  4  8  1 27 30.0000000  0  6G 6G17G16G24G20G 5
  -3065011.08344  -2388318.72544  21978288.0474   21978288.3704
  -2982933.50444  -2324355.10344  24496927.3074   24496932.0554
  -2364726.94844  -1842641.96544  21157750.3184   21157751.3994
   3705735.32444   2887586.54844  22319816.3824   22319817.0074
  -1441315.89644  -1123102.83444  20471203.6634   20471204.0624
   1829914.59344   1425907.44244  20665493.7804   20665494.0694
 96  4  8  1 28  0.0000000  0  6G 6G16G24G17G20G 5
  -3125768.74444  -2435662.33044  21966725.9964   21966726.3684
  -2394934.33644  -1866180.16744  21152002.1454   21152002.9064
   3779445.45344   2945023.00944  22333843.0904   22333843.3804
  -3073649.79144  -2395042.96144  24479664.1874   24479666.2554
  -1453361.32844  -1132488.87444  20468911.4924   20468912.0494
   1879481.76544   1464531.20544  20674925.5964   20674926.0404
 96  4  8  1 28 30.0000000  0  7G 6G16G24G17G20G 5G25
  -3186412.31344  -2482917.03744  21955185.8304   21955185.9714
  -2424564.77544  -1889268.79244  21146363.6754   21146364.4524
   3853290.42744   3002564.54644  22347895.2064   22347895.8884
  -3164220.00344  -2465617.00744  24462429.3334   24462433.6634
  -1464812.98844  -1141412.23944  20466732.3144   20466732.7074
   1929571.12344   1503561.86644  20684457.5974   20684457.8054
        -0.16854                  25051410.0274
 96  4  8  1 29  0.0000000  0  7G 6G16G24G17G20G 5G25
  -3246962.60744  -2530099.06644  21943663.0474   21943662.9654
  -2453617.79344  -1911907.47944  21140835.2164   21140836.2304
   3927262.33544   3060204.98644  22361971.6274   22361972.1524
  -3254655.23544  -2536085.81644  24445219.6164   24445223.6604
  -1475673.00044  -1149874.58444  20464665.8064   20464666.1584
   1980179.12044   1542996.66244  20694088.0734   20694088.2694
    -17166.30344                  25048145.6584
 96  4  8  1 29 30.0000000  0  7G 6G16G24G17G20G 5G25
  -3307436.32044  -2577221.42044  21932155.3184   21932155.2294
  -2482092.35944  -1934095.41544  21135416.5774   21135417.6614
   4001363.02644   3117945.78444  22376072.7474   22376072.9354
  -3344957.39844  -2606450.99544  24428035.6964   24428041.6464
  -1485941.00444  -1157875.62444  20462711.9834   20462712.4164
   2031292.93444   1582825.60244  20703814.7364   20703814.6584
    -33819.80144    -26352.74744  25044977.5664
 96  4  8  1 30  0.0000000  0  7G 6G16G17G24G20G 5G25
  -3367835.40444  -2624285.61844  21920661.7344   21920661.9004
  -2509992.51344  -1955835.75844  21130107.6294   21130108.4584
  -3435108.60044  -2676698.53544  24410881.3574   24410885.1374
   4075599.11244   3175792.08044  22390199.2204   22390199.1004
  -1495595.53844  -1165398.63144  20460874.5824   20460875.0134
   2082909.29744   1623046.14244  20713637.1234   20713637.3474
    -49970.50544    -38937.69144  25041902.3714   25041898.4434
 96  4  8  1 30 30.0000000  0  7G 6G16G17G24G20G 5G25
  -3428144.96944  -2671280.05444  21909185.4364   21909185.7324
  -2537318.23044  -1977128.49144  21124907.7944   21124908.4564
  -3525077.13444  -2746803.74244  24393760.6094   24393766.0914
   4149971.46044   3233744.55644  22404351.7934   22404352.1724
  -1504627.69244  -1172436.66944  20459155.9364   20459156.3804
   2135026.14344   1663656.66544  20723554.2894   20723554.5664
    -65613.31244    -51126.88544  25038925.3814   25038923.3234
 96  4  8  1 31  0.0000000  0  7G 6G16G17G20G 5G24G25
  -3488323.53944  -2718172.41544  21897733.8934   21897734.0564
  -2564022.52844  -1997936.99544  21119825.7264   21119826.6894
  -3614814.10144  -2816728.49244  24376684.6344   24376687.8564
  -1513020.21144  -1178976.29344  20457558.9944   20457559.5424
   2187676.74744   1704683.10144  20733573.3934   20733573.6964
   4224510.20944   3291826.69844  22418536.3624   22418536.8014
    -80719.97844    -62898.31444  25036047.3864   25036045.9824
 96  4  8  1 31 30.0000000  0  7G 6G16G17G24G20G 5G25
  -3548391.79444  -2764978.82044  21886303.6124   21886303.9084
  -2590150.51844  -2018296.43044  21114853.9664   21114854.6084
  -3704345.96044  -2886493.40744  24359646.6624   24359652.5354
   4299179.66844   3350010.69844  22432745.5304   22432747.1094
  -1520806.19144  -1185043.29044  20456077.3884   20456077.7904
   2240824.92544   1746097.25644  20743687.1644   20743687.4474
    -95341.57544    -74291.77244  25033264.4664   25033264.8904
 96  4  8  1 32  0.0000000  0  7G 6G16G17G24G20G 5G25
  -3608378.65144  -2811721.80044  21874888.3004   21874888.4664
  -2615736.36444  -2038233.42044  21109984.9054   21109985.8184
  -3793708.31344  -2956126.31144  24342641.7514   24342644.7244
   4373934.67744   3408261.35244  22446970.8754   22446970.8224
  -1528026.85944  -1190669.78344  20454703.5664   20454703.9724
   2294448.56944   1787881.90444  20753891.3624   20753891.8084
   -109500.52044    -85324.70344  25030568.9844   25030569.3724
 96  4  8  1 32 30.0000000  0  7G 6G16G17G24G20G 5G25
  -3668274.03344  -2858393.49844  21863490.9214   21863491.0074
  -2640755.20844  -2057728.59144  21105223.9794   21105224.7194
  -3882909.41844  -3025633.52944  24325666.9624   24325671.4384
   4448767.05644   3466572.30644  22461210.8564   22461211.3144
  -1534698.89744  -1195868.77544  20453433.6024   20453434.1034
   2348571.43944   1830055.56044  20764190.6764   20764190.9024
   -123188.14144    -95990.36244  25027966.4214   25027967.4114
 96  4  8  1 33  0.0000000  0  7G 6G16G17G24G20G 5G25
  -3728062.53144  -2904981.90744  21852113.5384   21852113.7954
  -2665172.28344  -2076754.85144  21100577.3994   21100578.4224
  -3971937.65544  -3095006.00744  24308725.7264   24308729.1144
   4523694.43244   3524957.26944  22475469.2474   22475469.6564
  -1540802.84744  -1200625.10044  20452272.1304   20452272.6264
   2403222.66944   1872640.92744  20774590.6984   20774590.9104
   -136375.88244   -106266.56944  25025458.8004   25025455.7604
 96  4  8  1 33 30.0000000  0  7G 6G16G17G24G20G 5G25
  -3787771.11144  -2951508.04144  21840751.6664   21840751.6564
  -2689016.72344  -2095334.90544  21096040.1924   21096041.1254
  -4060818.85144  -3164263.93344  24291812.4234   24291815.5614
   4598686.54044   3583392.66144  22489739.6534   22489740.1714
  -1546347.54944  -1204945.64644  20451216.8474   20451217.3444
   2458368.97244   1915612.06744  20785084.6394   20785084.7504
   -149080.00244   -116165.89744  25023043.4624   25023039.3724
 96  4  8  1 34  0.0000000  0  7G 6G16G17G24G20G 5G25
  -3847423.15544  -2997990.12744  21829399.5894   21829399.7404
  -2712293.28244  -2113472.45044  21091610.8774   21091611.4304
  -4149564.74544  -3233416.46944  24274925.2504   24274924.5784
   4673721.42744   3641861.40244  22504018.1854   22504019.2194
  -1551342.11744  -1208837.51544  20450266.5224   20450266.9364
   2513992.87444   1958955.36744  20795669.4814   20795669.7714
   -161320.51144   -125703.98944  25020715.8434   25020709.7514
 96  4  8  1 34 30.0000000  0  7G 6G16G17G24G20G 5G25
  -3906994.25344  -3044409.13944  21818063.4374   21818063.3294
  -2734990.13344  -2131158.27444  21087291.6364   21087292.6274
  -4238142.98944  -3302438.33244  24258069.2384   24258070.4854
   4748826.89844   3700385.13844  22518310.6004   22518310.6584
  -1555757.94544  -1212278.41744  20449426.2344   20449426.7614
   2570112.65244   2002685.06744  20806348.9784   20806349.1994
   -173089.78844   -134874.87444  25018474.8554   25018471.3974
 96  4  8  1 35  0.0000000  0  7G 6G16G17G24G25G20G 5
  -3966486.12344  -3090766.41244  21806742.1474   21806742.2294
  -2757111.90544  -2148395.98744  21083082.1964   21083082.7954
  -4326537.28544  -3371316.89344  24241248.1644   24241250.0054
   4824008.79544   3758968.43544  22532617.0144   22532617.3194
   -184390.96544   -143681.00744  25016324.4664   25016322.8004
  -1559576.24444  -1215253.71344  20448699.5784   20448699.9434
   2626720.35744   2046794.96844  20817120.8624   20817120.6184
 96  4  8  1 35 30.0000000  0  7G 6G16G17G24G20G 5G25
  -4025890.55444  -3137055.54244  21795438.1214   21795438.2824
  -2778661.10244  -2165187.54444  21078981.1784   21078981.8814
  -4414732.58944  -3440040.35844  24224465.1444   24224467.8164
   4899273.14144   3817615.96844  22546939.5544   22546940.5874
  -1562789.31344  -1217757.40244  20448088.3854   20448088.8404
   2683813.97144   2091283.49644  20827985.2304   20827985.5334
   -195219.01044   -152118.46444  25014262.6044   25014260.7224
 96  4  8  1 36  0.0000000  0  7G 6G16G17G24G25G20G 5
  -4085224.23444  -3183289.55444  21784147.5194   21784147.6354
  -2799643.51244  -2181537.44144  21074988.1244   21074989.3984
  -4502743.46244  -3508620.07744  24207714.2864   24207717.7994
   4974609.98444   3876319.99444  22561275.5624   22561276.1104
   -205588.40844   -160198.52344  25012289.4664   25012287.3004
  -1565416.79044  -1219804.78244  20447588.1084   20447588.6164
   2741392.19144   2136149.63744  20838942.0944   20838942.7394
 96  4  8  1 36 30.0000000  0  7G 6G16G17G24G20G 5G25
  -4144455.48244  -3229443.74944  21772876.3194   21772875.9844
  -2820047.74244  -2197436.81144  21071105.5554   21071106.1204
  -4590549.38144  -3577040.14944  24191005.7694   24191009.5304
   5050052.83444   3935106.63444  22575632.0044   22575632.9984
  -1567443.38444  -1221383.94144  20447202.4344   20447202.9414
   2799473.52844   2181407.80744  20849994.4764   20849994.7554
   -215465.66244   -167895.06444  25010408.2794   25010411.1284
 96  4  8  1 37  0.0000000  0  7G 6G17G16G24G20G 5G25
  -4203613.94844  -3275541.23544  21761618.9604   21761619.2714
  -4678196.09144  -3645336.14644  24174328.8474   24174332.4234
  -2839909.77644  -2212913.69344  21067325.8934   21067326.7934
   5125565.66544   3993947.79044  22590001.2724   22590001.8714
  -1568897.97444  -1222517.38544  20446925.7184   20446926.1454
   2858005.42744   2227017.06444  20861133.0014   20861133.1484
   -224885.74244   -175235.44144  25008616.1954   25008613.7854
 96  4  8  1 37 30.0000000  0  7G 6G17G16G24G25G20G 5
  -4262678.07144  -3321565.19644  21750378.8904   21750379.0814
  -4765695.43544  -3713517.33044  24157677.5474   24157681.3524
  -2859227.97744  -2227966.81144  21063649.9984   21063650.5254
   5201167.76244   4052858.50744  22604388.0354   22604388.6534
   -233839.72644   -182212.58344  25006912.2224   25006914.0504
  -1569771.34744  -1223197.93244  20446759.8684   20446760.2174
   2916992.98044   2272981.37944  20872358.2494   20872358.1354
 96  4  8  1 38  0.0000000  0  7G 6G17G16G24G20G 5G25
  -4321624.03344  -3367497.09244  21739161.9924   21739162.1014
  -4853037.70244  -3781576.07544  24141055.8474   24141060.3134
  -2877973.25144  -2242573.49544  21060082.8474   21060083.5444
   5276879.40044   4111854.58144  22618795.5514   22618796.2664
  -1570039.14244  -1223406.59844  20446708.8924   20446709.3534
   2976463.07844   2319321.70844  20883674.9074   20883675.0144
   -242328.17644   -188826.95644  25005293.3974
 96  4  8  1 38 30.0000000  0  7G 6G17G16G24G20G 5G25
  -4380423.42844  -3413314.78844  21727972.7084   21727972.5404
  -4940204.66644  -3849498.23944  24124469.3764   24124472.7324
  -2896128.95144  -2256720.76144  21056627.8084   21056628.4174
   5352716.18544   4170948.18044  22633226.9394   22633227.6864
  -1569674.52744  -1223122.48144  20446777.9874   20446778.7594
   3036421.01344   2366042.17344  20895084.4934   20895084.6554
   -250338.64044                  25003769.6714
 96  4  8  1 39  0.0000000  0  7G 6G17G16G24G20G 5G25
  -4439079.43444  -3459020.74344  21716810.9334   21716811.3514
  -5027199.41744  -3917286.24244  24107915.0424   24107918.7304
  -2913672.55644  -2270391.06444  21053289.4764   21053290.1214
   5428661.22144   4230126.12044  22647679.0044   22647679.4454
  -1568674.45744  -1222343.20144  20446968.3384   20446968.8624
   3096871.73044   2413146.61344  20906587.6734   20906588.0044
   -257874.75844   -200941.17544  25002334.2734
 96  4  8  1 39 30.0000000  0  7G 6G17G16G24G20G 5G25
  -4497637.82044  -3504650.63244  21705667.7044   21705667.8604
  -5114035.28044  -3984950.38544  24091391.2684   24091394.4844
  -2930612.26544  -2283590.79944  21050065.7934   21050066.6634
   5504673.12944   4289356.17144  22662143.2674   22662143.8144
  -1567078.08344  -1221099.26944  20447272.3374   20447272.8404
   3157803.44244   2460625.85744  20918182.5904   20918182.9104
   -264956.75044                  25000987.2044
 96  4  8  1 40  0.0000000  0  7G17G 6G16G24G20G 5G25
  -5200674.38244  -4052461.24244  24074903.9034   24074907.0824
  -4556092.10344  -3550199.40744  21694544.3834   21694544.1604
  -2946933.28944  -2296308.44544  21046959.9904   21046960.6994
   5580743.53944   4348631.82244  22676619.0374   22676620.1054
  -1564887.19444  -1219392.08044  20447688.9234   20447689.3294
   3219226.00944   2508487.58144  20929871.0574   20929871.2254
   -271559.93344                  24999731.6234
 96  4  8  1 40 30.0000000  0  7G 6G17G16G24G20G 5G25
  -4614437.92444  -3595663.67344  21683441.3804   21683441.3624
  -5287115.51844  -4119817.85944  24058453.2924   24058456.8324
  -2962644.75844  -2308551.12244  21043970.2254   21043970.8034
   5656861.73344   4407944.69444  22691103.5944   22691103.8904
  -1562112.17044  -1217229.71944  20448216.9534   20448217.4334
   3281130.24744   2556724.63144  20941651.1504   20941651.4754
   -277657.25644                  24998570.3564
 96  4  8  1 41  0.0000000  0  7G17G 6G16G24G25G20G 5
  -5373344.56744  -4187009.18844  24042045.1274   24042047.7584
  -4672674.28244  -3641042.63744  21672358.9964   21672359.5634
  -2977738.64244  -2320312.56744  21041098.0434   21041098.4824
   5733032.30944   4467298.39744  22705598.4844   22705599.1434
   -283236.01544   -220703.22944  24997511.9164
  -1558748.44744  -1214608.63244  20448857.2104   20448857.7744
   3343523.41344   2605342.66844  20953523.9954   20953524.5114
 96  4  8  1 41 30.0000000  0  7G17G 6G16G24G25G20G 5
  -5459354.00844  -4254029.38244  24025679.2914   24025681.9074
  -4730787.59144  -3686325.71244  21661300.6024   21661300.9004
  -2992233.20744  -2331607.01244  21038339.7784   21038340.3474
   5809267.31344   4526702.28744  22720105.7414   22720106.2134
   -288299.70344   -224648.99244  24996545.9984
  -1554793.35144  -1211526.73644  20449609.9514   20449610.3334
   3406394.39744   2654333.03444  20965487.9994   20965488.4804
 96  4  8  1 42  0.0000000  0  7G17G 6G16G24G20G 5G25
  -5545173.20044  -4320901.37344  24009347.4794   24009351.0024
  -4788768.91444  -3731505.94244  21650267.1334   21650267.1904
  -3006157.59444  -2342457.15944  21035689.8874   21035690.2214
   5885557.98244   4586149.56644  22734623.4884   22734624.5284
  -1550253.54344  -1207989.22244  20450473.8154   20450474.3474
   3469710.50344   2703670.24844  20977536.6684   20977536.8504
   -292876.62744   -228215.42144  24995676.6754
 96  4  8  1 42 30.0000000  0  7G17G 6G16G20G 5G24G25
  -5630816.90144  -4387636.58644  23993049.7334   23993053.3554
  -4846629.46944  -3776592.07244  21639257.1034   21639256.7784
  -3019507.95144  -2352860.01144  21033149.7674   21033150.3154
  -1545112.40944  -1203983.14144  20451451.9034   20451452.4184
   3533464.90744   2753348.99744  20989668.8284   20989668.8584
   5961906.33344   4645641.78544  22749151.8454   22749152.2534
   -296983.96044   -231415.94944  24994895.0484
 96  4  8  1 43  0.0000000  0  7G17G 6G16G20G 5G24G25
  -5716267.62544  -4454221.45544  23976788.9914   23976789.3344
  -4904357.52944  -3821574.95844  21628271.5184   21628271.5664
  -3032254.94344  -2362792.70344  21030723.4274   21030724.1004
  -1539343.48644  -1199487.87744  20452549.6904   20452550.2734
   3597681.64844   2803388.00144  21001888.9074   21001889.1294
   6038344.14144   4705203.70944  22763698.0664   22763698.2844
   -300617.23644   -234247.10344  24994204.3024
 96  4  8  1 43 30.0000000  0  7G17G 6G16G20G 5G24G25
  -5801556.56444  -4520680.24644  23960559.0114   23960560.9204
  -4961970.30644  -3866468.00744  21617307.9344   21617308.0884
  -3044418.72344  -2372270.94244  21028409.0824   21028409.8204
  -1532971.40244  -1194522.61844  20453762.4804   20453762.9344
   3662342.23844   2853772.85444  21014193.5074   21014193.6954
   6114842.73244   4764812.99844  22778254.9234   22778256.4934
   -303799.74644   -236726.90044  24993598.2794
 96  4  8  1 44  0.0000000  0  7G17G 6G16G20G 5G24G25
  -5886685.65644  -4587014.48644  23944359.5344   23944360.4694
  -5019491.28244  -3911289.52844  21606362.2324   21606362.3364
  -3055998.70844  -2381294.27944  21026205.9764   21026206.3494
  -1525997.66644  -1189088.53444  20455089.7154   20455090.1234
   3727455.79844   2904510.66744  21026584.3694   21026584.4334
   6191388.28544   4824458.87244  22792821.4144   22792822.4194
   -306526.67044                  24993077.1094
 96  4  8  1 44 30.0000000  0  7G17G 6G16G20G 5G24G25
  -5971629.67944  -4653204.51244  23928194.0844   23928196.7194
  -5076904.46144  -3956027.05144  21595436.7134   21595437.1644
  -3066967.34244  -2389841.24244  21024118.1954   21024118.7334
  -1518404.90444  -1183172.09244  20456534.4324   20456534.8034
   3793055.20744   2955627.06644  21039067.3564   21039067.5664
   6268008.75544   4884163.14244  22807401.1814   22807402.1474
   -308764.81544                  24992653.9014
 96  4  8  1 45  0.0000000  0  6G17G 6G16G 5G24G20
  -6056354.51944  -4719223.74144  23912071.3134   23912075.0874
  -5134170.39444  -4000649.83744  21584539.3704   21584539.7534
  -3077303.92444  -2397895.69744  21022151.1664   21022151.7784
   3859165.95444   3007141.91144  21051647.6194   21051648.2474
   6344731.88644   4943947.39244  22822001.1254   22822002.6264
  -1510190.01644  -1176770.88144  20458097.6304   20458098.1144
 96  4  8  1 45 30.0000000  0  6G17G 6G16G20G 5G24
  -6140876.99644  -4785085.31344  23895987.1094   23895990.1484
  -5191323.95044  -4045185.05444  21573663.6224   21573663.2784
  -3087052.48144  -2405491.95244  21020296.3384   21020296.8004
  -1501389.41244  -1169913.26944  20459772.4094   20459772.9354
   3925741.88844   3059019.25244  21064316.6614   21064316.9724
   6421517.51844   5003780.35544  22836612.5214   22836613.4784
 96  4  8  1 46  0.0000000  0  7G17G 6G16G20G 5G24G25
  -6225186.70844  -4850781.10344  23879943.1464   23879947.2024
  -5248358.50044  -4089627.54144  21562810.1844   21562809.6844
  -3096206.38944  -2412624.83644  21018554.0574   21018554.5794
  -1491999.96744  -1162596.82044  20461559.0344   20461559.5194
   3992780.23544   3111256.91944  21077073.7664   21077074.1364
   6498384.62744   5063676.80644  22851240.1994   22851241.4834
        -0.39954                  24991952.4004
 96  4  8  1 46 30.0000000  0  7G17G 6G16G20G 5G24G25
  -6309301.20244  -4916324.76044  23863936.5534   23863939.5804
  -5305275.60144  -4133978.50744  21551979.0974   21551979.2624
  -3104773.81744  -2419300.72444  21016923.6104   21016924.1354
  -1482047.00044  -1154841.26544  20463452.9854   20463453.4194
   4060258.25344   3163837.18944  21089914.3844   21089914.5424
   6575325.75244   5123630.93244  22865881.7854   22865882.8714
      -272.23844                  24991899.3424
 96  4  8  1 47  0.0000000  0  7G17G 6G16G20G 5G24G25
  -6393222.54744  -4981717.91244  23847967.7074   23847970.8234
  -5362088.79444  -4178248.49744  21541168.0914   21541167.8804
  -3112767.08044  -2425529.21544  21015402.9604   21015403.5174
  -1471536.80244  -1146651.50144  20465453.1084   20465453.6344
   4128163.73644   3216750.54744  21102836.6994   21102836.8314
   6652328.36344   5183632.95644  22880534.8194   22880535.8484
       -98.64744                  24991931.1364
 96  4  8  1 47 30.0000000  0  7G17G 6G16G20G 5G24G25
  -6476979.84244  -5046983.22844  23832029.0614   23832032.6004
  -5418811.04244  -4222447.63044  21530374.3304   21530374.0564
  -3120192.79444  -2431315.45744  21013989.6064   21013990.2134
  -1460467.05244  -1138025.72744  20467559.6924   20467560.0674
   4196478.88144   3269983.12144  21115836.4644   21115836.7564
   6729374.10544   5243668.59444  22895196.3224   22895197.5124
       493.05344                  24992044.8904
 96  4  8  1 48  0.0000000  0  7G17G 6G16G20G 5G24G25
  -6560583.07444  -5112128.52744  23816120.1894   23816123.5724
  -5475425.88544  -4266563.07844  21519600.7424   21519600.6934
  -3127037.68744  -2436649.11544  21012687.1124   21012687.7784
  -1448834.37244  -1128961.30444  20469773.4284   20469773.8284
   4265221.59144   3323548.85744  21128917.9014   21128918.1394
   6806467.02444   5303741.01444  22909866.4354   22909866.8884
      1503.19444                  24992236.9754
 96  4  8  1 48 30.0000000  0  7G17G 6G16G20G 5G24G25
  -6644017.54044  -5177142.32944  23800243.9014   23800243.8054
  -5531921.94344  -4310585.96144  21508849.8884   21508849.5524
  -3133290.72944  -2441521.59444  21011497.3984   21011497.8704
  -1436622.49944  -1119445.56444  20472096.9684   20472097.4604
   4334398.51744   3377452.94044  21142081.6824   21142082.0104
   6883604.44344   5363848.09444  22924545.7594   22924546.0894
      2944.99844      2295.23344  24992510.8554
 96  4  8  1 49  0.0000000  0  7G17G 6G16G20G 5G24G25
  -6727308.09444  -5242043.98944  23784393.7314   23784393.4124
  -5588313.37144  -4354527.31344  21498118.4954   21498118.5894
  -3138971.24944  -2445947.94644  21010415.9844   21010416.6944
  -1423839.01644  -1109484.41144  20474529.6964   20474530.2544
   4403982.11444   3431673.90744  21155323.0194   21155323.0084
   6960756.23244   5423966.38444  22939227.4364   22939227.4974
      4808.65844      3747.38344  24992865.0394
 96  4  8  1 49 30.0000000  0  7G17G 6G16G20G 5G24G25
  -6810442.37444  -5306823.85344  23768573.1734   23768574.5804
  -5644585.03944  -4398375.35244  21487410.7834   21487410.4824
  -3144061.38144  -2449914.26044  21009447.2054   21009447.6384
  -1410469.32544  -1099066.47644  20477073.9864   20477074.4554
   4473984.30644   3486221.05644  21168643.9384   21168644.2254
   7037923.62544   5484096.81344  22953911.4424   22953911.6574
      7110.86944                  24993302.7774
 96  4  8  1 50  0.0000000  0  7G17G 6G16G20G 5G24G25
  -6893397.12144  -5371463.83444  23752787.6434   23752789.9034
  -5700741.58444  -4442133.67944  21476724.6884   21476724.6444
  -3148560.47344  -2453420.02444  21008591.6294   21008592.1824
  -1396513.08944  -1088191.49144  20479729.6684   20479730.0184
   4544406.23244   3541095.26844  21182044.7564   21182044.7634
   7115096.38944   5544231.43644  22968596.9584   22968596.9294
      9850.63744                  24993825.0044
 96  4  8  1 50 30.0000000  0  7G17G 6G16G20G 5G24G25
  -6976133.21944  -5435933.44844  23737043.6694   23737044.3994
  -5756749.42744  -4485776.13744  21466066.4824   21466066.1614
  -3152433.70044  -2456438.10344  21007854.2684   21007854.7784
  -1381932.99944  -1076830.38844  20482504.3024   20482504.8534
   4615270.63144   3596314.26544  21195529.9514   21195530.2354
   7192293.89244   5604385.34044  22983287.1284   22983287.5734
     13060.09144     10177.09244  24994436.6004
 96  4  8  1 51  0.0000000  0  7G17G 6G16G20G 5G24G25
  -7058654.45544  -5500235.63044  23721339.7264   23721340.8934
  -5812609.44244  -4529303.40644  21455436.5814   21455436.5864
  -3155687.87244  -2458973.79844  21007234.9664   21007235.6154
  -1366732.48544  -1064985.83444  20485396.6704   20485397.1904
   4686582.21144   3651881.71444  21209099.9064   21209100.0844
   7269511.60944   5664554.99944  22997981.1354   22997981.0464
     16736.62044     13041.93944  24995134.2534
 96  4  8  1 51 30.0000000  0  7G17G 6G16G20G 5G24G25
  -7140932.34644  -5564348.19644  23705682.7694   23705683.7004
  -5868307.59544  -4572704.55044  21444837.4654   21444837.4314
  -3158309.07144  -2461016.27244  21006736.0614   21006736.6764
  -1350891.92844  -1052642.54744  20488411.1904   20488411.7064
   4758353.29244   3707807.21944  21222757.6454   21222757.8844
   7346771.34644   5724757.39744  23012683.1104   23012683.9234
     20891.65244                  24995926.5164
 96  4  8  1 52  0.0000000  0  7G17G 6G16G20G 5G24G25
  -7222959.62644  -5628265.49344  23690073.7364   23690075.9494
  -5923829.13944  -4615968.07544  21434272.5164   21434272.3624
  -3160292.71144  -2462561.94844  21006358.4384   21006359.2854
  -1334408.93444  -1039798.66044  20491547.6234   20491548.0654
   4830589.20744   3764094.93444  21236503.7764   21236503.9804
   7424097.53644   5785011.54144  23027397.0074   23027398.5594
     25541.09444     19901.54444  24996812.2184   24996813.2874
 96  4  8  1 52 30.0000000  0  7G17G 6G16G20G 5G24G25
  -7304744.81244  -5691994.10744  23674510.1584   23674512.5724
  -5979172.73744  -4659092.94344  21423740.7934   21423740.4894
  -3161644.94344  -2463615.61444  21006101.4394   21006101.8314
  -1317288.77544  -1026458.27644  20494805.5754   20494806.0964
   4903295.19944   3820748.93444  21250338.7244   21250339.4884
   7501517.94344   5845339.13144  23042129.6224   23042129.9674
     30711.22844     23930.21644  24997796.8384   24997794.8754
 96  4  8  1 53  0.0000000  0  7G17G 6G16G20G 5G24G25
  -7386300.81944  -5755544.14444  23658990.4504   23658992.2214
  -6034366.93344  -4702101.38344  21413237.7194   21413237.2324
  -3162383.05744  -2464190.74844  21005960.5934   21005961.1424
  -1299550.62044  -1012636.34044  20498180.8144   20498181.4314
   4976454.05744   3877755.82244  21264260.5974   21264261.2354
   7579037.12244   5905743.69644  23056882.1344   23056881.7154
     36263.07144                  24998882.1584
 96  4  8  1 53 30.0000000  0  7G17G 6G16G20G 5G24G25
  -7467677.05744  -5818954.13744  23643504.6364   23643508.1104
  -6089463.50244  -4745033.75744  21402752.9144   21402752.5484
  -3162554.62444  -2464324.42444  21005928.2164   21005928.8514
  -1281245.92544   -998372.94444  20501664.4764   20501664.9594
   5050022.52744   3935081.88544  21278260.5634   21278260.9404
   7656623.25044   5966200.43444  23071646.1554   23071647.7744
     41649.22544                  25000041.0384
 96  4  8  1 54  0.0000000  0  6G17G 6G16G20G 5G24
  -7548889.98644  -5882236.86044  23628051.2644   23628054.2064
  -6144479.49444  -4787903.34144  21392283.9674   21392283.6594
  -3162172.25644  -2464026.46844  21006000.9764   21006001.4464
  -1262398.33044   -983686.50644  20505251.0234   20505251.6514
   5124007.17444   3992732.24744  21292339.0084   21292339.6054
   7734262.98044   6026698.91344  23086420.1984   23086421.1084
 96  4  8  1 54 30.0000000  0  7G17G 6G16G20G 5G24G25
  -7629937.01944  -5945390.31444  23612627.7034   23612631.7124
  -6199402.98844  -4830700.84944  21381831.9034   21381831.7404
  -3161222.60844  -2463286.47044  21006181.7084   21006182.2214
  -1242986.02344   -968560.04044  20508944.8384   20508945.2894
   5198425.20344   4050720.30544  21306500.6584   21306501.1754
   7811957.88244   6087240.38844  23101205.4174   23101206.8994
         0.00454                  25002639.4184
 96  4  8  1 55  0.0000000  0  7G17G 6G16G20G 5G24G25
  -7710826.90944  -6008421.30344  23597234.2944   23597238.6834
  -6254222.39044  -4873417.24844  21371400.3504   21371400.2484
  -3159702.72744  -2462102.12744  21006470.7414   21006471.5194
  -1223004.90744   -952990.33944  20512747.2904   20512747.8574
   5273261.34844   4109034.17544  21320741.5034   21320741.9664
   7889688.58144   6147809.77444  23115996.9424   23115997.5324
      7460.43744      5814.34044  25004056.4194   25004057.4224
 96  4  8  1 55 30.0000000  0  7G17G 6G16G20G 5G24G25
  -7791554.89344  -6071326.15844  23581872.2904   23581873.5124
  -6308914.13644  -4916034.18044  21360992.9054   21360992.6314
  -3157613.56344  -2460474.19044  21006868.5314   21006868.9134
  -1202445.08944   -936969.70544  20516659.7824   20516660.3884
   5348515.49944   4167673.76044  21335061.5494   21335062.0674
   7967434.77344   6208391.21444  23130791.0364   23130791.6164
     15338.29144     11952.97544  25005554.0964
 96  4  8  1 56  0.0000000  0  7G17G 6G16G20G 5G24G25
  -7872095.32144  -6134084.87944  23566546.1914   23566546.6624
  -6363450.51444  -4958530.03944  21350615.0224   21350614.3784
  -3154930.88444  -2458383.77444  21007378.8264   21007379.0414
  -1181290.70244   -920485.77144  20520685.2974   20520685.7144
   5424187.06644   4226638.60144  21349461.4884   21349462.0344
   8045182.00744   6268973.48644  23145585.3824   23145586.4024
     23654.05244     18432.74244  25007139.7394   25007138.9094
 96  4  8  1 56 30.0000000  0  7G17G 6G16G20G 5G24G25
  -7952472.18344  -6196716.12444  23551251.3334   23551252.2334
  -6417852.99444  -5000921.56244  21340262.7244   21340262.1714
  -3151686.22944  -2455855.45444  21007996.3594   21007996.9664
  -1159571.95944   -903562.07944  20524818.1134   20524818.6894
   5500221.81244   4285886.42844  21363930.4874   21363931.0834
   8122884.42644   6329520.83544  23160371.7824   23160372.4614
     32374.99544     25228.29144  25008799.4154   25008801.2444
 96  4  8  1 57  0.0000000  0  7G17G 6G16G20G 5G24G25
  -8032615.47944  -6259165.35744  23536000.3794   23536001.3004
  -6472071.45944  -5043169.69344  21329944.8224   21329944.8644
  -3147821.80044  -2452844.19444  21008731.9494   21008732.4074
  -1137246.03144   -886165.25644  20529066.5704   20529067.1234
   5576659.79744   4345448.47244  21378476.2044   21378476.5864
   8200582.07344   6390064.45144  23175157.9114   23175158.8654
     41556.13444     32382.42644  25010546.7714   25010547.2134
 96  4  8  1 57 30.0000000  0  7G17G 6G16G20G 5G24G25
  -8112521.42344  -6321429.65844  23520795.0484   23520797.2734
  -6526118.93244  -5085284.58944  21319659.6704   21319659.6634
  -3143342.90044  -2449354.12944  21009584.1184   21009584.6534
  -1114319.59144   -868300.50244  20533429.4514   20533429.9354
   5653508.30744   4405330.40044  21393099.9994   21393100.6394
   8278266.13544   6450597.49944  23189940.2234   23189940.5594
     51215.89944     39909.58244  25012385.0224
 96  4  8  1 58  0.0000000  0  7G17G 6G16G20G 5G24G25
  -8192187.82244  -6383507.29144  23505635.3854   23505636.0404
  -6580002.05144  -5127271.42344  21309406.4104   21309406.1024
  -3138241.94744  -2445379.34244  21010554.7724   21010555.2644
  -1090794.27144   -849969.09144  20537906.0064   20537906.5584
   5730767.21044   4465532.12344  21407801.7664   21407802.2064
   8355965.45744   6511142.48144  23204725.6054   23204726.4694
     61372.54344     47823.82744  25014317.1864   25014317.9454
 96  4  8  1 58 30.0000000  0  7G17G 6G16G20G 5G24G25
  -8271640.03644  -6445418.04644  23490515.3694   23490517.6204
  -6633730.52944  -5169137.75144  21299182.2764   21299181.9404
  -3132525.43544  -2440924.90044  21011642.2724   21011642.9044
  -1066670.87444   -831171.64244  20542496.9214   20542497.2934
   5808430.08544   4526048.64044  21422580.8774   21422581.1524
   8433703.50044   6571717.63644  23219519.2474   23219520.5214
     72007.26444     56110.58744  25016340.3854   25016338.6124
 96  4  8  1 59  0.0000000  0  7G17G 6G16G20G 5G24G25
  -8350883.61944  -6507166.23144  23475435.9214   23475438.3844
  -6687299.75544  -5210879.99144  21288988.6314   21288988.1544
  -3126186.88244  -2435985.74644  21012848.3894   21012849.2124
  -1041944.01344   -811903.96444  20547202.0654   20547202.6734
   5886495.49244   4586878.80244  21437436.3204   21437436.7464
   8511505.42544   6632342.34944  23234324.3864   23234324.6934
     83116.35844                  25018453.1494
 96  4  8  1 59 30.0000000  0  7G17G 6G16G20G 5G24G25
  -8429925.61344  -6568757.32844  23460394.7724   23460395.5524
  -6740699.28944  -5252490.00244  21278826.8294   21278826.5324
  -3119237.98644  -2430571.00444  21014170.9134   21014171.3104
  -1016618.20544   -792169.57344  20552021.1854   20552021.7434
   5964960.97144   4648020.70944  21452367.4034   21452367.7944
   8589384.85144   6693027.62644  23249144.8564   23249145.2344
     94682.61944                  25020652.7434
 96  4  8  2  0  0.0000000  0  7G17G 6G16G20G 5G24G25
  -8508766.48944  -6630191.68644  23445392.1834   23445394.1444
  -6793923.60544  -5293963.47744  21268698.3734   21268698.2694
  -3111669.77244  -2424673.67644  21015610.9144   21015611.3954
   -990694.98044   -771969.66344  20556954.2814   20556954.8254
   6043812.93344   4709463.78344  21467372.5544   21467373.0734
   8667347.29644   6753777.58244  23263979.9514   23263980.1844
    106680.53344                  25022936.1354
 96  4  8  2  0 30.0000000  0  7G17G 6G16G20G 5G24G25
  -8587412.97244  -6691474.60544  23430425.8424   23430428.0564
  -6846966.47144  -5335295.56044  21258605.1194   21258604.6664
  -3103498.70444  -2418306.59544  21017166.0614   21017166.5384
   -964182.83344   -751310.85144  20561999.5614   20562000.0944
   6123046.18944   4771203.96644  21482450.1754   21482450.9844
   8745366.49144   6814571.76844  23278827.0194   23278827.3804
    119080.14944     92789.85244  25025296.8714
 96  4  8  2  1  0.0000000  0  7G17G 6G16G20G 5G24G25
  -8665849.43844  -6752593.85244  23415499.2354   23415500.9944
  -6899834.94244  -5376491.75744  21248544.3704   21248544.1884
  -3094749.28244  -2411488.84944  21018830.8944   21018831.2934
   -937093.83544   -730202.54744  20567154.0964   20567154.6684
   6202652.27144   4833234.65744  21497598.7634   21497599.3864
   8823424.39344   6875396.10844  23293680.6604   23293681.8324
    131873.28244                  25027730.4294
 96  4  8  2  1 30.0000000  0  7G17G 6G16G20G 5G24G25
  -8744080.23244  -6813552.84544  23400612.6204   23400614.6784
  -6952541.17644  -5417561.53244  21238514.6054   21238514.2124
  -3085432.85144  -2404229.27944  21020603.8604   21020604.4324
   -909434.98644   -708650.20344  20572417.6774   20572418.2254
   6282635.36244   4895559.12444  21512818.7914   21512819.3184
   8901496.27044   6936231.35844  23308537.2104   23308537.7194
    145053.41344    113028.75144  25030237.8564   25030238.3644
 96  4  8  2  2  0.0000000  0  7G17G 6G16G20G 5G24G25
  -8822116.73544  -6874360.46444  23385762.5454   23385765.3194
  -7005100.02844  -5458516.47044  21228512.9464   21228512.8684
  -3075553.03344  -2396530.69744  21022484.0014   21022484.5674
   -881215.03844   -686660.64144  20577787.7704   20577788.4034
   6362992.79044   4958175.28644  21528110.6464   21528111.2784
   8979567.36444   6997065.97744  23323393.2544   23323393.8324
    158629.17144    123607.32444  25032820.0744   25032819.6884
 96  4  8  2  2 30.0000000  0  7G17G 6G16G20G 5G24G25
  -8899954.83044  -6935013.46144  23370949.5424   23370953.1494
  -7057516.09744  -5499360.14344  21218538.5214   21218538.3974
  -3065105.34444  -2388389.62744  21024472.0094   21024472.6514
   -852432.97744   -664233.06644  20583264.4564   20583265.3074
   6443743.94944   5021098.25144  21543476.7664   21543477.1284
   9057644.29444   7057905.14144  23338250.9874   23338251.3164
    172628.00544    134515.54244  25035481.3484   25035481.5504
 96  4  8  2  3  0.0000000  0  7G17G 6G16G20G 5G24G25
  -8977589.81144  -6995508.14444  23356176.3654   23356178.5104
  -7109792.49244  -5540094.98144  21208590.6104   21208590.3114
  -3054063.86744  -2379785.86344  21026573.3914   21026573.7154
   -823082.81644   -641362.81844  20588849.8714   20588850.4134
   6524897.73444   5084334.94244  21558919.9854   21558920.2864
   9135730.23244   7118751.34444  23353110.2444   23353110.6664
    187077.25544    145774.63244  25038232.5914   25038232.0704
 96  4  8  2  3 30.0000000  0  7G17G 6G16G20G 5G24G25
  -9055043.91244  -7055861.93044  23341438.3144   23341438.1354
  -7161934.78644  -5580725.32844  21198668.3274   21198667.8394
  -3042410.51144  -2370705.31744  21028790.4084   21028790.9304
   -793175.02244   -618058.04844  20594541.1834   20594541.6864
   6606448.99644   5147881.36544  21574439.1434   21574439.1164
   9213807.28444   7179590.59544  23367968.1164   23367967.7624
    201979.61944    157386.82644  25041068.5734   25041068.8064
 96  4  8  2  4  0.0000000  0  7G17G 6G16G20G 5G24G25
  -9132308.09644  -7116067.74644  23326735.6994   23326735.7074
  -7213938.74644  -5621247.87544  21188772.3864   21188771.7864
  -3030143.59944  -2361146.67044  21031124.8284   21031125.1604
   -762711.14844   -594319.96844  20600338.2414   20600338.6294
   6688384.95844   5211727.54644  21590030.8364   21590031.1134
   9291884.04844   7240429.62044  23382826.3084   23382826.7154
    217329.67644    169347.85344  25043989.7994   25043989.3634
 96  4  8  2  4 30.0000000  0  7G17G 6G16G20G 5G24G25
  -9209357.29444  -7176106.04544  23312073.3814   23312074.0544
  -7265780.39544  -5661643.94844  21178906.9644   21178906.5974
  -3017254.75444  -2351103.40244  21033577.6624   21033578.0654
   -731668.66344   -570131.02344  20606245.4824   20606245.9644
   6770707.03344   5275874.60144  21605696.0024   21605696.3284
   9369967.65244   7301273.96044  23397684.6244   23397686.5694
    233120.03044    181651.98244  25046993.0134
 96  4  8  2  5  0.0000000  0  7G17G 6G16G20G 5G24G25
  -9286199.38944  -7235982.94044  23297450.6534   23297452.8894
  -7317458.90944  -5701912.90444  21169072.8194   21169072.5104
  -3003768.96544  -2340594.98444  21036143.6884   21036144.1314
   -700061.81644   -545502.31644  20612260.1374   20612260.5924
   6853383.79244   5340298.02844  21621428.7194   21621429.5184
   9448034.63544   7362105.37444  23412540.4024   23412541.0954
    249314.80844    194271.22944  25050075.6074   25050076.6834
 96  4  8  2  5 30.0000000  0  7G17G 6G16G20G 5G24G25
  -9362810.10444  -7295679.52944  23282871.7614   23282874.4104
  -7368953.56444  -5742038.59444  21159274.0584   21159273.6584
  -2989692.30244  -2329626.14944  21038822.6024   21038822.9514
   -667865.40944   -520414.20944  20618386.6084   20618387.1164
   6936426.84644   5405006.88144  21637231.3244   21637232.0824
   9526116.16944   7422948.16044  23427398.5294   23427398.8624
    265919.96744    207210.21244  25053236.1044
 96  4  8  2  6  0.0000000  0  7G17G 6G16G20G 5G24G25
  -9439192.34244  -7355198.10644  23268336.7064   23268339.4104
  -7420267.93344  -5782023.79844  21149509.1754   21149508.9084
  -2975048.01444  -2318215.00744  21041609.0644   21041609.4394
   -635081.83044   -494868.57044  20624625.1674   20624625.9484
   7019838.97944   5470003.30944  21653104.6764   21653105.3084
   9604210.76744   7483801.10744  23442259.5804   23442260.0334
    282924.19244                  25056472.3394
 96  4  8  2  6 30.0000000  0  7G17G 6G16G20G 5G24G25
  -9515349.21644  -7414541.06644  23253844.5544   23253845.9654
  -7471392.12644  -5821860.80944  21139780.2684   21139780.4384
  -2959829.45044  -2306356.37144  21044505.1624   21044505.4094
   -601704.03244   -468859.90244  20630976.8184   20630977.4284
   7103630.25144   5535295.17644  21669049.1284   21669049.5204
   9682324.03644   7544668.60644  23457124.0334   23457124.6304
    300341.63244                  25059787.5714
 96  4  8  2  7  0.0000000  0  7G17G 6G16G20G 5G24G25
  -9591295.88344  -7473720.23844  23239393.1714   23239393.8684
  -7522336.58644  -5861557.77444  21130085.9544   21130085.5464
  -2944045.46944  -2294057.15344  21047508.7464   21047509.1074
   -567740.67744   -442394.95844  20637439.9274   20637440.6094
   7187789.12944   5600873.49444  21685064.4584   21685064.9244
   9760461.98144   7605555.32044  23471993.3744   23471994.5834
    318180.85244    247929.50844  25063182.3564   25063179.8754
 96  4  8  2  7 30.0000000  0  7G17G 6G16G20G 5G24G25
  -9667053.06444  -7532751.76044  23224976.2604   23224977.5344
  -7573110.54544  -5901121.88344  21120423.7424   21120423.1964
  -2927708.82744  -2281327.29144  21050617.2944   21050617.9224
   -533207.66444   -415486.11944  20644011.2534   20644011.8404
   7272291.82544   5666719.74244  21701144.5884   21701145.2034
   9838611.44244   7666450.99944  23486864.2104   23486865.1344
    336443.20144                  25066657.3994
 96  4  8  2  8  0.0000000  0  7G17G 6G16G20G 5G24G25
  -9742616.11144  -7591631.99544  23210597.1534   23210598.8174
  -7623697.09244  -5940539.96044  21110797.9274   21110797.4964
  -2910789.82544  -2268143.64244  21053837.3554   21053837.7244
   -498114.67944   -388140.94244  20650689.3514   20650690.0794
   7357133.83044   5732830.38044  21717289.5354   21717290.0684
   9916767.07244   7727351.49144  23501736.8984   23501737.7014
    355131.71944    276719.70444  25070212.1784   25070210.6474
 96  4  8  2  8 30.0000000  0  7G17G 6G16G20G 5G24G25
  -9817962.73444  -7650343.59044  23196259.3124   23196259.7874
  -7674076.73544  -5979796.80644  21101210.9114   21101210.4624
  -2893257.64844  -2254482.19444  21057173.3614   21057173.8324
   -462451.17744   -360351.20544  20657475.9904   20657476.5854
   7442315.82544   5799205.93644  21733499.0354   21733500.1394
   9994953.61344   7788276.06044  23516615.6444   23516614.5984
    374260.79744    291624.21044  25073854.0114
 96  4  8  2  9  0.0000000  0  7G17G 6G16G20G 5G24G25
  -9893088.11144  -7708882.80644  23181963.1994   23181963.8784
  -7724242.46244  -6018886.96544  21091664.6604   21091664.2724
  -2875098.82144  -2240332.44744  21060629.0154   21060629.3994
   -426207.94744   -332109.73444  20664372.8364   20664373.2954
   7527847.28344   5865853.80044  21749775.4114   21749775.9494
  10073167.16344   7849221.67944  23531499.1194   23531499.5284
    393833.76544    306876.79644  25077580.1724   25077578.4874
 96  4  8  2  9 30.0000000  0  7G17G 6G16G20G 5G24G25
  -9968006.41344  -7767260.64644  23167706.2844   23167706.9504
  -7774222.18644  -6057832.18344  21082153.5044   21082153.1044
  -2856317.82444  -2225697.89444  21064202.7924   21064203.2514
   -389409.39044   -303435.53544  20671375.1084   20671375.5534
   7613727.53544   5932773.44944  21766117.5864   21766118.1254
  10151371.20344   7910159.89144  23546380.0294   23546381.5844
    413812.31344    322444.62844  25081382.8064   25081384.7414
 96  4  8  2 10  0.0000000  0  7G17G 6G16G20G 5G24G25
 -10042733.62944  -7825489.60144  23153486.3044   23153487.5544
  -7824049.50444  -6096658.64644  21072671.7914   21072671.5744
  -2836932.64444  -2210592.54844  21067891.6394   21067892.0974
   -352061.97844   -274333.65944  20678482.1194   20678482.7474
   7699955.14944   5999963.77344  21782526.2434   21782526.6894
  10229546.94944   7971076.05244  23561256.9184   23561258.4654
    434160.24744    338300.36644  25085254.6764   25085252.7984
 96  4  8  2 10 30.0000000  0  7G17G 6G16G20G 5G24G25
 -10117255.52944  -7883558.56644  23139304.6534   23139306.8394
  -7873717.75744  -6135361.15744  21063220.2234   21063219.8044
  -2816964.96744  -2195033.31544  21071691.4184   21071691.8064
   -314144.54244   -244787.61344  20685697.4994   20685698.2344
   7786553.30744   6067442.82444  21799005.2584   21799005.4664
  10307705.98244   8031979.19944  23576129.5204   23576131.2064
    454887.56344    354452.78744  25089199.0104   25089197.8284
 96  4  8  2 11  0.0000000  0  7G17G 6G16G20G 5G24G25
 -10191558.53944  -7941456.95244  23125166.1744   23125167.4844
  -7923216.05744  -6173931.24444  21053801.1094   21053800.8664
  -2796426.52344  -2179029.31744  21075599.5554   21075599.9024
   -275645.02344   -214787.99844  20693023.7794   20693024.3354
   7873525.62344   6135213.44244  21815555.9344   21815556.2574
  10385842.10644   8092864.50344  23590998.8694   23591000.5054
    476000.26544    370907.48244  25093216.4964   25093217.8394
 96  4  8  2 11 30.0000000  0  7G17G 6G16G20G 5G24G25
 -10265624.69044  -7999170.76944  23111071.3264   23111073.1884
  -7972528.07544  -6212356.17644  21044417.1364   21044416.7134
  -2775317.48344  -2162580.70644  21079616.8024   21079617.0294
   -236561.51144   -184333.32044  20700461.4944   20700461.9224
   7960871.09344   6203274.84144  21832176.9724   21832177.3374
  10463982.93344   8153753.46444  23605868.6794   23605869.6484
    497513.15744    387676.58044  25097310.8434   25097311.1334
 96  4  8  2 12  0.0000000  0  6G17G 6G16G 5G24G20
 -10339453.96244  -8056700.01044  23097021.9214   23097023.6094
  -8021636.84844  -6250622.73644  21035072.2144   21035071.5534
  -2753643.22344  -2145691.66244  21083740.6984   21083741.1034
   8048567.77444   6271609.90744  21848865.2064   21848865.6254
  10542150.54944   8214663.29144  23620743.4744   23620743.1574
   -196897.85044   -153426.57844  20708008.6564   20708009.3244
 96  4  8  2 12 30.0000000  0  6G17G 6G16G20G 5G24
 -10413059.85244  -8114055.19644  23083015.4644   23083015.8904
  -8070547.47544  -6288734.89144  21025764.7834   21025764.4974
  -2731413.70944  -2128369.95144  21087971.0974   21087971.3634
   -156679.82644   -122087.87044  20715662.1794   20715662.6834
   8136581.71144   6340192.16944  21865613.7864   21865614.0924
  10620341.77044   8275591.50344  23635622.5534   23635622.9984
 96  4  8  2 13  0.0000000  0  7G17G 6G16G20G 5G24G23
 -10486444.29344  -8171237.82344  23069050.8134   23069052.6634
  -8119260.71744  -6326693.24744  21016494.7594   21016494.5784
  -2708600.47344  -2110593.39644  21092312.1814   21092312.7024
   -115910.70544    -90319.73444  20723420.2804   20723420.5664
   8224904.45844   6409015.07044  21882420.8554   21882421.3734
  10698564.41044   8336544.21844  23650508.3354   23650507.8244
        -0.77454        -0.89454  25265498.8614
 96  4  8  2 13 30.0000000  0  7G17G 6G16G20G 5G24G23
 -10559615.14244  -8228254.01944  23055127.3584   23055128.3384
  -8167780.22144  -6364500.63444  21007261.9064   21007261.5404
  -2685195.71944  -2092355.91144  21096766.4474   21096766.9884
    -74596.62844    -58126.95544  20731281.8554   20731282.3784
   8313534.51044   6478077.41844  21899286.3974   21899287.5484
  10776820.92344   8397523.32844  23665399.9204   23665400.0834
   -107169.04544                  25245108.9634
 96  4  8  2 14  0.0000000  0  6G17G 6G16G 5G20G24
 -10632586.81144  -8285115.00344  23041240.4304   23041243.5964
  -8216117.48644  -6402166.01944  20998063.7594   20998063.0564
  -2661224.12044  -2073676.74344  21101327.8194   21101328.3374
   8402458.99144   6547369.19844  21916208.6424   21916209.4144
    -32753.88544    -25522.23244  20739244.4654   20739245.0154
  10855075.55344   8458500.95644  23680291.6414   23680291.6134
 96  4  8  2 14 30.0000000  0  6G17G16G 5G24G 6G20
 -10705378.10344  -8341835.43444  23027389.2934   23027391.3294
  -2636716.70944  -2054580.04844  21105991.3974   21105991.3734
   8491670.09744   6616884.31644  21933184.5364   21933185.1624
  10933289.17744   8519446.66644  23695174.4754   23695176.0304
  -8264288.55544  -6439701.90644  20988897.0914   20988896.6564
      9593.15744      7475.45144  20747302.7644   20747303.4514
 96  4  8  2 15  0.0000000  0  6G17G16G 5G24G 6G20
 -10777955.54244  -8398389.22344  23013578.6644   23013579.7924
  -2611646.51144  -2035044.82144  21110761.7114   21110762.1904
   8581208.68944   6686654.61044  21950223.2404   21950223.3044
  11011472.27144   8580368.58044  23710052.4654   23710054.4574
  -8312256.16244  -6477079.24044  20979769.1724   20979768.7604
     52479.55744     40893.41244  20755463.9574   20755464.6754
 96  4  8  2 15 30.0000000  0  7G17G16G 5G24G23G 6G20
 -10850313.52944  -8454772.01444  22999808.3424   22999809.5134
  -2586006.81144  -2015065.82344  21115641.1744   21115641.4804
   8671083.59944   6756686.98444  21967326.1264   21967326.9074
  11089633.22144   8641273.19944  23724925.3434   23724927.4554
        -0.35654        -0.02454  25163439.8954
  -8359999.66344  -6514281.95444  20970683.7024   20970683.1744
     95921.93544     74744.60544  20763730.9134   20763731.4274
 96  4  8  2 16  0.0000000  0  6G17G16G 5G24G 6G20
 -10922470.98144  -8510998.55744  22986077.4784   22986078.1094
  -2559810.80844  -1994653.33844  21120626.1684   21120626.6364
   8761290.15444   6826977.78444  21984492.4084   21984492.7734
  11167766.14744   8702155.99144  23739793.6724   23739794.6584
  -8407527.25044  -6551316.42744  20961639.5044   20961638.9004
    139905.56044    109017.55544  20772100.7354   20772101.0734
 96  4  8  2 16 30.0000000  0  6G17G16G 5G24G 6G20
 -10994452.81144  -8567088.24744  22972379.2784   22972381.4694
  -2533061.86044  -1973809.99844  21125715.9784   21125716.5374
   8851803.89444   6897507.95744  22001716.0534   22001717.2094
  11245861.82144   8763009.77644  23754654.9424   23754657.2594
  -8454867.85544  -6588205.19444  20952630.9554   20952630.5064
    184417.58844    143702.24444  20780571.1014   20780571.5414
 96  4  8  2 17  0.0000000  0  7G17G16G 5G24G23G 6G20
 -11066209.93444  -8623002.83644  22958724.5044   22958727.1784
  -2505700.98744  -1952489.82444  21130922.3704   21130922.7584
   8942660.94944   6968305.65244  22019005.2364   22019005.9824
  11323978.47944   8823879.91844  23769520.6784   23769521.5624
        -0.54054                  25102172.9414
  -8501978.49444  -6624914.76744  20943666.0094   20943665.5754
    229522.08644    178848.59944  20789153.8914   20789154.4004
 96  4  8  2 17 30.0000000  0  7G17G16G 5G24G23G 6G20
 -11137770.87844  -8678764.55844  22945107.0464   22945108.9254
  -2477761.05344  -1930718.42944  21136239.3794   21136239.7464
   9033835.62744   7039350.84244  22036355.8904   22036356.7904
  11402105.33244   8884757.96944  23784387.4144   23784389.0644
   -107271.16344                  25081760.8034
  -8548879.88344  -6661461.28544  20934740.8124   20934740.7164
    275184.87944    214429.99244  20797843.2304   20797843.8614
 96  4  8  2 18  0.0000000  0  7G17G16G 5G24G23G 6G20
 -11209136.37444  -8734373.99044  22931526.8194   22931527.6614
  -2449270.82044  -1908518.23544  21141661.3484   21141661.5134
   9125300.47744   7110622.11444  22053760.1994   22053761.3684
  11480216.48344   8945623.79444  23799251.6364   23799251.7524
   -214532.71444                  25061348.1574
  -8595592.96644  -6697861.07644  20925851.7644   20925851.4434
    321376.14044    250423.17044  20806633.2744   20806634.1114
 96  4  8  2 18 30.0000000  0  7G17G16G 5G24G23G 6G20
 -11280277.86244  -8789808.87844  22917989.1444   22917989.8344
  -2420208.21044  -1885872.02944  21147191.7854   21147192.2614
   9217059.66744   7182122.75444  22071221.7274   22071222.4414
  11558326.83344   9006489.00344  23814116.0024   23814115.4434
   -321783.93044                  25040938.8514
  -8642105.11144  -6734104.28444  20917001.0674   20917000.6544
    368117.40944    286844.92644  20815527.8434   20815528.4234
 96  4  8  2 19  0.0000000  0  7G17G16G 5G24G23G 6G20
 -11351187.57344  -8845063.15444  22904494.7044   22904494.8434
  -2390585.36744  -1862789.28644  21152828.2944   21152828.7754
   9309122.55644   7253860.05144  22088740.7344   22088741.4494
  11636432.07144   9067350.23744  23828978.8394   23828978.9994
   -429017.41544                  25020532.9454
  -8688403.48544  -6770180.92644  20908190.5084   20908190.0094
    415407.66744    323694.47044  20824526.9374   20824527.2574
 96  4  8  2 19 30.0000000  0  7G17G16G 5G24G23G 6G20
 -11421849.72344  -8900124.52944  22891048.2144   22891049.2714
  -2360380.52644  -1839253.03144  21158575.9834   21158576.3274
   9401514.16544   7325853.49644  22106322.2914   22106323.0834
  11714544.94044   9128217.39544  23843842.8334   23843844.2314
   -536222.15544   -417833.63644  25000132.6054
  -8734467.14044  -6806074.67544  20899424.9054   20899424.5784
    463251.38844    360975.28244  20833631.3584   20833631.9824
 96  4  8  2 20  0.0000000  0  7G17G16G 5G24G23G 6G20
 -11492285.22444  -8955009.27844  22877645.0554   22877646.2884
  -2329596.25844  -1815265.28144  21164434.2584   21164434.7254
   9494212.33044   7398085.82744  22123962.7234   22123963.2904
  11792638.68944   9189069.70344  23858703.1444   23858703.6544
   -643410.95244   -501357.06544  24979735.9384   24979745.3704
  -8780329.92244  -6841811.89944  20890697.7314   20890697.2654
    511631.11544    398673.76244  20842837.6984   20842838.2554
 96  4  8  2 20 30.0000000  0  7G17G16G 5G24G23G 6G20
 -11562495.61944  -9009718.62444  22864284.6084   22864285.1924
  -2298213.24844  -1790810.97044  21170406.4264   21170406.8034
   9587235.56844   7470571.44144  22141664.1114   22141664.6364
  11870723.05044   9249914.66744  23873561.9484   23873563.8124
   -750578.92644   -584864.27044  24959343.5264   24959349.3474
  -8825975.85144  -6877380.14344  20882011.2874   20882010.9484
    560559.40644    436799.69244  20852148.3854   20852149.0814
 96  4  8  2 21  0.0000000  0  7G17G16G 5G24G23G 6G20
 -11632503.40144  -9064270.10244  22850962.0294   22850963.7794
  -2266254.03944  -1765907.67744  21176487.7774   21176488.3744
   9680562.86744   7543293.99644  22159423.4274   22159423.9654
  11948768.87244   9310729.61644  23888413.9354   23888413.9434
   -857736.43944   -668363.32944  24938952.0724
  -8871404.57544  -6912779.12544  20873366.4824   20873366.1424
    610001.44044    475325.94244  20861556.9374   20861557.6474
 96  4  8  2 21 30.0000000  0  7G17G16G 5G24G23G 6G20
 -11702291.49844  -9118650.40744  22837681.9534   22837682.4194
  -2233709.50644  -1740548.29544  21182681.0164   21182681.0854
   9774182.62044   7616244.42644  22177238.5454   22177239.2834
  12026792.54544   9371527.26544  23903261.9214   23903261.4884
   -964867.65144   -751841.98044  24918565.2434
  -8916607.15044  -6948001.89844  20864764.7924   20864764.4204
    659957.46044    514252.70244  20871063.1264   20871063.7804
 96  4  8  2 22  0.0000000  0  7G17G16G 5G24G23G 6G20
 -11771837.80444  -9172842.29644  22824447.4534   22824447.5714
  -2200590.65444  -1714741.39144  21188983.2014   21188983.2154
   9868085.06144   7689415.14444  22195108.5174   22195109.0464
  12104804.44244   9432315.73244  23918106.4694   23918105.5064
  -1071951.55644   -835283.65744  24898188.1314   24898194.8214
  -8961573.75144  -6983040.80244  20856207.8004   20856207.3314
    710433.88944    553584.97344  20880668.3044   20880668.9284
 96  4  8  2 22 30.0000000  0  7G17G16G 5G24G23G 6G20
 -11841158.07844  -9226858.05444  22811256.7874   22811257.4844
  -2166939.14944  -1688519.42244  21195386.6974   21195387.1444
   9962241.24844   7762783.55844  22213025.1834   22213026.0374
  12182776.59444   9493073.25244  23932943.1454   23932944.7204
  -1179008.55144   -918704.45544  24877815.4204   24877820.5004
  -9006310.42544  -7017900.53744  20847694.8034   20847694.3054
    761406.14344    593303.60144  20890368.2464   20890368.7764
 96  4  8  2 23  0.0000000  0  7G17G16G 5G24G23G 6G20
 -11910247.58844  -9280693.99044  22798109.2004   22798111.0924
  -2132761.13744  -1661887.20044  21201890.9974   21201891.2414
  10056643.44344   7836343.68144  22230989.7824   22230990.2944
  12260723.80644   9553811.34144  23947777.4824   23947776.8744
  -1286019.74044  -1002089.48044  24857451.8784
  -9050823.32644  -7052585.89144  20839224.1294   20839223.9104
    812885.66644    633417.50544  20900164.2634   20900165.0224
 96  4  8  2 23 30.0000000  0  7G17G16G 5G24G23G 6G20
 -11979089.68944  -9334337.13944  22785008.5654   22785010.5274
  -2098037.59244  -1634829.88544  21208498.3994   21208498.6164
  10151313.72344   7910112.70244  22249004.6834   22249005.0924
  12338676.38844   9614553.65744  23962610.9824   23962611.6944
  -1392979.48944  -1085434.49244  24837097.6214
  -9095111.15144  -7087095.86144  20830796.5734   20830796.1064
    864906.24544    673953.00944  20910063.7344   20910064.5184
 96  4  8  2 24  0.0000000  0  7G17G16G 5G24G23G 6G20
 -12047716.17344  -9387812.28544  22771949.7294   22771951.7864
  -2062771.59644  -1607349.87744  21215209.4104   21215209.7394
  10246253.17944   7984091.45844  22267071.2224   22267072.3524
  12416617.52044   9675287.00844  23977443.2214   23977444.5104
  -1499905.10944  -1168752.90344  24816750.7474   24816762.1654
  -9139187.35544  -7121440.94844  20822409.2874   20822408.8124
    917460.05344    714904.01844  20920064.5354   20920065.1784
 96  4  8  2 24 30.0000000  0  7G16G17G 5G24G23G 6G20
  -2026953.82144  -1579439.91444  21222025.2534   21222025.6494
 -12116142.25944  -9441131.26144  22758928.9584   22758929.6894
  10341471.71244   8058287.68744  22285190.7434   22285191.3594
  12494553.66044   9736016.45344  23992274.5334   23992275.5404
  -1606797.07144  -1252045.02444  24796409.3794
  -9183050.78444  -7155620.23544  20814061.9814   20814061.4964
    970550.18544    756272.94244  20930167.0714   20930167.8614
 96  4  8  2 25  0.0000000  0  7G16G17G 5G24G23G 6G20
  -1990602.36344  -1551114.08944  21228942.4764   21228942.8344
 -12184389.09244  -9494310.57444  22745941.8474   22745942.6214
  10436945.66244   8132682.94944  22303358.7594   22303359.6494
  12572482.01944   9796739.86744  24007102.5974   24007103.7534
  -1713678.74344  -1335329.27944  24776069.9684
  -9226716.29944  -7189645.30044  20805752.8984   20805752.3584
   1024150.59944    798039.48844  20940366.7014   20940367.6784
 96  4  8  2 25 30.0000000  0  7G16G17G 6G20G 5G24G23
  -1953692.03644  -1522352.78744  21235966.2834   21235967.0664
 -12252430.62444  -9547329.92644  22732993.8054   22732994.0524
  -9270135.34344  -7223478.30844  20797490.4284   20797489.8684
   1078267.55444    840208.53244  20950664.9684   20950665.5144
  10532715.85344   8207309.05144  22321582.9484   22321583.8214
  12650417.15444   9857468.55144  24021933.0864   24021935.4104
  -1820533.29944  -1418592.34644  24755736.3564   24755738.7704
 96  4  8  2 26  0.0000000  0  7G16G17G 5G 6G20G24G23
  -1916252.87744  -1493179.40944  21243090.5104   21243091.0614
 -12320285.82944  -9600204.06344  22720081.3734   22720082.5484
  10628753.08944   8282143.22644  22339857.7864   22339859.0364
  -9313318.63744  -7257127.61544  20789272.8384   20789272.4894
   1132860.17944    882748.22644  20961053.8754   20961054.3814
  12728328.49744   9918178.68444  24036759.2954   24036759.6254
  -1927361.32344  -1501834.70344  24735407.8194   24735413.3434
 96  4  8  2 26 30.0000000  0  7G16G17G 5G24G23G 6G20
  -1878300.62744  -1463606.21444  21250313.0074   21250313.3214
 -12387951.43844  -9652930.48044  22707205.1224   22707206.5014
  10725044.79944   8357175.71144  22358182.2284   22358182.8774
  12806203.40444   9978860.46144  24051578.3424   24051579.3924
  -2034167.32544  -1585059.92344  24715082.1614   24715086.6774
  -9356267.94344  -7290594.59144  20781099.9254   20781099.3944
   1187916.79844    925649.47744  20971530.4924   20971531.1184
 96  4  8  2 27  0.0000000  0  7G17G 6G16G20G 5G24G23
 -12455411.42844  -9705496.66444  22694367.9674   22694368.9934
  -9398960.87544  -7323861.79444  20772975.8414   20772975.1864
  -1839818.48644  -1433620.12244  21257635.9004   21257635.9414
   1243457.33544    968927.80544  20982099.6604   20982100.0444
  10821599.25744   8432412.92744  22376555.8754   22376556.7654
  12884041.52844  10039513.52644  24066389.4794   24066389.1804
  -2140924.73544  -1668247.32244  24694766.2794   24694772.4704
 96  4  8  2 27 30.0000000  0  7G17G 6G16G20G 5G24G23
 -12522676.09544  -9757910.65044  22681568.5574   22681568.7034
  -9441426.20944  -7356951.64744  20764894.6934   20764894.0904
  -1800809.97644  -1403223.87244  21265058.8834   21265059.2734
   1299486.68244   1012587.02844  20992761.3404   20992761.9394
  10918401.32844   8507843.07344  22394976.9854   22394977.7914
  12961824.06744  10100123.27544  24081191.2704   24081191.0154
  -2247626.59544  -1751391.43744  24674461.4164   24674468.3634
 96  4  8  2 28  0.0000000  0  7G17G 6G16G20G 5G24G23
 -12589692.38644  -9810131.09944  22668816.0054   22668816.9744
  -9483634.86144  -7389841.49444  20756862.6704   20756862.0954
  -1761229.02044  -1372381.55744  21272590.9534   21272591.4854
   1356068.53044   1056676.77044  21003528.9494   21003529.6174
  11015469.69444   8583480.74544  22413448.3104   22413449.0564
  13039597.23544  10160725.78844  24095991.6904   24095991.1034
  -2354219.40244  -1834450.50344  24654177.2164   24654185.0584
 96  4  8  2 28 30.0000000  0  7G17G 6G16G20G 5G24G23
 -12656479.16844  -9862172.71044  22656106.4624   22656107.0814
  -9525604.86844  -7422545.37944  20748876.2334   20748875.5934
  -1721094.77144  -1341108.10944  21280227.9754   21280228.4944
   1413207.42744   1101200.57644  21014402.0714   21014402.7054
  11112785.40744   8659311.14844  22431966.7974   22431967.3764
  13117352.64144  10221314.45244  24110788.2794   24110788.0854
  -2460729.76644  -1917445.34544  24633910.7674   24633920.9444
 96  4  8  2 29  0.0000000  0  7G17G 6G16G20G 5G24G23
 -12723050.10244  -9914046.12944  22643437.7074   22643438.6624
  -9567354.41044  -7455077.47544  20740931.7484   20740930.8034
  -1680429.52344  -1309420.89144  21287966.2674   21287966.7064
   1470879.38544   1146139.75344  21025376.6094   21025377.0804
  11210314.60444   8735307.87744  22450526.5534   22450527.5394
  13195080.66544  10281881.74144  24125579.1944   24125580.5484
  -2567185.58944  -2000397.70444  24613651.2594   24613659.1864
 96  4  8  2 29 30.0000000  0  7G17G 6G16G20G 5G24G23
 -12789390.71844  -9965740.08044  22630813.9194   22630813.7294
  -9608871.89544  -7487428.74144  20733030.8944   20733030.6084
  -1639227.87544  -1277315.69844  21295806.7024   21295806.9394
   1529080.97244   1191491.63044  21036452.2374   21036452.7524
  11308068.96244   8811480.07844  22469128.2164   22469128.5714
  13272803.57144  10342445.04344  24140369.4414   24140369.7884
  -2673593.90344  -2083313.04644  24593401.8084   24593406.0884
 96  4  8  2 30  0.0000000  0  7G17G 6G16G20G 5G24G23
 -12855510.44644 -10017261.91744  22618231.4434   22618232.5104
  -9650146.95644  -7519591.10844  20725176.3794   20725176.0254
  -1597504.21544  -1244803.74744  21303746.5074   21303746.9174
   1587782.13544   1237232.78244  21047622.7004   21047623.2284
  11406049.82244   8887828.78044  22487773.1354   22487773.4594
  13350505.71544  10402992.18344  24155156.0084   24155158.6384
  -2779978.00744  -2166209.49544  24573158.3834   24573163.9144
 96  4  8  2 30 30.0000000  0  7G17G 6G16G20G 5G24G23
 -12921413.88744 -10068615.22444  22605690.4884   22605691.0544
  -9691169.49344  -7551556.71144  20717370.1024   20717369.5974
  -1555260.49744  -1211886.55044  21311785.3814   21311785.7364
   1646962.30744   1283347.19144  21058884.0274   21058884.8084
  11504266.84044   8964361.48644  22506463.3734   22506464.0104
  13428191.50244  10463526.54044  24169938.4624   24169938.5634
  -2886330.82644  -2249081.57744  24552920.3104   24552926.2704
 96  4  8  2 31  0.0000000  0  7G17G 6G16G20G 5G24G23
 -12987081.05344 -10119784.40744  22593194.4944   22593195.1054
  -9731920.13144  -7583310.45044  20709615.6374   20709614.9634
  -1512478.35244  -1178549.80344  21319926.2184   21319926.6454
   1706618.72944   1329832.70444  21070236.3954   21070237.1484
  11602734.39844   9041089.43344  22525201.3254   22525202.1994
  13505862.51144  10524049.41844  24184719.2904   24184722.3694
  -2992620.87144  -2331904.76644  24532693.7884   24532700.1254
 96  4  8  2 31 30.0000000  0  7G17G 6G16G20G 5G24G23
 -13052525.70944 -10170780.20644  22580739.9854   22580740.7354
  -9772402.77044  -7614855.35244  20701911.7614   20701911.3414
  -1469159.29844  -1144794.68444  21328169.5974   21328170.1774
   1766744.71744   1376684.11644  21081678.2004   21081678.8824
  11701467.79444   9118024.51844  22543989.4014   22543989.7594
  13583490.14244  10584538.53044  24199490.7254   24199492.0254
  -3098835.83744  -2414669.49644  24512480.7184   24512484.4264
 96  4  8  2 32  0.0000000  0  7G17G 6G16G20G 5G24G23
 -13117750.52844 -10221604.71344  22568328.5894   22568329.3084
  -9812620.10144  -7646193.52044  20694258.6584   20694258.5434
  -1425315.98544  -1110631.04944  21336513.0734   21336513.3984
   1827334.69344   1423897.08044  21093207.8144   21093208.5014
  11800450.63744   9195153.97444  22562825.4284   22562826.4104
  13661062.25944  10644984.27144  24214252.3744   24214251.4084
  -3204965.09544  -2497367.40544  24492286.2474   24492290.7074
 96  4  8  2 32 30.0000000  0  7G17G 6G16G20G 5G24G23
 -13182758.23544 -10272260.04244  22555958.2444   22555959.4254
  -9852577.49644  -7677329.14244  20686655.4094   20686655.0224
  -1380943.60144  -1076055.15244  21344956.7394   21344956.8814
   1888394.83144   1471476.39744  21104826.9474   21104827.8754
  11899664.03144   9272463.07844  22581705.1064   22581706.7164
  13738588.83944  10705394.60644  24229003.5454   24229003.0694
  -3310998.54844  -2579990.69844  24472108.6914   24472112.5954
 96  4  8  2 33  0.0000000  0  7G17G 6G16G20G 5G24G23
 -13247544.00544 -10322742.42644  22543629.7414   22543630.8134
  -9892267.21644  -7708256.18944  20679102.3834   20679101.7984
  -1336033.34544  -1041060.13744  21353502.6504   21353503.1254
   1949939.27844   1519433.09844  21116538.8784   21116539.3054
  11999121.99944   9349962.74744  22600631.4324   22600632.8274
  13816075.50944  10765773.80744  24243749.8694   24243749.7664
  -3416939.93944  -2662542.26144  24451948.4774   24451951.8334
 96  4  8  2 33 30.0000000  0  7G17G 6G16G20G 5G24G23
 -13312118.46444 -10373060.16044  22531341.4784   22531342.6554
  -9931696.01744  -7738979.91944  20671599.4424   20671598.9604
  -1290597.15644  -1005655.30244  21362148.9664   21362149.3094
   2011957.27844   1567758.80244  21128340.3614   21128341.0654
  12098818.60844   9427648.37944  22619603.0204   22619603.3994
  13893531.65944  10826129.22744  24258491.1044   24258491.2414
  -3522804.02444  -2745033.63444  24431801.5624   24431804.2004
 96  4  8  2 34  0.0000000  0  7G17G 6G16G20G 5G24G23
 -13376478.32044 -10423210.66544  22519094.1114   22519095.3654
  -9970877.29644  -7769510.77644  20664143.4004   20664143.1914
  -1244639.67444   -969844.27144  21370894.3034   21370894.5334
   2074450.91244   1616455.12944  21140232.3784   21140233.1524
  12198724.23344   9505496.89244  22638614.8144   22638615.0574
  13970981.44544  10886479.75944  24273228.8204   24273228.5554
  -3628593.89144  -2827467.12244  24411671.0644   24411678.7634
 96  4  8  2 34 30.0000000  0  7G17G 6G16G20G 5G24G23
 -13440614.57644 -10473186.93444  22506889.3074   22506890.6824
 -10009814.70544  -7799851.60344  20656733.9064   20656733.5684
  -1198151.71444   -933619.87844  21379740.8104   21379741.1584
   2137437.64444   1665535.68644  21152218.3134   21152219.0984
  12298850.80444   9583517.57044  22657667.7714   22657668.2434
  14048426.90044  10946826.89244  24287966.1704   24287966.4584
  -3734296.49244  -2909832.62144  24391555.5894   24391559.8934
 96  4  8  2 35  0.0000000  0  7G17G 6G16G20G 5G24G23
 -13504526.26944 -10522988.22644  22494727.8734   22494728.1804
 -10048498.10144  -7829994.49744  20649372.7644   20649372.2374
  -1151140.68244   -896987.89744  21388686.2874   21388686.6384
   2200918.85444   1715001.55844  21164298.6764   21164299.4024
  12399208.05644   9661717.99244  22676765.6114   22676766.1194
  14125859.03444  11007163.65144  24302701.2384   24302700.4294
  -3839910.76644  -2992129.32344  24371457.4214   24371463.3304
 96  4  8  2 35 30.0000000  0  7G17G 6G16G20G 5G24G23
 -13568203.36744 -10572606.71044  22482610.0804   22482610.6924
 -10086916.09744  -7859930.59144  20642062.2474   20642061.3714
  -1103603.85944   -859946.20444  21397732.7234   21397733.1314
   2264899.25244   1764856.40144  21176473.6564   21176474.6494
  12499773.99644   9740081.03444  22695902.7904   22695903.8814
  14203283.33744  11067494.26144  24317434.2214   24317434.6384
  -3945417.99744  -3074342.57844  24351382.0074   24351386.7074
 96  4  8  2 36  0.0000000  0  7G17G 6G16G20G 5G24G23
 -13631674.89444 -10622065.02544  22470531.5554   22470532.9904
 -10125093.40344  -7889679.14044  20634796.9254   20634796.4764
  -1055564.40844   -822512.86044  21406874.1294   21406874.6024
   2329358.78644   1815084.59644  21188739.6324   21188740.1714
  12600508.69844   9818575.58444  22715071.5414   22715071.8114
  14280661.91944  11127789.23344  24332158.4864   24332158.2054
  -4050840.76044  -3156490.02444  24331319.1644   24331322.2794
 96  4  8  2 36 30.0000000  0  7G17G 6G16G20G 5G24G23
 -13694940.62944 -10671362.96544  22458492.8034   22458493.6254
 -10163006.58044  -7919221.86044  20627582.4054   20627582.0884
  -1007011.66444   -784679.54444  21416113.3444   21416113.8174
   2394289.50344   1865679.94644  21201096.0944   21201096.6404
  12701434.59844   9897219.08844  22734276.9224   22734277.3314
  14357995.59444  11188049.23844  24346873.9114   24346877.0194
  -4156175.95344  -3238569.26644  24311275.7254   24311281.6364
 96  4  8  2 37  0.0000000  0  7G17G 6G16G20G 5G24G23
 -13757998.25944 -10720498.74744  22446493.4004   22446494.4544
 -10200628.36944  -7948537.52644  20620423.3694   20620422.9684
   -957939.38544   -746441.39344  21425451.7624   21425452.0134
   2459672.69244   1916627.87244  21213538.1424   21213538.6974
  12802555.11744   9976014.24544  22753519.9144   22753521.1124
  14435298.61044  11248285.36244  24361584.1884   24361587.8784
  -4261423.23344  -3320579.99644  24291247.7894   24291252.3424
 96  4  8  2 37 30.0000000  0  7G17G 6G16G20G 5G24G23
 -13820845.26544 -10769470.40444  22434533.7804   22434534.2044
 -10237963.08544  -7977629.49844  20613318.5194   20613318.1014
   -908356.87244   -707805.66744  21434886.6994   21434886.9484
   2525502.76944   1967924.02844  21226065.0864   21226065.5084
  12903867.97344  10054959.31344  22772798.5014   22772798.8844
  14512570.27844  11308497.07544  24376286.9854   24376290.9914
  -4366577.53944  -3402518.28144  24271236.3034   24271241.8424
 96  4  8  2 38  0.0000000  0  7G17G 6G16G20G 5G24G23
 -13883488.95344 -10818283.62844  22422613.3374   22422613.8304
 -10275015.76844  -8006501.71344  20606267.7764   20606267.2424
   -858269.28944   -668776.36544  21444417.8254   21444417.9114
   2591767.71944   2019559.04544  21238674.6474   21238675.3444
  13005386.64544  10134064.74944  22792117.8784   22792118.1674
  14589795.14444  11368672.23244  24390983.1234   24390985.2314
  -4471641.26044  -3484385.94644  24251243.1174   24251247.9274
 96  4  8  2 38 30.0000000  0  7G17G 6G16G20G 5G24G23
 -13945918.66244 -10866930.12344  22410732.8884   22410733.2774
 -10311777.17644  -8035146.95644  20599272.1464   20599271.8584
   -807688.01344   -629362.37744  21454043.5134   21454043.7954
   2658461.01544   2071527.84044  21251365.6974   21251366.6604
  13107122.21744  10213339.19944  22811477.2104   22811477.8344
  14666976.90044  11428813.84544  24405671.6424   24405671.6364
  -4576615.86044  -3566184.15944  24231268.1924   24231273.6004
 96  4  8  2 39  0.0000000  0  7G17G 6G16G20G 5G24G23
 -14008111.70444 -10915392.19744  22398897.8044   22398898.1204
 -10348230.41044  -8063552.06144  20592335.5854   20592334.8514
   -756618.88344   -589568.24244  21463761.4824   21463761.8584
   2725611.77844   2123853.10644  21264144.2384   21264145.0274
  13209081.39744  10292787.87444  22830879.5984   22830880.2974
  14744120.21144  11488925.49244  24420352.1234   24420353.0634
  -4681483.48044  -3647899.08944  24211312.0534   24211315.2814
 96  4  8  2 39 30.0000000  0  7G17G 6G16G20G 5G24G23
 -14070082.64844 -10963681.20344  22387105.1094   22387106.0074
 -10384400.19244  -8091736.29244  20585452.7904   20585452.2604
   -705070.70444   -549400.82044  21473570.7764   21473570.6234
   2793225.25444   2176538.92144  21277010.6544   21277011.6484
  13311248.55344  10372398.60744  22850321.2274   22850322.2224
  14821212.59444  11548997.50044  24435023.2914   24435022.9254
  -4786255.51644  -3729539.49544  24191373.6224   24191375.4074
 96  4  8  2 40  0.0000000  0  7G17G 6G16G20G 5G24G23
 -14131832.71044 -11011798.09844  22375354.8644   22375355.6054
 -10420293.17044  -8119704.83144  20578622.1884   20578621.6474
   -653040.48544   -508857.77944  21483471.4914   21483471.9514
   2861295.58244   2229580.72444  21289963.8684   21289964.5884
  13413608.16344  10452159.28944  22869799.6124   22869800.6384
  14898252.35944  11609028.55344  24449683.1844   24449677.6934
  -4890938.81744  -3811110.70844  24171452.8694   24171456.0394
 96  4  8  2 40 30.0000000  0  7G17G 6G16G20G 5G24G23
 -14193349.40544 -11059733.14744  22363648.3944   22363649.2654
 -10455907.41544  -8147456.17144  20571845.0104   20571844.5354
   -600530.44544   -467940.85844  21493464.1284   21493464.5404
   2929839.80244   2282991.79544  21303007.8224   21303008.3304
  13516163.07944  10532072.17344  22889315.5474   22889317.4144
  14975258.62744  11669033.52144  24464335.4614   24464331.9214
  -4995517.61244  -3892600.55944  24151553.7164   24151557.2814
 96  4  8  2 41  0.0000000  0  7G17G 6G16G20G 5G24G23
 -14254639.16244 -11107491.35744  22351985.3524   22351986.0014
 -10491241.39744  -8174989.12644  20565121.4984   20565120.6524
   -547526.51744   -426639.08244  21503550.7284   21503550.6234
   2998871.42744   2336782.66244  21316144.3304   21316144.7144
  13618902.41744  10612128.76344  22908866.0904   22908867.0884
  15052234.64444  11729014.89644  24478983.1894   24478983.6484
  -5099973.28844  -3973994.48244  24131676.6374   24131678.6674
 96  4  8  2 41 30.0000000  0  7G17G 6G16G20G 5G24G23
 -14315705.38144 -11155075.38944  22340364.7984   22340365.7214
 -10526292.10044  -8202301.35144  20558451.2524   20558450.5674
   -494012.39744   -384939.76444  21513733.9114   21513734.2754
   3068379.03244   2390944.41944  21329371.1544   21329371.5554
  13721824.67644  10692327.90144  22928451.5274   22928452.4324
  15129189.94544  11788980.05044  24493628.0694   24493630.4934
  -5204295.40144  -4055284.31144  24111824.0854   24111825.5344
 96  4  8  2 42  0.0000000  0  7G17G 6G16G20G 5G24G23
 -14376542.34444 -11202480.78144  22328787.6234   22328788.0354
 -10561045.24644  -8229381.71344  20551837.9894   20551837.5574
   -439998.14844   -342850.74144  21524012.5424   21524012.4604
   3138350.12944   2445467.34044  21342686.4354   21342687.0274
  13824931.42144  10772670.78644  22948072.0904   22948072.4704
  15206127.21644  11848931.09644  24508266.7744   24508271.1484
  -5308472.75844  -4136461.33444  24091999.7634   24092003.5464
 96  4  8  2 42 30.0000000  0  7G17G 6G16G20G 5G24G23
 -14437160.42644 -11249715.62044  22317252.5134   22317253.0444
 -10595486.92044  -8256219.37444  20545283.8234   20545283.2974
   -385489.61944   -300376.54744  21534384.6914   21534384.9354
   3208779.06844   2500347.02044  21356087.8824   21356088.7564
  13928225.06844  10853159.31044  22967728.0294   22967728.7014
  15283059.99144  11908878.68244  24522905.9814   24522909.1344
  -5412494.90144  -4217517.45044  24072203.7904   24072207.9984
 96  4  8  2 43  0.0000000  0  7G17G 6G16G20G 5G24G23
 -14497572.88444 -11296790.23144  22305756.3134   22305757.9144
 -10629609.28444  -8282808.22344  20538790.7914   20538790.2564
   -330494.22544   -257522.98744  21544850.2304   21544850.8004
   3279627.58944   2555553.64844  21369569.6104   21369570.8384
  14031686.30644  10933778.41244  22987416.1714   22987417.3774
  15359977.62444  11968814.44644  24537546.1384   24537548.8874
  -5516376.96344  -4298464.36744  24052436.1274   24052439.2084
 96  4  8  2 43 30.0000000  0  7G17G 6G16G20G 5G24G23
 -14557754.38144 -11343684.87944  22294304.3314   22294304.8504
 -10663396.66144  -8309136.05144  20532361.0994   20532360.6594
   -275012.54544   -214290.50444  21555407.9834   21555408.3324
   3350889.33944   2611082.27544  21383130.3444   21383131.6554
  14135335.53644  11014544.01444  23007139.0844   23007139.9274
  15436890.82144  12028746.81344  24552181.4494   24552182.7044
  -5620111.86844  -4379296.60444  24032696.3044   24032698.2784
 96  4  8  2 44  0.0000000  0  7G17G 6G16G20G 5G24G23
 -14617749.10544 -11390433.98344  22282887.4614   22282887.9454
 -10696911.07144  -8335251.17244  20525983.5814   20525983.0654
   -219115.99644   -170734.74544  21566044.9604   21566045.1334
   3422513.03444   2666892.93944  21396760.2824   21396760.7964
  14239101.47544  11095400.56244  23026885.6974   23026886.8794
  15513738.71344  12088628.22944  24566806.0064   24566805.5624
  -5723750.76944  -4460054.05144  24012973.1764   24012975.2254
 96  4  8  2 44 30.0000000  0  7G17G 6G16G20G 5G24G23
 -14677540.63044 -11437024.75044  22271509.7364   22271510.5674
 -10730145.53244  -8361148.15344  20519659.5404   20519659.0864
   -162783.59644   -126839.36244  21576764.4474   21576764.8204
   3494526.08144   2723006.99944  21410464.3624   21410464.7834
  14342984.88344  11176348.65644  23046653.9824   23046654.3764
  15590524.39444  12148461.21344  24581418.2834   24581417.7524
  -5827281.93544  -4540727.56844  23993272.9374   23993275.1994
 96  4  8  2 45  0.0000000  0  7G17G 6G16G20G 5G24G23
 -14737062.89544 -11483405.71344  22260183.1204   22260183.9514
 -10763067.45744  -8386801.59444  20513394.4934   20513393.9864
   -105957.73344    -82559.46844  21587578.2974   21587578.5394
   3566983.03744   2779466.95944  21424252.4134   21424252.4524
  14447025.25744  11257419.04044  23066452.5944   23066452.9984
  15667265.01644  12208259.14844  24596021.4934   24596020.4574
  -5930665.75244  -4621286.28144  23973598.9624   23973600.7034
 96  4  8  2 45 30.0000000  0  7G17G 6G16G20G 5G24G23
 -14796319.04544 -11529579.31544  22248906.8134   22248906.5974
 -10795694.21244  -8412225.03644  20507185.7924   20507185.3084
    -48635.12544    -37892.49144  21598486.3584   21598486.5694
   3639899.40244   2836284.90144  21438127.8114   21438127.8574
  14551212.57144  11338603.93944  23086279.0764   23086280.7334
  15743952.20144  12268015.44944  24610613.8194   24610610.6124
  -6033912.41344  -4701738.06844  23953951.3584   23953953.3634
 96  4  8  2 46  0.0000000  0  7G17G 6G16G20G 5G24G23
 -14855357.88644 -11575583.57644  22237672.2504   22237672.5554
 -10828061.58944  -8437446.36444  20501026.4744   20501025.6794
      9160.16244      7142.79944  21609484.4814   21609484.8484
   3713244.08344   2893436.60044  21452084.6924   21452084.9804
  14655507.23544  11419872.47744  23106125.5444   23106126.4684
  15820558.09444  12327708.36444  24625191.5444   24625190.6824
  -6137046.50144  -4782102.17044  23934325.3154   23934325.6824
 96  4  8  2 46 30.0000000  0  8G17G 6G16G20G 5G24G23G26
 -14914204.31344 -11621437.91644  22226474.3394   22226474.7914
 -10860168.91844  -8462465.05644  20494916.6614   20494916.0924
     67433.65144     52550.71844  21620573.5684   21620573.4104
   3786993.71244   2950903.83344  21466118.3934   21466119.0794
  14759919.64544  11501232.74544  23125994.6834   23125995.1334
  15897078.03044  12387334.27644  24639752.3404
  -6240084.06744  -4862391.04144  23914719.5054   23914721.6604
        -0.27754                  23998847.1394
 96  4  8  2 47  0.0000000  0  7G17G 6G16G20G 5G23G26
 -14972825.49444 -11667116.73844  22215318.8824   22215319.2334
 -10891977.86844  -8487251.24644  20488863.6414   20488863.0354
    126217.89144     98356.62644  21631759.6284   21631759.9564
   3861163.26044   3008698.26144  21480232.1884   21480233.5074
  14864500.91244  11582724.59844  23145895.3044   23145895.7154
  -6342985.73344  -4942574.03644  23895137.1354   23895138.7434
    -78634.60544                  23983882.9284
 96  4  8  2 47 30.0000000  0  7G17G 6G16G20G 5G23G26
 -15031239.28744 -11712633.95044  22204203.3414   22204203.4344
 -10923476.41644  -8511795.56144  20482869.6674   20482869.1134
    185495.13244    144546.68044  21643039.8014   21643040.1464
   3935751.03044   3066818.57544  21494425.9824   21494427.3764
  14969264.05244  11664358.19144  23165831.7314   23165831.6284
  -6445741.19844  -5022643.09144  23875583.1994   23875585.2044
   -157143.02144                  23968943.2004
 96  4  8  2 48  0.0000000  0  7G17G 6G16G20G 5G23G26
 -15089473.16844 -11758010.97844  22193121.8884   22193122.4014
 -10954683.42144  -8536112.69944  20476931.2024   20476930.6034
    245226.53244    191090.63644  21654406.4964   21654406.4914
   4010724.45144   3125239.40244  21508693.2494   21508694.2224
  15074193.66244  11746121.49744  23185799.1634   23185799.7764
  -6548362.09344  -5102607.31044  23856054.7244   23856057.3844
   -235530.94544                  23954027.3564
 96  4  8  2 48 30.0000000  0  7G17G 6G16G20G 5G23G26
 -15147524.27644 -11803245.58744  22182074.7464   22182075.0334
 -10985601.07444  -8560204.36944  20471047.6984   20471047.0874
    305398.55244    237977.93044  21665856.4754   21665856.7754
   4086080.77744   3183958.60044  21523033.3154   21523034.1024
  15179277.15644  11828004.69644  23205796.2474   23205797.2394
  -6650865.07944  -5182479.64144  23836549.2234   23836551.5024
   -313804.68244                  23939131.8714
 96  4  8  2 49  0.0000000  0  7G17G 6G16G20G 5G23G26
 -15205392.54444 -11848337.71444  22171062.9424   22171063.2414
 -11016232.24444  -8584072.81144  20465218.6994   20465218.1744
    365996.03644    285196.75744  21677388.1974   21677388.5374
   4161823.55544   3242978.93644  21537446.8394   21537447.3494
  15284493.67744  11909991.56944  23225817.5804   23225818.9004
  -6753246.17544  -5262256.99844  23817066.3964   23817069.3444
   -391965.97344                  23924258.8354
 96  4  8  2 49 30.0000000  0  7G17G 6G16G20G 5G23G26
 -15263071.33444 -11893282.19944  22160087.0164   22160087.3184
 -11046553.61844  -8607699.85144  20459449.0284   20459448.3954
    427018.64944    332746.84644  21689000.2064   21689000.4914
   4237969.87944   3302313.72644  21551936.4274   21551936.8124
  15389842.34544  11992081.38844  23245864.8754   23245866.6344
  -6855486.11744  -5341924.38644  23797611.3924   23797614.5564
   -470016.47644                  23909406.7554
 96  4  8  2 50  0.0000000  0  7G17G 6G16G20G 5G23G26
 -15320548.70644 -11938069.73944  22149148.7634   22149149.9274
 -11076557.10844  -8631079.19044  20453739.4504   20453738.8654
    488476.17544    380635.83644  21700695.5164   21700695.8514
   4314515.80544   3361959.89044  21566502.9304   21566503.8004
  15495315.40644  12074268.14444  23265935.3824   23265936.3994
  -6957573.42544  -5421472.81244  23778183.9284   23778187.0444
   -547962.44844                  23894573.8504
 96  4  8  2 50 30.0000000  0  7G17G 6G16G20G 5G23G26
 -15377812.41244 -11982690.78344  22138252.2104   22138253.0674
 -11106224.85544  -8654196.90844  20448093.8214   20448093.1434
    550379.74344    428872.39144  21712475.0744   21712475.1074
   4391463.01844   3421918.74644  21581145.1874   21581146.0454
  15600907.93844  12156548.02044  23286029.3464   23286030.0024
  -7059498.20344  -5500894.64344  23758789.4364   23758791.2884
   -625804.82044                  23879761.4144
 96  4  8  2 51  0.0000000  0  6G17G 6G16G20G 5G23
 -15434865.58844 -12027147.77644  22127395.4974   22127396.5284
 -11135554.59144  -8677051.24044  20442512.6024   20442511.8794
    612728.52344    477455.85444  21724339.4834   21724339.3734
   4468807.08944   3482186.84544  21595863.2334   21595864.0054
  15706625.84044  12238925.60544  23306146.4754   23306148.1574
  -7161241.90144  -5580175.35744  23739427.1564   23739428.6964
 96  4  8  2 51 30.0000000  0  7G17G 6G16G20G 5G23G26
 -15491687.55744 -12071424.60944  22116582.3464   22116582.6934
 -11164535.39144  -8699633.66644  20436997.5124   20436996.8754
    675525.02944    526388.20144  21736289.3724   21736289.3364
   4546559.82444   3542773.38844  21610659.4064   21610660.1144
  15812480.03344  12321409.37644  23326289.8334   23326292.1994
  -7262791.39144  -5659304.73344  23720103.2154   23720103.5894
        -0.21454                  23850197.8534
 96  4  8  2 52  0.0000000  0  7G17G 6G16G20G 5G23G26
 -15548259.00344 -12115506.23444  22105817.6544   22105817.7764
 -11193155.52144  -8721935.05544  20431551.1614   20431550.6554
    738788.05144    575684.07044  21748328.0284   21748328.5344
   4624723.11944   3603679.84144  21625533.6874   21625534.2884
  15918478.61044  12404005.62644  23346461.2974   23346463.2084
  -7364153.65044  -5738288.22844  23700814.3844   23700814.9644
    -77485.05944                  23835452.6224
 96  4  8  2 52 30.0000000  0  7G17G 6G16G20G 5G23G26
 -15604597.21244 -12159406.11644  22095096.4294   22095096.9684
 -11221441.38744  -8743975.98344  20426168.7384   20426168.1394
    802486.96844    625319.59844  21760449.1204   21760449.1244
   4703267.27544   3664883.07244  21640479.9164   21640480.5124
  16024589.65244  12486689.51444  23366653.3144   23366656.5374
  -7465364.67444  -5817153.86244  23681555.1784   23681556.7824
   -154860.35844                  23820728.7394
 96  4  8  2 53  0.0000000  0  7G17G 6G16G20G 5G23G26
 -15660688.97744 -12203113.95744  22084422.7034   22084422.9614
 -11249391.79144  -8765755.51244  20420850.0044   20420849.4664
    866624.68144    675297.05144  21772654.5104   21772654.1474
   4782200.32644   3726389.33544  21655500.4564   21655501.0034
  16130816.38544  12569463.55944  23386868.0484   23386869.9474
  -7566421.25244  -5895899.16444  23662323.4114   23662325.5354
   -232112.07544                  23806028.0464
 96  4  8  2 53 30.0000000  0  7G17G 6G16G20G 5G23G26
 -15716528.95844 -12246625.60244  22073797.1294   22073797.5014
 -11277002.91744  -8787270.66744  20415595.8544   20415595.1014
    931200.04344    725615.51844  21784942.6614   21784942.9574
   4861513.73244   3788191.98644  21670593.1064   21670593.6074
  16237140.24144  12652313.27444  23407100.5184   23407101.2104
  -7667338.44344  -5974535.83844  23643120.4234   23643120.7804
   -309239.55744                  23791351.5384
 96  4  8  2 54  0.0000000  0  7G17G 6G16G20G 5G23G26
 -15772116.95944 -12289940.90044  22063218.0974   22063218.8834
 -11304273.73544  -8808520.64944  20410406.2914   20410405.7194
    996222.48044    776282.35344  21797315.9574   21797316.0464
   4941198.18444   3850283.75744  21685756.3664   21685756.9814
  16343565.70444  12735242.19644  23427352.6434   23427353.8424
  -7768113.39244  -6053061.67644  23623943.0004   23623944.4994
   -386237.57044                  23776699.2554
 96  4  8  2 54 30.0000000  0  7G17G 6G16G20G 5G23G26
 -15827470.83744 -12333073.76244  22052684.8004   22052685.5214
 -11331217.58444  -8829515.84844  20405279.0124   20405278.5024
   1061685.35544    827292.39244  21809773.2054   21809773.1454
   5021259.63344   3912669.29144  21700991.8084   21700992.2974
  16450073.30544  12818235.13344  23447619.4424   23447622.6204
  -7868725.21544  -6131460.40044  23604797.1004   23604800.2094
   -463100.97844                  23762071.3124
 96  4  8  2 55  0.0000000  0  7G17G 6G16G20G 5G23G26
 -15882610.93844 -12376040.03944  22042192.3174   22042192.7624
 -11357834.21744  -8850256.07644  20400214.0914   20400213.4694
   1127583.74844    878641.79644  21822313.2964   21822313.1564
   5101700.72044   3975350.65744  21716298.8174   21716299.6284
  16556672.30844  12901299.26544  23467905.4204   23467905.7894
  -7969161.19744  -6209722.10044  23585684.4504   23585685.8104
   -539810.05644                  23747473.5684
 96  4  8  2 55 30.0000000  0  7G17G 6G16G20G 5G23G26
 -15937550.47444 -12418850.03344  22031737.3764   22031738.3314
 -11384115.87644  -8870735.29044  20395212.7524   20395212.1714
   1193918.44444    930331.18444  21834935.8724   21834936.3254
   5182527.86044   4038332.83644  21731680.2244   21731681.0504
  16663391.38944  12984456.95144  23488213.1724   23488214.4364
  -8069399.08844  -6287829.45244  23566610.1694   23566611.4354
   -616349.68744                  23732908.6184
 96  4  8  2 56  0.0000000  0  7G17G 6G16G20G 5G23G26
 -15992292.24644 -12461505.93544  22021320.2044   22021321.0734
 -11410059.18944  -8890950.85244  20390275.9054   20390275.2484
   1260687.17944    982358.76844  21847642.0294   21847642.1754
   5263748.74044   4101621.82644  21747136.3154   21747137.0174
  16770249.44244  13067722.91844  23508547.8354   23508548.9394
  -8169419.85344  -6365767.62644  23547576.9444   23547579.3124
   -692697.25844                  23718379.9214
 96  4  8  2 56 30.0000000  0  7G17G 6G16G20G 5G23G26
 -16046889.91144 -12504049.53644  22010930.9494   22010931.1244
 -11435706.94144  -8910936.10444  20385395.4144   20385394.7814
   1327835.16844   1034681.87944  21860419.6564   21860420.2284
   5345308.67544   4165175.01744  21762656.5264   21762657.4574
  16877189.71544  13151052.96844  23528897.8554   23528899.5414
  -8269267.44244  -6443570.86344  23528577.5314   23528579.0884
   -768897.15544                  23703879.4534
 96  4  8  2 57  0.0000000  0  7G17G 6G16G20G 5G23G26
 -16101318.24744 -12546461.20044  22000573.1844   22000573.7454
 -11461028.23144  -8930666.97344  20380576.8044   20380576.1964
   1395370.94344   1087307.15744  21873271.0614   21873271.4054
   5427211.28244   4228995.22044  21778241.7694   21778242.8754
  16984238.75744  13234467.77144  23549269.5144   23549270.3444
  -8368931.70744  -6521231.23244  23509610.9884   23509611.7324
   -844950.24944                  23689408.4844
 96  4  8  2 57 30.0000000  0  7G17G 6G16G20G 5G23G26
 -16155530.39144 -12588704.40144  21990257.2974   21990256.9824
 -11485991.35644  -8950118.75544  20375826.4874   20375825.9274
   1463332.96444   1140264.58144  21886204.5124   21886204.6274
   5509481.71644   4293102.03244  21793897.1104   21793898.0124
  17091396.22244  13317967.07744  23569659.7904   23569661.4544
  -8468394.30444  -6598734.49744  23490684.6054   23490684.9734
   -920841.60844                  23674967.1814
 96  4  8  2 58  0.0000000  0  7G17G 6G16G20G 5G23G26
 -16209506.59244 -12630763.75244  21979985.9934   21979986.0744
 -11510590.62144  -8969287.00744  20371145.6154   20371144.8604
   1531723.89144   1193556.22044  21899218.7584   21899218.2354
   5592119.10844   4357494.78944  21809622.5604   21809623.7914
  17198634.62944  13401529.45044  23590066.7614   23590068.2864
  -8567670.38744  -6676092.40144  23471792.0624   23471793.3074
   -996577.64644                  23660555.2384
 96  4  8  2 58 30.0000000  0  7G17G 6G16G20G 5G23G26
 -16263246.29644 -12672638.82044  21969759.6344   21969759.9344
 -11534817.59244  -8988165.15444  20366535.0404   20366534.5064
   1600549.63744   1247186.67444  21912315.7674   21912316.0374
   5675134.29444   4422181.93144  21825420.0914   21825420.6704
  17305949.88044  13485151.70644  23610488.0464   23610490.6884
  -8666754.33344  -6753300.58544  23452936.6924   23452938.1344
  -1072168.64344   -835454.49544  23646171.0334
 96  4  8  2 59  0.0000000  0  7G17G 6G16G20G 5G23G26
 -16316745.35144 -12714326.36344  21959579.0344   21959579.4124
 -11558678.06044  -9006757.71644  20361994.7554   20361994.1134
   1669814.76944   1301159.49844  21925496.4294   21925496.1524
   5758535.70944   4487170.03144  21841290.9014   21841291.4694
  17413346.00044  13568836.98544  23630924.7724   23630925.3174
  -8765644.36244  -6830357.65544  23434118.2204   23434119.6524
  -1147598.19544                  23631816.5314
 96  4  8  2 59 30.0000000  0  7G17G 6G16G20G 5G23G26
 -16370021.77344 -12755840.43044  21949441.0714   21949441.3894
 -11582206.48444  -9025091.54844  20357517.4524   20357516.6934
   1739495.39644   1355456.09644  21938756.0644   21938756.2364
   5842305.28244   4552445.01944  21857232.1374   21857232.4954
  17520803.22044  13652569.86044  23651372.6814   23651372.3434
  -8864359.03744  -6907278.09744  23415333.1294   23415335.1404
  -1222846.11044   -952865.42144  23617496.8644
 96  4  8  3  0  0.0000000  0  8G17G 6G16G20G 5G22G23G26
 -16423073.26444 -12797179.23244  21939345.2874   21939345.8884
 -11605397.88444  -9043162.76644  20353104.0444   20353103.5034
   1809593.06644   1410077.66144  21952094.9024   21952095.3574
   5926433.18744   4617999.22344  21873240.8184   21873241.3024
  17628344.51944  13736368.26144  23671837.6314   23671838.9724
        -0.26254                  24821094.6544
  -8962874.96544  -6984043.66844  23396586.7524   23396588.3204
  -1297892.91144                  23603216.0514
 96  4  8  3  0 30.0000000  0  8G17G 6G16G20G 5G22G23G26
 -16475891.53844 -12838336.30344  21929294.2704   21929294.5644
 -11628226.29244  -9060951.13344  20348760.0534   20348759.4814
   1880133.55244   1465044.27044  21965518.5894   21965518.7344
   6010927.48944   4683838.93144  21889319.2554   21889320.1954
  17735984.66944  13820243.67744  23692321.0584   23692323.1404
    -80728.67144                  24805732.6484
  -9061156.35444  -7060626.46444  23377884.3324   23377885.6394
  -1372705.19944                  23588979.0984
 96  4  8  3  1  0.0000000  0  8G17G 6G16G20G 5G22G23G26
 -16528500.77144 -12879330.48844  21919283.0774   21919283.5894
 -11650715.14044  -9078474.91244  20344480.6114   20344480.0774
   1951079.50144   1520326.83244  21979019.5504   21979019.9014
   6095739.69944   4749926.35844  21905458.4804   21905459.1374
  17843686.02544  13904166.79844  23712816.0794   23712817.5164
   -161161.42544                  24790426.8344
  -9159235.59044  -7137051.74644  23359220.8844   23359220.6774
  -1447307.96744  -1127770.69144  23574782.2264   23574780.0974
 96  4  8  3  1 30.0000000  0  8G17G 6G16G20G 5G22G23G26
 -16580919.75244 -12920176.42444  21909307.6674   21909308.3534
 -11672862.78344  -9095732.81144  20340265.8784   20340265.2434
   2022402.11544   1575902.89844  21992591.7644   21992592.0514
   6180837.86444   4816236.61444  21921652.1224   21921653.0964
  17951427.84944  13988121.43644  23733318.8304   23733319.5974
   -241308.30644                  24775173.3374
  -9257130.69844  -7213333.58444  23340591.4044   23340592.5424
  -1521739.59844  -1185769.31244  23560618.8294
 96  4  8  3  2  0.0000000  0  8G17G 6G16G20G 5G22G23G26
 -16633153.10244 -12960877.71844  21899368.2864   21899368.9724
 -11694650.96644  -9112710.60544  20336119.9014   20336119.2694
   2094096.66244   1631768.78244  22006234.4304   22006234.3314
   6266220.99144   4882768.91244  21937899.8204   21937901.2814
  18059215.39744  14072111.70744  23753830.4544   23753832.2334
   -321160.67744                  24759979.3424
  -9354843.71244  -7289473.49544  23321996.1534   23321997.4024
  -1596032.48544  -1243659.81744  23546482.2084   23546480.7904
 96  4  8  3  2 30.0000000  0  8G17G 6G16G20G 5G22G23G26
 -16685190.70644 -13001426.47744  21889466.1704   21889466.0844
 -11716059.95744  -9129392.93244  20332045.8994   20332045.3854
   2166157.63444   1687920.18544  22019947.3344   22019947.3304
   6351909.53544   4949539.19844  21954205.9534   21954207.0194
  18167067.04544  14156151.93244  23774353.6854   23774355.3574
   -400707.71544                  24744840.2124
  -9452364.25844  -7365463.44244  23303439.6564   23303441.1144
  -1670178.07844  -1301435.58344  23532371.7244   23532374.8174
 96  4  8  3  3  0.0000000  0  8G17G 6G16G20G 5G22G23G26
 -16737025.85744 -13041817.47944  21879601.9984   21879602.8924
 -11737105.02244  -9145791.68444  20328040.9414   20328040.1554
   2238570.99544   1744346.18144  22033726.8154   22033727.2094
   6437901.48344   5016545.90444  21970569.4724   21970570.6014
  18274999.56144  14240255.17244  23794892.8574   23794893.1164
   -479944.36644                  24729763.2434
  -9549704.05844  -7441312.56844  23284915.3104   23284916.4194
  -1744177.23744  -1359097.20744  23518289.8544   23518291.9194
 96  4  8  3  3 30.0000000  0  8G17G 6G16G20G 5G22G23G26
 -16788641.74844 -13082037.63144  21869779.7424   21869780.0614
 -11757788.85044  -9161908.95144  20324105.1744   20324104.4944
   2311351.34644   1801058.15044  22047576.6214   22047576.1834
   6524218.19644   5083805.67444  21986995.2514   21986996.0774
  18383031.85644  14324436.15944  23815450.3514   23815452.5974
   -558855.20044   -435470.82244  24714743.1764
  -9646849.28444  -7517010.04844  23266429.9934   23266432.4164
  -1818002.39844  -1416623.27444  23504241.9094   23504243.0954
 96  4  8  3  4  0.0000000  0  8G17G 6G16G20G 5G22G23G26
 -16840023.19244 -13122075.09844  21860002.0044   21860002.6174
 -11778100.34344  -9177736.07744  20320239.7624   20320239.2224
   2384519.70844   1858072.46944  22061500.3554   22061500.0604
   6610883.43544   5151337.01844  22003487.5474   22003487.5444
  18491173.98844  14408702.72144  23836028.9764   23836029.8144
   -637418.81044   -496689.10644  24699793.8854   24699794.4264
  -9743767.68044  -7592530.79544  23247987.2374   23247989.1164
  -1891613.16144  -1473982.31244  23490236.0814   23490235.5574
 96  4  8  3  4 30.0000000  0  8G17G 6G16G20G 5G22G23G26
 -16891181.98244 -13161939.07444  21850267.1114   21850267.5254
 -11798053.54444  -9193284.01544  20316442.7774   20316441.9474
   2458071.23044   1915385.33544  22075496.3154   22075496.8294
   6697884.81644   5219130.30144  22020043.3194   22020043.4754
  18599398.18144  14493033.24444  23856622.9214   23856624.3894
   -715636.76244   -557638.02244  24684907.7574
  -9840457.21344  -7667873.20644  23229587.6384   23229589.9584
  -1964994.47944  -1531162.47544  23476271.4674   23476272.0854
 96  4  8  3  5  0.0000000  0  8G17G 6G16G20G 5G22G23G26
 -16942130.03244 -13201638.83544  21840571.9724   21840572.2814
 -11817654.94844  -9208557.84444  20312712.8384   20312711.9894
   2532007.92244   1972998.34144  22089566.1754   22089566.2924
   6785218.01944   5287182.14644  22036662.1724   22036663.1134
  18707673.19444  14577403.36044  23877227.4704   23877229.0394
   -793503.53344                  24670090.9554
  -9936926.43944  -7743043.96644  23211230.8184   23211231.9154
  -2038143.53344  -1588161.72544  23462350.9934   23462351.3764
 96  4  8  3  5 30.0000000  0  8G17G 6G16G20G 5G22G23G26
 -16992892.54444 -13241194.02344  21830912.2084   21830911.8674
 -11836905.41644  -9223558.20744  20309049.8254   20309049.1984
   2606303.87144   2030891.28544  22103703.9534   22103704.4234
   6872860.20044   5355474.74344  22053339.7484   22053340.8224
  18815960.14744  14661782.78044  23897833.2694   23897836.3954
   -871041.93844   -678732.97544  24655335.7354
 -10033180.88744  -7818047.37544  23192913.7254   23192913.8144
  -2111077.48944  -1644993.35544  23448471.5634   23448473.7964
 96  4  8  3  6  0.0000000  0  8G17G 6G16G20G 5G22G23G26
 -17043475.16744 -13280609.03044  21821286.4634   21821286.2474
 -11855785.31644  -9238269.81944  20305457.1074   20305456.4324
   2680964.88644   2089068.70444  22117911.8644   22117912.0954
   6960802.20444   5424000.96144  22070074.3754   22070074.8604
  18924253.13344  14746166.88544  23918441.7484   23918443.0104
   -948242.17244   -738888.98544  24640647.3554
 -10129208.17644  -7892873.76544  23174639.8224   23174640.8204
  -2183804.14944  -1701663.42744  23434632.9344   23434633.7204
 96  4  8  3  6 30.0000000  0  8G17G 6G16G20G 5G22G23G26
 -17093860.39244 -13319870.22944  21811698.6194   21811699.0034
 -11874281.31644  -9252682.28544  20301937.2754   20301936.5644
   2756009.87544   2147545.32644  22132192.4474   22132192.0464
   7049054.32244   5492768.82544  22086868.3204   22086869.5864
  19032564.52544  14830565.36744  23939052.5334   23939054.9594
  -1025087.15244                  24626023.6224
 -10225012.76144  -7967526.63544  23156409.3354   23156410.2964
  -2256308.19944  -1758160.05044  23420834.8424   23420835.1574
 96  4  8  3  7  0.0000000  0  8G17G 6G16G20G 5G22G23G26
 -17144028.76144 -13358962.44744  21802151.9564   21802152.6324
 -11892388.21144  -9266791.55244  20298491.6934   20298491.0634
   2831451.74744   2206331.20244  22146548.7674   22146548.4414
   7137606.11544   5561770.20644  22103719.5224   22103720.2234
  19140895.78944  14914979.33044  23959667.1264   23959669.8104
  -1101578.83344                  24611466.1414
 -10320594.93344  -8042006.18344  23138220.4634   23138221.9434
  -2328588.70344  -1814482.51244  23407080.5484   23407081.0754
 96  4  8  3  7 30.0000000  0  8G17G 6G16G20G 5G22G23G26
 -17193971.34944 -13397878.72644  21792647.9774   21792648.6004
 -11910102.77044  -9280595.11044  20295120.7664   20295119.9874
   2907287.08444   2265423.66944  22160979.4384   22160980.0374
   7226442.70744   5630993.50844  22120624.6514   22120625.3054
  19249257.11644  14999416.69044  23980288.2054   23980290.3484
  -1177723.24344                  24596977.7884
 -10415951.41944  -8116309.87844  23120074.4344   23120075.0824
  -2400642.30044  -1870628.12744  23393368.8754   23393368.6404
 96  4  8  3  8  0.0000000  0  8G17G 6G16G20G 5G22G23G26
 -17243676.84844 -13436610.26244  21783189.1974   21783189.5484
 -11927427.93544  -9294095.24144  20291823.7624   20291823.1594
   2983516.68944   2324823.35144  22175484.9204   22175485.5524
   7315577.40844   5700449.11044  22137586.1614   22137586.9314
  19357644.64144  15083874.47344  24000912.6364   24000915.8524
  -1253512.00044                  24582553.7884
 -10511090.78544  -8190444.39644  23101970.2954   23101970.9304
  -2472462.15644  -1926591.60644  23379702.2444   23379700.9744
 96  4  8  3  8 30.0000000  0  8G17G 6G16G20G 5G22G23G26
 -17293126.45244 -13475142.39744  21773779.5754   21773779.9664
 -11944366.33344  -9307293.98644  20288600.6904   20288600.1374
   3060137.78044   2384528.10144  22190066.2534   22190066.2884
   7405011.19144   5770137.76344  22154604.9704   22154605.4854
  19466050.82244  15168346.82444  24021542.2594
  -1328949.74444                  24568200.0774
 -10606018.10544  -8264413.68544  23083905.7264   23083907.3884
  -2544041.36744  -1982367.58844  23366081.3664   23366082.2324
 96  4  8  3  9  0.0000000  0  8G17G 6G16G20G 5G22G23G26
 -17342361.17344 -13513507.09444  21764410.2444   21764410.8454
 -11960951.36444  -9320217.38044  20285444.5344   20285443.9074
   3137088.60644   2444489.78544  22204709.5614   22204709.2304
   7494705.61544   5840029.50444  22171673.0714   22171673.5774
  19574448.39944  15252812.45444  24042168.4724
  -1404081.55744                  24553903.9684
 -10700750.15244  -8338230.79944  23065878.6964   23065880.3184
  -2615419.12444  -2037986.57944  23352498.3574   23352499.6924
 96  4  8  3  9 30.0000000  0  8G17G 6G16G20G 5G22G23G26
 -17391398.62944 -13551718.08144  21755079.0174   21755079.3214
 -11977183.23744  -9332865.58944  20282355.7024   20282354.8664
   3214346.95444   2504691.10144  22219411.1454   22219411.4064
   7584680.16444   5910139.53444  22188794.4654   22188795.7934
  19682855.47844                  24062798.0404
  -1478903.16744                  24539669.3254
 -10795277.48144  -8411888.39844  23047891.2854   23047892.6684
  -2686598.80344  -2093451.22744  23338953.6534   23338954.9874
 96  4  8  3 10  0.0000000  0  8G17G 6G16G20G 5G22G23G26
 -17440234.46444 -13589771.94744  21745786.2734   21745786.1204
 -11993048.99544  -9345228.51744  20279336.6814   20279335.9574
   3291926.67244   2565142.82944  22234173.6724   22234173.8104
   7674949.12744   5980478.97444  22205972.3374   22205973.1434
  19791282.84444                  24083432.1404
  -1553393.92544  -1210435.56644  24525493.3154
 -10889583.79344  -8485373.77244  23029944.6424   23029946.1104
  -2757578.77644  -2148760.25744  23325447.3724   23325447.7994
 96  4  8  3 10 30.0000000  0  8G17G 6G16G20G 5G22G23G26
 -17488862.28744 -13627663.72844  21736532.3414   21736532.2644
 -12008527.10244  -9357289.37744  20276391.1114   20276390.5374
   3369855.09244   2625866.26844  22249003.3014   22249002.9524
   7765517.01244   6051051.33944  22223207.5904   22223208.0784
  19899776.92744                  24104078.8524
  -1627523.86544  -1268199.19544  24511390.1804
 -10983625.92944  -8558653.29944  23012049.1684   23012050.7794
  -2828328.25644  -2203889.67844  23311983.3254   23311982.9834
 96  4  8  3 11  0.0000000  0  8G17G 6G16G20G 5G22G23G26
 -17537294.34744 -13665402.97144  21727315.7014   21727316.1364
 -12023612.32744  -9369044.09144  20273520.5934   20273519.9854
   3448116.64144   2686849.29744  22263895.7634   22263896.1434
   7856385.33044   6121857.81544  22240498.7874   22240499.2134
  20008347.93544                  24124737.9814
  -1701281.49644  -1325672.59044  24497352.8944
 -11077391.28144  -8631717.14744  22994206.7004   22994207.2864
  -2898830.86244  -2258826.73444  23298566.5404   23298565.9034
 96  4  8  3 11 30.0000000  0  8G17G 6G16G20G 5G22G23G26
 -17585522.16244 -13702983.06744  21718138.2314   21718138.6214
 -12038302.13244  -9380490.68844  20270725.1584   20270724.5504
   3526725.84844   2748103.22344  22278854.5554   22278854.9094
   7947547.13544   6192892.99944  22257846.0104   22257846.6574
  20116968.43044                  24145407.3094
  -1774654.41644  -1382846.20144  24483389.8634   24483386.6454
 -11170889.08444  -8704572.52444  22976414.6364   22976415.1674
  -2969079.60044  -2313565.94744  23285199.0134   23285198.5864
 96  4  8  3 12  0.0000000  0  8G17G 6G16G20G 5G22G23G26
 -17633533.30544 -13740394.32644  21709001.9684   21709002.5354
 -12052588.36344  -9391622.81144  20268006.5354   20268005.9394
   3605685.76144   2809630.42244  22293879.9364   22293880.7224
   8038988.08144   6264145.69344  22275245.9034   22275247.0224
  20225608.83944                  24166081.9164
  -1847636.25144  -1439715.12844  24469501.5054
 -11264125.96144  -8777224.58744  22958672.7444   22958672.7814
  -3039058.60944  -2368095.01244  23271882.2514   23271882.7754
 96  4  8  3 12 30.0000000  0  8G17G 6G16G20G 5G22G23G26
 -17681327.22544 -13777636.31044  21699907.1524   21699907.5114
 -12066474.15644  -9402442.90944  20265364.2334   20265363.6974
   3684983.09244   2871420.54744  22308970.0974   22308970.4254
   8130708.76944   6335616.35244  22292700.5204   22292701.7374
  20334252.26844                  24186755.1414
  -1920236.25844                  24455686.3734
 -11357100.45544  -8849672.19844  22940979.9124   22940980.3654
  -3108753.42944  -2422402.62144  23258620.2474   23258619.7454
 96  4  8  3 13  0.0000000  0  7G17G 6G16G20G22G23G26
 -17728909.49544 -13814713.38044  21690852.6914   21690852.6084
 -12079971.09444  -9412959.99744  20262795.8194   20262795.2054
   3764590.70444   2933452.46144  22324119.3604   22324119.2834
   8222690.45344   6407290.38544  22310203.9824   22310204.9364
  -1992471.86844  -1552574.01444  24441937.4394
 -11449841.99944  -8921938.28544  22923331.5544   22923332.2954
  -3178191.22044  -2476509.95344  23245405.9894   23245405.5584
 96  4  8  3 13 30.0000000  0  7G17G 6G16G20G22G23G26
 -17776264.25444 -13851613.16844  21681841.1344   21681841.7334
 -12093066.42444  -9423164.15344  20260304.0914   20260303.3384
   3844539.00144   2995749.83644  22339332.6614   22339332.9294
   8314943.46844   6479175.84244  22327758.9374   22327759.3244
  -2064331.04144  -1608568.17844  24428263.0434
 -11542341.76944  -8994015.96444  22905728.9104   22905731.1034
  -3247368.82544  -2530414.54544  23232242.4724   23232241.8764
 96  4  8  3 14  0.0000000  0  7G17G 6G16G20G22G23G26
 -17823419.71544 -13888357.66444  21672867.7824   21672868.4254
 -12105777.40044  -9433068.81144  20257885.0614   20257884.4034
   3924813.19344   3058301.15644  22354608.4114   22354608.7994
   8407437.95444   6551249.45344  22345360.2604   22345361.4344
  -2135836.26544  -1664286.44744  24414655.6174
 -11634614.42344  -9065916.68244  22888169.5414   22888170.8984
  -3316304.14544  -2584130.34944  23219124.2614   23219122.4044
 96  4  8  3 14 30.0000000  0  7G17G 6G16G20G22G23G26
 -17870361.02544 -13924935.28444  21663935.1904   21663935.7554
 -12118072.86144  -9442649.68344  20255545.4274   20255544.8124
   4005447.46144   3121133.04544  22369952.6734   22369953.0594
   8500189.11744   6623523.07144  22363009.7664   22363010.3824
  -2206954.23244                  24401123.1784
 -11726623.15544  -9137611.74744  22870660.8734   22870663.0634
  -3384973.96444  -2637639.25344  23206056.9344   23206054.9494
 96  4  8  3 15  0.0000000  0  7G17G 6G16G20G22G23G26
 -17917091.90844 -13961348.93944  21655042.6914   21655042.9324
 -12129953.55544  -9451907.36144  20253284.2704   20253283.7014
   4086453.12944   3184254.35244  22385367.0174   22385367.4984
   8593189.76444   6695991.10044  22380708.0814   22380708.5214
  -2277668.78444                  24387665.2874
 -11818370.08244  -9209102.79444  22853201.6234   22853203.5994
  -3453375.13144  -2690938.81944  23193040.5064   23193041.0984
 96  4  8  3 15 30.0000000  0  7G17G 6G16G20G22G23G26
 -17963645.52944 -13997624.47144  21646183.7704   21646184.2184
 -12141437.03544  -9460855.53044  20251099.1864   20251098.6024
   4167813.31844   3247651.89944  22400849.6844   22400850.1614
   8686415.71144   6768634.69844  22398448.2594   22398449.0704
  -2347992.18244                  24374285.8844
 -11909874.13644  -9280404.59744  22835789.7684   22835790.3124
  -3521518.34644  -2744037.40444  23180073.1164   23180072.5794
 96  4  8  3 16  0.0000000  0  7G17G 6G16G20G22G23G26
 -18010017.03544 -14033758.09644  21637359.5304   21637360.1254
 -12152513.63444  -9469486.64444  20248991.3744   20248990.6814
   4249518.42844   3311318.21544  22416397.3414   22416397.6694
   8779878.43144   6841462.77744  22416234.0634   22416234.6184
  -2417904.72244  -1884079.99844  24360980.8624
 -12001121.66044  -9351506.52644  22818426.5104   22818426.7854
  -3589391.71244  -2796925.71144  23167157.1564   23167157.4404
 96  4  8  3 16 30.0000000  0  7G17G 6G16G20G22G23G26
 -18056192.66444 -14069739.08944  21628572.4514   21628572.8264
 -12163185.37344  -9477802.28744  20246960.5784   20246959.8574
   4331551.12944   3375239.79944  22432007.6924   22432008.2214
   8873599.01244   6914491.78244  22434068.0704   22434068.3534
  -2487393.88944  -1938227.37644  24347755.8304
 -12092104.64044  -9422402.31044  22801113.2124   22801113.2684
  -3656985.25244  -2849595.98144  23154294.2264   23154293.1354
 96  4  8  3 17  0.0000000  0  7G17G 6G16G20G22G23G26
 -18102165.59644 -14105562.13844  21619824.0754   21619824.3224
 -12173463.30944  -9485811.07044  20245004.5664   20245004.1504
   4413891.63944   3439401.21744  22447677.0224   22447677.3284
   8967586.13544   6987728.49844  22451952.3494   22451952.9164
  -2556476.01444  -1992057.60244  24334611.2564   24334609.7884
 -12182829.19644  -9493096.72244  22783848.4104   22783848.3144
  -3724291.86544  -2902042.65144  23141486.0174   23141486.4554
 96  4  8  3 17 30.0000000  0  7G17G 6G16G20G22G23G26
 -18147938.73944 -14141229.50944  21611113.4704   21611114.0624
 -12183344.81344  -9493510.93744  20243124.3774   20243123.7704
   4496507.45444   3503777.17544  22463398.0674   22463398.1334
   9061828.87544   7061164.40044  22469886.7954   22469887.5584
  -2625178.58644  -2045592.06144  24321536.9654   24321543.1594
 -12273301.01244  -9563594.20444  22766632.0704   22766632.6784
  -3791315.99644  -2954269.22044  23128732.2684   23128731.8164
 96  4  8  3 18  0.0000000  0  7G17G 6G16G20G22G23G26
 -18193508.48144 -14176738.39044  21602441.8234   21602442.5724
 -12192838.63744  -9500908.72144  20241317.8514   20241317.0734
   4579383.37644   3568355.82144  22479168.4684   22479168.5884
   9156315.28944   7134790.18644  22487866.9224   22487867.7354
  -2693526.56144  -2098850.19144  24308529.8374   24308531.3424
 -12363526.03844  -9633899.35744  22749462.6314   22749463.8754
  -3858054.22344  -3006273.01044  23116032.1014   23116032.4824
 96  4  8  3 18 30.0000000  0  7G17G 6G16G20G22G23G26
 -18238868.81844 -14212084.09144  21593810.0404   21593810.7864
 -12201929.56844  -9507992.55444  20239587.8324   20239587.0274
   4662535.34944   3633149.56344  22494992.2024   22494991.6084
   9251037.88144   7208600.01244  22505891.9684   22505893.2344
  -2761527.26244  -2151837.70544  24295590.3054
 -12453491.72244  -9704002.43544  22732342.2674   22732343.0774
  -3924484.01344  -3058036.45544  23103391.3594   23103391.2814
 96  4  8  3 19  0.0000000  0  7G17G 6G16G20G22G23G26
 -18283987.98044 -14247241.86244  21585224.3674   21585224.8204
 -12210566.11644  -9514722.31844  20237944.2624   20237943.6964
   4746012.14144   3698196.41644  22510877.3564   22510877.3974
   9346018.39244   7282610.80944  22523966.7944   22523967.2414
  -2829147.64344  -2204528.88844  24282722.7054
 -12543157.91644  -9773872.14744  22715279.3534   22715280.5974
  -3990568.11844  -3109530.54944  23090816.2704   23090816.2514
 96  4  8  3 19 30.0000000  0  7G17G 6G16G20G22G23G26
 -18328849.08144 -14282198.55044  21576687.4854   21576687.7054
 -12218724.99244  -9521079.88644  20236391.9354   20236391.0944
   4829844.75444   3763520.51644  22526829.7654   22526830.1314
   9441252.13744   7356818.92744  22542088.7174   22542088.6204
  -2896356.08444  -2256899.06144  24269931.4404
 -12632505.63044  -9843493.68944  22698277.5914   22698278.8684
  -4056303.28844  -3160752.73344  23078306.7714   23078306.5134
 96  4  8  3 20  0.0000000  0  7G17G 6G16G20G22G23G26
 -18373478.18444 -14316974.46144  21568195.0564   21568195.4674
 -12226448.19944  -9527097.97344  20234922.0744   20234921.4984
   4914018.93044   3829110.77744  22542847.4284   22542848.0414
   9536703.34544   7431196.48344  22560252.3414   22560253.4594
  -2963170.09644                  24257218.7974
 -12721567.42644  -9912892.44944  22681329.6454   22681330.2394
  -4121728.76444  -3211733.59944  23065856.2454   23065856.9964
 96  4  8  3 20 30.0000000  0  7G17G 6G16G20G22G23G26
 -18417897.37944 -14351586.80544  21559742.0524   21559742.8944
 -12233756.37144  -9532792.65544  20233531.3084   20233530.6324
   4998518.72244   3894954.77144  22558927.5884   22558927.7344
   9632355.70944   7505730.77844  22578454.9694   22578455.9844
  -3029600.61044                  24244577.2634
 -12810356.68844  -9982078.84444  22664433.6344   22664434.0374
  -4186869.60544  -3262492.67644  23053461.2604   23053461.0414
 96  4  8  3 21  0.0000000  0  7G17G 6G16G20G22G23G26
 -18462098.53544 -14386029.24844  21551330.9134   21551331.5074
 -12240652.71644  -9538166.43144  20232219.1484   20232218.5664
   5083339.87244   3961049.17244  22575068.9524   22575068.7914
   9728209.06644   7580421.68944  22596695.1064   22596695.6654
  -3095630.27844  -2412177.65344  24232013.2924
 -12898879.44144 -10051057.58144  22647588.3864   22647589.1454
  -4251727.73244  -3313031.44644  23041118.9804   23041118.9004
 96  4  8  3 21 30.0000000  0  7G17G 6G16G20G22G23G26
 -18506089.91344 -14420308.23244  21542959.5454   21542960.1584
 -12247155.58844  -9543233.60444  20230981.7064   20230981.1144
   5168465.07944   4027380.50144  22591267.7964   22591267.2794
   9824261.90144   7655268.03844  22614973.2794   22614973.8504
  -3161253.99744  -2463312.98844  24219525.7714   24219522.7424
 -12987140.14344 -10119832.11444  22630792.6354   22630792.4444
  -4316308.30344  -3363353.93544  23028829.5764   23028829.7694
 96  4  8  3 22  0.0000000  0  7G17G 6G16G20G22G23G26
 -18549900.29544 -14454446.17444  21534622.6794   21534623.1084
 -12253284.84744  -9548009.65244  20229815.2934   20229814.6094
   5253860.90844   4093922.69244  22607517.9704   22607518.2134
   9920520.50444   7730274.74444  22633290.9954   22633290.7594
  -3226487.38744  -2514144.18044  24207112.2274   24207114.5504
 -13075153.03644 -10188413.54544  22614044.2674   22614045.0494
  -4380605.60344  -3413455.70044  23016594.1104   23016593.5154
 96  4  8  3 22 30.0000000  0  7G17G 6G16G20G22G23G26
 -18593565.18144 -14488470.74444  21526313.9314   21526314.2444
 -12259052.46144  -9552503.89444  20228717.6274   20228716.9674
   5339491.25544   4160647.63344  22623812.9454   22623812.2994
  10016970.22244   7805430.36044  22651644.6224   22651644.9564
  -3291341.74544  -2564680.00444  24194770.5014   24194767.7264
 -13162934.54344 -10256814.68144  22597339.4684   22597340.5934
  -4444627.60444  -3463342.93844  23004411.2714   23004411.4794
 96  4  8  3 23  0.0000000  0  7G17G 6G16G20G22G23G26
 -18637042.62144 -14522349.25344  21518040.1394   21518040.4704
 -12264423.15044  -9556688.84644  20227695.8344   20227694.8894
   5425390.54244   4227582.13944  22640158.9464   22640159.2554
  10113658.89744   7880772.17344  22670043.6304   22670043.9244
  -3355765.14244  -2614880.00744  24182510.0494   24182506.8904
 -13250441.51744 -10325001.88544  22580687.1574   22580688.6694
  -4508334.34844  -3512984.54544  22992287.7224   22992287.9314
 96  4  8  3 23 30.0000000  0  7G17G 6G16G20G22G23G26
 -18680333.18544 -14556082.14644  21509802.0534   21509802.6534
 -12269395.18544  -9560563.15344  20226749.6274   20226748.9894
   5511560.14144   4294727.26444  22656555.6494   22656556.0614
  10210594.33044   7956306.27544  22688489.0364   22688489.6864
  -3419761.76644  -2664747.48444  24170332.2544   24170330.4544
 -13337662.09244 -10392965.91644  22564089.9124   22564091.0934
  -4571721.29344  -3562376.95544  22980225.7114   22980225.1774
 96  4  8  3 24  0.0000000  0  7G17G 6G16G20G22G23G26
 -18723442.96144 -14589674.16944  21501598.6964   21501598.8074
 -12273957.31144  -9564118.05544  20225881.5584   20225880.8894
   5597993.17744   4362077.67644  22673003.8284   22673003.4034
  10307758.69044   8032018.75544  22706978.9134   22706979.8484
  -3483350.89944  -2714297.48044  24158231.8734   24158235.0084
 -13424605.48844 -10460713.97444  22547544.9154   22547546.0514
  -4634787.48344  -3611519.43744  22968225.0214   22968225.2364
 96  4  8  3 24 30.0000000  0  7G17G 6G16G20G22G23G26
 -18766359.66844 -14623115.74544  21493431.7434   21493432.0774
 -12278089.35544  -9567337.83044  20225094.9544   20225094.1164
   5684703.79444   4429644.39444  22689504.3284   22689504.8064
  10405140.08944   8107900.34844  22725510.3494   22725511.5904
  -3546525.06844  -2763524.06944  24146210.0604   24146208.1864
 -13511249.26544 -10528228.56644  22531057.4454   22531058.2764
  -4697535.59244  -3660414.04044  22956283.8984   22956283.7384
 96  4  8  3 25  0.0000000  0  7G17G 6G16G20G22G23G26
 -18809087.18344 -14656409.89844  21485301.1704   21485301.6314
 -12281799.12644  -9570228.56244  20224389.3344   20224388.5254
   5771681.05544   4497418.88144  22706055.5054   22706055.8984
  10502704.54844   8183924.59544  22744076.1334   22744077.4564
  -3609302.02744  -2812441.19344  24134263.1294   24134264.4404
 -13597600.29144 -10595515.03744  22514625.3564   22514626.8654
  -4759976.21544  -3709069.04844  22944402.0354   22944401.6334
 96  4  8  3 25 30.0000000  0  7G17G 6G16G20G22G23G26
 -18851643.58144 -14689570.71044  21477202.6434   21477203.2884
 -12285071.41944  -9572778.40344  20223766.5004   20223765.8814
   5858912.84344   4565391.69744  22722655.2334   22722655.0214
  10600420.90544   8260067.21344  22762671.7124   22762672.0274
  -3671697.24344  -2861060.85444  24122391.4414   24122392.6334
 -13683660.63844 -10662575.00644  22498249.0404   22498249.6644
  -4822111.05444  -3757485.77144  22932578.1404   22932578.4174
 96  4  8  3 26  0.0000000  0  7G17G 6G16G20G22G23G26
 -18894011.14144 -14722584.37644  21469140.3654   21469140.8664
 -12287871.30044  -9574960.12844  20223233.6164   20223232.8604
   5946424.14744   4633582.32344  22739308.2424   22739308.6034
  10698295.22544   8336332.91344  22781296.3224   22781296.8564
  -3733684.84344  -2909362.89944  24110595.2174   24110593.6154
 -13769406.28244 -10729389.76344  22481932.4194   22481932.6304
  -4883910.18244  -3805640.90744  22920818.2354   22920817.4444
 96  4  8  3 26 30.0000000  0  7G17G 6G16G20G22G23G26
 -18936171.21244 -14755436.35944  21461117.6744   21461118.1074
 -12290209.43044  -9576782.04544  20222788.5884   20222788.0134
   6034221.89144   4701996.15044  22756015.9334   22756015.5754
  10796335.97444   8412728.30744  22799952.4754   22799952.9114
  -3795238.45544  -2957326.74444  24098881.4724   24098883.4614
 -13854817.19244 -10795943.69044  22465678.9354   22465679.0024
  -4945356.67944  -3853521.25344  22909124.8744   22909125.1844
 96  4  8  3 27  0.0000000  0  7G17G 6G16G20G22G23G26
 -18978115.13044 -14788119.91844  21453135.7234   21453136.2514
 -12292091.50444  -9578248.59744  20222430.5894   20222429.9614
   6122307.61344   4770634.37144  22772777.9154   22772777.8204
  10894543.86144   8489253.94544  22818640.7644   22818641.3534
  -3856355.48444  -3004950.62444  24087251.9474   24087252.1614
 -13939899.49944 -10862241.56744  22449487.9584   22449488.3494
  -5006444.99844  -3901122.52344  22897500.1904   22897499.8174
 96  4  8  3 27 30.0000000  0  7G17G 6G16G20G22G23G26
 -19019836.56044 -14820630.10944  21445196.4274   21445196.8754
 -12293520.28244  -9579361.93044  20222158.7274   20222157.9774
   6210675.19944   4839492.21144  22789593.5654   22789593.8874
  10992935.90644   8565923.05544  22837364.3244   22837364.2904
  -3917030.00744  -3052229.08644  24075705.9544   24075707.5644
 -14024659.41944 -10928288.22944  22433358.3334   22433358.8474
  -5067172.71844  -3948442.77644  22885944.3024   22885943.8624
 96  4  8  3 28  0.0000000  0  7G17G 6G16G20G22G23G26
 -19061318.77744 -14852953.90144  21437302.8654   21437302.8474
 -12294525.05444  -9580144.86244  20221967.4304   20221966.7264
   6299312.73244   4908560.40644  22806460.4574   22806460.6764
  11091518.57044   8642740.72844  22856124.1314   22856123.9414
  -3977254.66644  -3099157.41244  24064245.4894   24064245.5004
 -14109118.22144 -10994100.24944  22417286.0834   22417286.9054
  -5127538.66744  -3995481.14244  22874457.3644   22874456.3514
 96  4  8  3 28 30.0000000  0  7G17G 6G16G20G22G23G26
 -19102555.44244 -14885086.35744  21429455.8824   21429455.6964
 -12295119.31044  -9580607.91144  20221854.3034   20221853.6684
   6388205.49444   4977827.48744  22823376.0684   22823376.6174
  11190307.54344   8719719.15644  22874923.2094   22874923.6234
  -4037020.50544  -3145728.19544  24052872.2574   24052870.2584
 -14193285.81944 -11059685.34944  22401268.9744   22401271.1594
  -5187544.61544  -4042238.97344  22863038.0804   22863038.1344
 96  4  8  3 29  0.0000000  0  7G17G 6G16G20G22G23G26
 -19143565.42144 -14917042.16544  21421652.0344   21421652.2484
 -12295293.59544  -9580743.71244  20221821.1584   20221820.5634
   6477335.40544   5047279.35944  22840337.0634   22840337.6824
  11289285.90044   8796845.16144  22893757.8714   22893758.9824
  -4096341.73344  -3191952.51944  24041582.7424   24041582.5354
 -14277188.80544 -11125064.25644  22385302.7534   22385304.7904
  -5247201.78044  -4088725.03344  22851685.5114   22851685.1024
 96  4  8  3 29 30.0000000  0  7G17G 6G16G20G22G23G26
 -19184349.00544 -14948821.56344  21413891.3294   21413891.3534
 -12295045.67544  -9580550.52344  20221868.3264   20221867.7114
   6566688.26744   5116904.97344  22857340.3984   22857340.8854
  11388442.95744   8874110.40444  22912627.1034   22912628.0714
  -4155211.59844  -3237825.15944  24030380.2554   24030377.9894
 -14360837.13544 -11190244.73144  22369385.3104   22369386.7494
  -5306495.97144  -4134928.26444  22840402.5224   22840403.0564
 96  4  8  3 30  0.0000000  0  7G17G 6G16G20G22G23G26
 -19224922.34044 -14980437.13444  21406170.7194   21406170.5954
 -12294375.59844  -9580028.39144  20221995.8834   20221995.2504
   6656265.53544   5186705.43544  22874386.6434   22874387.6454
  11487758.91344   8951499.46444  22931525.6964   22931526.5044
  -4213634.21544  -3283349.28244  24019262.7584   24019263.0684
 -14444212.49144 -11255212.49644  22353520.3034   22353521.2914
  -5365420.57544  -4180843.51844  22829189.2244   22829189.5264
 96  4  8  3 30 30.0000000  0  7G17G 6G16G20G22G23G26
 -19265305.00644 -15011904.13544  21398485.6134   21398485.7574
 -12293258.11344  -9579157.62844  20222208.8284   20222208.1964
   6746076.90244   5256688.31544  22891477.1994   22891477.2834
  11587217.17944   9028999.41744  22950452.1834   22950452.9964
  -4271612.78644  -3328527.38944  24008229.2644   24008228.9604
 -14527295.10644 -11319952.16644  22337710.7444   22337710.2874
  -5423976.94944  -4226471.84344  22818046.8084   22818047.1384
 96  4  8  3 31  0.0000000  0  7G17G 6G16G20G22G23G26
 -19305510.24144 -15043232.87444  21390834.6214   21390834.9754
 -12291690.91844  -9577936.42744  20222506.8414   20222506.0654
   6836125.96844   5326856.41644  22908612.7824   22908612.4344
  11686790.04644   9106588.65544  22969399.8934   22969400.4474
  -4329162.47544  -3373371.29044  23997277.8304   23997280.2854
 -14610074.97944 -11384455.93144  22321958.3354   22321958.3224
  -5482182.53544  -4271826.83344  22806970.3344   22806970.5174
 96  4  8  3 31 30.0000000  0  7G17G 6G16G20G22G23G26
 -19345541.66344 -15074426.17744  21383216.8714   21383217.1624
 -12289691.89244  -9576378.73644  20222887.1804   20222886.5584
   6926410.44244   5397207.94944  22925793.1404   22925793.6494
  11786488.61344   9184275.86044  22988372.2634   22988373.3034
  -4386298.60444  -3417892.93344  23986406.0364   23986404.6964
 -14692531.49244 -11448707.72444  22306266.7144   22306267.1874
  -5540053.71544  -4316921.23544  22795957.7564   22795958.3984
 96  4  8  3 32  0.0000000  0  7G17G 6G16G20G22G23G26
 -19385383.26644 -15105471.57044  21375635.4594   21375635.8054
 -12287240.00344  -9574468.17544  20223353.7194   20223353.1034
   7016962.79144   5467768.22144  22943024.5894   22943024.1954
  11886343.49144   9262084.85544  23007374.4844   23007375.8754
  -4443016.54044  -3462088.73844  23975612.3854   23975612.0794
 -14774635.40644 -11512684.75944  22290642.7264   22290643.1634
  -5597579.38944  -4361746.41744  22785011.1124   22785010.6124
 96  4  8  3 32 30.0000000  0  7G17G 6G16G20G22G23G26
 -19425036.75144 -15136370.38344  21368089.6634   21368089.9794
 -12284349.35944  -9572215.71944  20223903.6874   20223902.7894
   7107765.72744   5538523.75544  22960304.2824   22960304.7834
  11986353.13444   9340014.45444  23026405.8484   23026406.8864
  -4499327.96444  -3505967.76444  23964895.9334   23964896.6804
 -14856421.37744 -11576414.04544  22275079.7014   22275080.4854
  -5654776.69244  -4406315.72844  22774126.7454   22774125.6304
 96  4  8  3 33  0.0000000  0  7G17G 6G16G20G22G23G26
 -19464462.14544 -15167091.46044  21360587.0314   21360587.5044
 -12280998.98444  -9569605.02944  20224541.2534   20224540.7024
   7198837.81244   5609489.02144  22977634.7434   22977634.6234
  12086560.63644   9418098.21844  23045474.5634   23045475.1974
  -4555206.99544  -3549509.88144  23954263.1644   23954264.8354
 -14937865.19444 -11639876.72744  22259581.1444   22259581.5264
  -5711600.78744  -4450594.23044  22763313.5344   22763312.3324
 96  4  8  3 33 30.0000000  0  7G17G 6G16G20G22G23G26
 -19503671.28344 -15197644.02044  21353126.1244   21353126.2734
 -12277191.55544  -9566638.20944  20225265.9674   20225265.2874
   7290159.09444   5680648.45544  22995012.3424   22995012.7904
  12186962.45144   9496333.40044  23064579.8584   23064581.2714
  -4610652.76744  -3592714.36844  23943711.9624   23943713.7524
 -15018984.54744 -11703086.57344  22244144.4274   22244144.9244
  -5768029.65544  -4494564.75744  22752575.2634   22752575.2734
 96  4  8  3 34  0.0000000  0  7G17G 6G16G20G22G23G26
 -19542688.60444 -15228047.11144  21345701.2594   21345701.8124
 -12272914.22944  -9563305.23544  20226079.7894   20226079.1394
   7381722.25444   5751996.36944  23012436.4444   23012436.0914
  12287523.72544   9574692.82844  23083716.0554   23083717.2304
  -4665642.26044  -3635563.31444  23933247.9094   23933249.9314
 -15099795.65244 -11766056.22644  22228766.5114   22228767.5554
  -5824048.25344  -4538215.59244  22741916.0364   22741915.5374
 96  4  8  3 34 30.0000000  0  7G17G 6G16G20G22G23G26
 -19581518.47444 -15258304.13144  21338311.8464   21338312.2844
 -12268150.43844  -9559593.18244  20226986.3294   20226985.7374
   7473509.58444   5823518.96844  23029902.7554   23029903.7094
  12388233.49944   9653167.96944  23102880.4334   23102882.3174
  -4720148.00244  -3678035.33144  23922877.0514   23922878.2454
 -15180279.85944 -11828771.14344  22213450.3604   22213451.2904
  -5879645.00944  -4581537.71844  22731335.2294   22731335.5044
 96  4  8  3 35  0.0000000  0  7G17G 6G16G20G22G23G26
 -19620187.83244 -15288436.08344  21330953.4664   21330953.8224
 -12262906.75944  -9555507.20044  20227984.2204   20227983.4654
   7565501.46144   5895200.93744  23047407.7724   23047407.4784
  12489057.20344   9731731.87944  23122066.5784   23122067.4744
  -4774181.94744  -3720139.70144  23912594.1834   23912595.5954
 -15260429.80444 -11891225.60744  22198197.9444   22198199.2274
  -5934838.89844  -4624545.92044  22720832.9174   22720832.5574
 96  4  8  3 35 30.0000000  0  7G17G 6G16G20G22G23G26
 -19658700.04044 -15318445.58244  21323624.8014   21323625.3594
 -12257178.70344  -9551043.78144  20229074.0354   20229073.4394
   7657700.74044   5967044.52344  23064953.3304   23064952.7314
  12589974.79444   9810368.98944  23141270.9634   23141271.4974
  -4827737.92844  -3761871.62744  23902403.3264   23902400.2734
 -15340235.55144 -11953411.86244  22183012.6154   22183013.9164
  -5989633.72844  -4667243.14944  22710405.5754   22710406.5104
 96  4  8  3 36  0.0000000  0  7G17G 6G16G20G22G23G26
 -19697033.55744 -15348315.83644  21316329.9664   21316330.2074
 -12250968.99944  -9546205.04444  20230255.8824   20230254.8854
   7750112.34444   6039053.58044  23082538.6554   23082539.2634
  12690995.92444   9889086.74244  23160494.1144   23160494.9854
  -4880819.07144  -3803233.55444  23892301.5264   23892299.9314
 -15419685.79644 -12015321.12544  22167894.1784   22167894.1144
  -6044041.49044  -4709638.79844  22700051.6834   22700052.1734
 96  4  8  3 36 30.0000000  0  7G17G 6G16G20G22G23G26
 -19735161.47544 -15378025.88944  21309074.4944   21309074.9304
 -12244304.52444  -9541011.95144  20231523.9394   20231523.4134
   7842732.74744   6111225.30344  23100162.9444   23100162.9194
  12792135.08244   9967896.45544  23179740.1394   23179741.2494
  -4933445.65744  -3844241.28144  23882287.0144   23882287.6364
 -15498784.21544 -12076956.24044  22152841.8014   22152842.0584
  -6098059.90844  -4751731.05544  22689772.7744   22689772.6544
 96  4  8  3 37  0.0000000  0  7G17G 6G16G20G22G23G26
 -19773070.75744 -15407565.57444  21301860.9064   21301861.1954
 -12237210.12444  -9535483.84544  20232874.1654   20232873.4624
   7935575.65244   6183570.40644  23117831.1404   23117830.8574
  12893398.06344  10046802.65844  23199010.0394   23199011.9844
  -4985620.40144  -3884896.88544  23872358.7544   23872358.4184
 -15577545.66544 -12138328.77044  22137853.9144   22137854.0924
  -6151678.66544  -4793511.87944  22679569.3134   22679568.8644
 96  4  8  3 37 30.0000000  0  7G17G 6G16G20G22G23G26
 -19810753.65544 -15436928.85944  21294689.8794   21294690.1194
 -12229707.86444  -9529637.92544  20234301.6624   20234301.1334
   8028638.23044   6256086.70144  23135540.0634   23135540.4444
  12994788.94144  10125808.52744  23218303.5944   23218304.9784
  -5037345.24944  -3925201.95544  23862516.3544   23862516.1494
 -15655987.90344 -12199452.56544  22122927.0584   22122927.3874
  -6204891.17744  -4834976.15944  22669443.1024   22669442.1994
 96  4  8  3 38  0.0000000  0  7G17G 6G16G20G22G23G26
 -19848208.34344 -15466114.31644  21287562.6174   21287562.8384
 -12221795.29144  -9523472.28344  20235807.6654   20235806.8834
   8121931.10244   6328782.43844  23153293.4804   23153294.0704
  13096321.72344  10204924.97244  23237624.6644   23237625.7364
  -5088604.67744  -3965144.35544  23852762.9334   23852762.9394
 -15734109.73044 -12260326.68644  22108060.9714   22108060.9804
  -6257688.44044  -4876116.86344  22659396.4464   22659395.9034
 96  4  8  3 38 30.0000000  0  7G17G 6G16G20G22G23G26
 -19885447.94544 -15495132.16944  21280476.2394   21280476.4634
 -12213467.31644  -9516982.94744  20237392.1034   20237391.5894
   8215462.33044   6401663.90544  23171091.7544   23171091.5294
  13197974.37244  10284134.83044  23256969.1774   23256969.6264
  -5139391.62444  -4004718.58844  23843097.4124   23843095.3804
 -15811920.52744 -12320958.44344  22093253.9734   22093254.1134
  -6310067.64244  -4916931.79444  22649429.0094   22649429.2814
 96  4  8  3 39  0.0000000  0  8G17G 6G16G20G21G22G23G26
 -19922485.09744 -15523992.27144  21273428.0644   21273428.3804
 -12204693.54644  -9510146.23844  20239061.9394   20239061.0524
   8309231.54944   6474730.82044  23188935.6964   23188936.1534
  13299738.90944  10363431.86744  23276334.2614   23276334.6394
        -0.41254                  25596902.5774
  -5189703.31244  -4043922.49144  23833524.3544   23833524.5644
 -15889411.40244 -12381340.91044  22078507.6514   22078508.0244
  -6362038.05244  -4957428.19744  22639539.2224   22639538.0474
 96  4  8  3 39 30.0000000  0  8G17G 6G16G20G21G22G23G26
 -19959358.09744 -15552724.46244  21266411.5454   21266411.7494
 -12195480.26844  -9502967.05344  20240814.8864   20240814.3224
   8403194.32744   6547948.56944  23206816.0514   23206816.0034
  13401590.41144  10442796.67444  23295716.0824   23295716.4794
   -100176.07744                  25577839.0004
  -5239578.97844  -4082786.68544  23824032.5424   23824032.3704
 -15966607.22144 -12441493.47144  22063817.5644   22063817.9134
  -6413634.60544  -4997633.27344  22629720.2094   22629720.1714
 96  4  8  3 40  0.0000000  0  8G17G 6G16G20G21G22G23G26
 -19996097.02644 -15581352.19044  21259420.2344   21259420.6314
 -12185825.88844  -9495444.16344  20242652.2324   20242651.6394
   8497314.48444   6621288.95844  23224726.3904   23224727.3664
  13503510.81444  10522215.18944  23315110.5844   23315111.8774
   -200334.61744                  25558779.3674
  -5289035.92444  -4121324.55244  23814621.8084   23814621.3794
 -16043526.80044 -12501430.77544  22049180.3654   22049180.8754
  -6464881.71244  -5037566.06244  22619968.2824   22619967.5744
 96  4  8  3 40 30.0000000  0  7G17G 6G16G20G22G23G26
 -20032680.37844 -15609858.68544  21252458.5224   21252458.9564
 -12175713.81444  -9487564.62944  20244576.5004   20244575.8804
   8591581.41144   6694743.69844  23242664.8664   23242665.2364
  13605517.18944  10601700.66044  23334522.4854   23334524.0484
  -5338068.31044  -4159531.61044  23805290.4814   23805290.5074
 -16120152.58144 -12561139.14744  22034598.8264   22034599.5444
  -6515750.65444  -5077204.17344  22610288.7074   22610288.6324
 96  4  8  3 41  0.0000000  0  7G17G 6G16G20G22G23G26
 -20069063.23444 -15638208.94544  21245535.0984   21245534.9734
 -12165093.76444  -9479289.26944  20246597.3224   20246596.5094
   8686017.04044   6768329.87944  23260635.5294   23260635.3244
  13707663.47744  10681295.18544  23353958.7784   23353960.9804
  -5386625.18644  -4197368.13144  23796051.4834   23796050.9194
 -16196420.83444 -12620568.92744  22020085.5104   22020085.9994
  -6566188.16644  -5116506.11744  22600690.8624   22600690.2274
 96  4  8  3 41 30.0000000  0  7G17G 6G16G20G22G23G26
 -20105253.20444 -15666408.90844  21238648.2974   21238648.2384
 -12153987.01544  -9470634.65944  20248710.8474   20248710.0944
   8780613.00444   6842041.02544  23278637.5464   23278636.6494
  13809937.31644  10760989.08644  23373422.0174   23373423.4564
  -5434706.28644  -4234833.91944  23786901.4804   23786902.1284
 -16272334.49844 -12679722.40844  22005639.5534   22005640.1234
  -6616197.09544  -5155474.10644  22591174.1994   22591174.1404
 96  4  8  3 42  0.0000000  0  8G17G 6G16G20G21G22G23G26
 -20141238.58344 -15694449.45244  21231800.5904   21231800.7184
 -12142397.14044  -9461603.58444  20250916.2974   20250915.8334
   8875383.40144   6915888.08444  23296670.9564   23296671.1064
  13912317.91944  10840766.18644  23392904.2824   23392905.0874
        -0.28254         1.03854  25482642.1544   25482643.0474
  -5482303.74344  -4271922.85244  23777843.6054   23777844.3554
 -16347884.51544 -12738592.52744  21991262.7654   21991263.3174
  -6665769.71344  -5194102.09844  22581740.5024   22581739.6664
 96  4  8  3 42 30.0000000  0  8G17G 6G16G20G21G22G23G26
 -20176995.10244 -15722311.66044  21224996.4924   21224996.3444
 -12130317.07244  -9452190.54744  20253215.3674   20253214.5584
   8970358.27544   6989894.48144  23314743.5464   23314743.4854
  14014801.05744  10920623.16744  23412405.6484   23412406.2974
    -99858.30544    -77810.31944  25463638.9704   25463640.0704
  -5529406.71844  -4308626.46844  23768879.0424   23768879.2954
 -16423040.72744 -12797155.78144  21976960.9474   21976961.5384
  -6714886.74944  -5232375.10544  22572393.9934   22572394.0094
 96  4  8  3 43  0.0000000  0  8G17G 6G16G20G21G22G23G26
 -20212539.52844 -15750008.60244  21218232.5094   21218232.6224
 -12117766.94444  -9442411.22344  20255603.4284   20255602.8714
   9065539.55844   7064061.71344  23332855.9574   23332857.2084
  14117355.72744  11000535.89944  23431921.6214   23431922.2434
   -199655.22344   -155574.05744  25444648.0924   25444646.6604
  -5576024.39644  -4344951.93244  23760007.7494   23760007.2484
 -16497825.57544 -12855429.66644  21962729.7864   21962730.6074
  -6763587.12744  -5270323.45144  22563126.5334   22563125.9414
 96  4  8  3 43 30.0000000  0  8G17G 6G16G20G21G22G23G26
 -20247862.22844 -15777532.77344  21211510.8044   21211510.9904
 -12104750.44644  -9432268.49144  20258080.5564   20258079.4914
   9160943.25044   7138402.22744  23351010.0054   23351009.9794
  14219976.15744  11080499.87044  23451449.9984   23451450.3444
   -299382.39944   -233283.47744  25425669.6174   25425669.3004
  -5622163.85544  -4380904.73744  23751226.8184   23751228.3124
 -16572253.96244 -12913425.77744  21948566.1244   21948567.0224
  -6811868.30244  -5307945.14544  22553939.4174   22553938.9684
 96  4  8  3 44  0.0000000  0  8G17G 6G16G20G21G22G23G26
 -20282976.12244 -15804894.23944  21204828.7984   21204829.1724
 -12091285.42444  -9421776.27644  20260642.6684   20260642.0844
   9256553.63344   7212903.83744  23369204.4994   23369205.3364
  14322651.52844  11160506.65644  23470988.4454   23470987.5514
   -399027.58744   -310928.96344  25406707.7144   25406709.5444
  -5667837.03344  -4416494.22644  23742536.4054   23742536.8324
 -16646348.69744 -12971161.90644  21934466.7714   21934467.5114
  -6859736.42244  -5345244.97744  22544830.5704   22544830.1064
 96  4  8  3 44 30.0000000  0  8G17G 6G16G20G21G22G23G26
 -20317883.38544 -15832094.69244  21198186.1124   21198186.3944
 -12077361.64644  -9410926.59944  20263292.2614   20263291.6754
   9352368.16444   7287564.49944  23387436.8104   23387437.7134
  14425400.30144  11240570.65644  23490541.2564   23490541.2984
   -498568.43244   -388493.23344  25387765.4144
  -5713028.85844  -4451708.63944  23733935.9694   23733935.4024
 -16720104.89444 -13028634.24244  21920431.1694   21920432.1724
  -6907179.91644  -5382213.92944  22535801.9464   22535801.1564
 96  4  8  3 45  0.0000000  0  8G17G 6G16G20G21G22G23G26
 -20352605.00144 -15859150.48344  21191578.7324   21191578.8324
 -12062982.60244  -9399722.15844  20266028.5014   20266027.9934
   9448357.83044   7362361.62944  23405703.6954   23405704.2084
  14528224.69544  11320693.55344  23510107.7724   23510107.4264
   -598027.21444   -465993.51244  25368837.5424
  -5757743.53844  -4486551.23344  23725427.1564   23725428.8194
 -16793539.08044 -13085855.66344  21906457.6634   21906458.1254
  -6954192.74744  -5418847.28144  22526855.5494   22526855.8164
 96  4  8  3 45 30.0000000  0  8G17G 6G16G20G21G22G23G26
 -20387155.60644 -15886073.02144  21185004.0714   21185004.0044
 -12048151.40344  -9388165.37744  20268850.7924   20268850.2044
   9544493.16144   7437272.25744  23423997.6004   23423997.8714
  14631117.15244  11400869.48844  23529687.9794   23529689.0644
   -697418.22344                  25349921.0014
  -5801992.98544  -4521031.27944  23717008.2084   23717009.3134
 -16866648.59544 -13142824.09244  21892545.1274   21892545.5034
  -7000763.65744  -5455136.28544  22517993.6714   22517992.9334
 96  4  8  3 46  0.0000000  0  8G17G 6G16G20G21G22G23G26
 -20421519.07944 -15912849.74344  21178464.8394   21178465.0034
 -12032843.54644  -9376237.17744  20271763.6994   20271762.9534
   9640779.68844   7512300.72044  23442321.3064   23442321.3344
  14734095.53544  11481112.38344  23549282.7534   23549284.0014
   -796727.33844                  25331020.6134
  -5845749.42144  -4555127.19644  23708681.3224   23708680.0334
 -16939392.17244 -13199507.37844  21878702.5984   21878702.9724
  -7046865.49644  -5491059.77544  22509220.6934   22509220.4334
 96  4  8  3 46 30.0000000  0  8G17G 6G16G20G21G22G23G26
 -20455682.26244 -15939470.39244  21171964.1344   21171964.3324
 -12017039.62444  -9363922.43444  20274771.1884   20274770.6204
   9737209.14244   7587440.54944  23460670.1534   23460669.7554
  14837164.32244  11561425.72844  23568897.1524   23568897.1844
   -895968.76444                  25312135.2134
  -5889008.22044  -4588835.35144  23700449.9914   23700449.1884
 -17011751.86544 -13255891.53144  21864933.1954   21864933.6154
  -7092488.73844  -5526610.33944  22500539.0574   22500538.6864
 96  4  8  3 47  0.0000000  0  8G17G 6G16G20G21G22G23G26
 -20489653.47544 -15965941.45444  21165499.5054   21165499.4824
 -12000763.07144  -9351239.40744  20277868.5124   20277867.6004
   9833760.74444   7662675.55144  23479042.9894   23479044.7974
  14940293.17444  11641785.89044  23588521.2514   23588523.6624
   -995163.56344   -775449.86944  25293264.0534
  -5931792.55944  -4622173.79444  23692308.4624   23692309.5144
 -17083752.72944 -13311996.07944  21851232.1304   21851232.4924
  -7137664.68244  -5561812.35544  22491941.3994   22491941.2764
 96  4  8  3 47 30.0000000  0  8G17G 6G16G20G21G22G23G26
 -20523409.23644 -15992244.63544  21159075.9404   21159076.2714
 -11984003.10244  -9338179.69944  20281057.8244   20281057.1104
   9930465.13144   7738029.59144  23497445.2574   23497444.9364
  15043488.79844  11722198.09044  23608158.3954   23608160.4564
  -1094272.97844   -852677.89544  25274406.4194   25274402.7954
  -5974085.27144  -4655129.16044  23684259.8144   23684260.0534
 -17155382.55544 -13367811.50244  21837601.1934   21837601.0934
  -7182391.37944  -5596664.30844  22483430.6334   22483430.6264
 96  4  8  3 48  0.0000000  0  8G17G 6G16G20G21G22G23G26
 -20556957.89344 -16018386.43444  21152691.8064   21152692.1634
 -11966763.23044  -9324746.03744  20284338.4424   20284337.7944
  10027331.01044   7813509.49544  23515878.5904   23515879.5754
  15146755.10444  11802665.34844  23627809.6234   23627810.8484
  -1193288.73244   -929832.93644  25255565.1214   25255563.4154
  -6015883.93944  -4687699.59644  23676306.2444   23676304.5614
 -17226650.53344 -13423344.97344  21824039.2724   21824039.4834
  -7226679.83044  -5631174.76944  22475003.0184   22475002.8564
 96  4  8  3 48 30.0000000  0  8G17G 6G16G20G21G22G23G26
 -20590329.57444 -16044390.33044  21146341.3974   21146341.6134
 -11949065.50644  -9310955.60544  20287706.1134   20287705.6024
  10124345.33944   7889105.09044  23534339.1334   23534339.7884
  15250063.60844  11883165.49544  23647468.2744   23647469.1484
  -1292230.29044  -1006930.11644  25236738.0724   25236738.1784
  -6057210.05344  -4719901.74144  23668441.0114   23668440.9054
 -17297590.78044 -13478623.06444  21810539.8634   21810540.2384
  -7270549.73044  -5665359.09244  22466654.8774   22466654.4204
 96  4  8  3 49  0.0000000  0  8G17G 6G16G20G21G22G23G26
 -20623520.88844 -16070253.68344  21140025.4134   21140025.5724
 -11930884.23144  -9296788.37744  20291166.0404   20291165.4644
  10221544.28644   7964844.52444  23552837.3194   23552839.6374
  15353431.40344  11963711.83844  23667138.7624   23667139.4014
  -1391055.22444  -1083936.45044  25217932.1694   25217931.6294
  -6098041.51944  -4751718.41644  23660672.0004   23660672.5344
 -17368176.36244 -13533624.79444  21797107.6764   21797107.9104
  -7313965.29144  -5699189.38744  22458393.4654   22458392.6494
 96  4  8  3 49 30.0000000  0  8G17G 6G16G20G21G22G23G26
 -20656523.08344 -16095969.66644  21133745.0774   21133745.3764
 -11912191.03244  -9282222.25144  20294723.1934   20294722.6174
  10318938.63144   8040736.21244  23571370.7544   23571370.8634
  15456879.43344  12044320.71644  23686824.4704   23686824.9444
  -1489757.67644  -1160847.33444  25199150.3274   25199149.5334
  -6138363.49944  -4783138.09244  23652999.3994   23652999.6674
 -17438376.06244 -13588325.84144  21783749.1174   21783749.4854
  -7356885.62844  -5732633.80844  22450225.8494   22450226.1144
 96  4  8  3 50  0.0000000  0  8G17G 6G16G20G21G22G23G26
 -20689355.69044 -16121553.50644  21127497.6544   21127497.9424
 -11893011.47644  -9267277.15044  20298372.9474   20298372.1774
  10416493.82944   8116753.25744  23589934.4424   23589935.9254
  15560368.75844  12124961.75044  23706518.4044   23706520.5024
  -1588380.86344  -1237696.47544  25180382.9984   25180384.2194
  -6178208.28944  -4814185.95144  23645418.0884   23645418.3864
 -17508200.42244 -13642734.41844  21770462.0374   21770462.3714
  -7399317.11544  -5765697.29744  22442151.3834   22442150.8704
 96  4  8  3 50 30.0000000  0  8G17G 6G16G20G21G22G23G26
 -20722020.56944 -16147006.65344  21121281.8164   21121281.6784
 -11873358.02744  -9251962.78644  20302112.8854   20302112.2554
  10514189.76544   8192879.95444  23608525.3634   23608525.9614
  15663868.48744  12205610.90844  23726213.0824   23726213.5744
  -1686941.92044  -1314497.21044  25161626.5674   25161627.3984
  -6217593.36744  -4844875.61844  23637922.4674   23637921.2034
 -17577664.57844 -13696862.31144  21757243.0544   21757243.1324
  -7441263.33844  -5798382.64744  22434169.0684   22434167.8854
 96  4  8  3 51  0.0000000  0  7G17G 6G16G20G22G23G26
 -20754484.72544 -16172303.39044  21115103.9634   21115103.8884
 -11853219.84244  -9236270.70344  20305945.1754   20305944.4314
  10612034.36344   8269122.49944  23627145.2144   23627145.8044
  15767403.80844  12286287.82344  23745915.2544   23745915.3274
  -6256496.33144  -4875189.60944  23630518.7104   23630518.7504
 -17646753.83144 -13750698.07044  21744095.6024   21744096.0264
  -7482718.62844  -5830685.45044  22426280.3844   22426280.1794
 96  4  8  3 51 30.0000000  0  7G17G 6G16G20G22G23G26
 -20786735.30444 -16197433.70244  21108966.8064   21108966.4264
 -11832625.38444  -9220223.08644  20309864.1604   20309863.4064
  10710005.76544   8345463.82744  23645787.0124   23645786.5294
  15870961.80644  12366982.38244  23765622.2914   23765620.8134
  -6294917.77044  -4905128.37544  23623206.8834   23623205.5314
 -17715488.64644 -13804257.64644  21731015.7134   21731016.2584
  -7523707.61644  -5862624.90844  22418480.3084   22418479.2854
 96  4  8  3 52  0.0000000  0  7G17G 6G16G20G22G23G26
 -20818761.21444 -16222388.94544  21102872.5344   21102872.5234
 -11811574.45844  -9203819.77344  20313870.0024   20313869.3264
  10808119.86844   8421916.38844  23664458.8324   23664458.3964
  15974550.26444  12447700.69144  23785334.4534   23785335.1304
  -6332829.62644  -4934670.05544  23615992.6494   23615991.9984
 -17783863.15844 -13857536.46644  21718004.6644   21718005.5984
  -7564233.59644  -5894203.57244  22410769.0544   22410768.7264
 96  4  8  3 52 30.0000000  0  7G17G 6G16G20G22G23G26
 -20850586.31944 -16247187.71944  21096816.2894   21096815.9454
 -11790080.72644  -9187071.41744  20317960.1964   20317959.5704
  10906356.87744   8498464.69744  23683152.4564   23683152.8534
  16078171.80744  12528444.77644  23805052.1674   23805052.1874
  -6370226.80144  -4963810.70644  23608876.4024   23608876.5854
 -17851893.87644 -13910547.39144  21705058.7934   21705059.3514
  -7604323.32644  -5925442.32144  22403140.1394   22403139.1934
 96  4  8  3 53  0.0000000  0  8G17G 6G16G20G21G22G23G26
 -20882188.18344 -16271812.53544  21090802.8564   21090802.4154
 -11768113.65544  -9169954.22144  20322140.0954   20322139.5044
  11004731.87444   8575120.53244  23701871.4644   23701872.5734
  16181849.23944  12609232.40944  23824781.1634   23824782.2644
        -0.18654         0.57754  25068065.5324
  -6407073.25544  -4992522.20944  23601865.0694   23601865.5664
 -17919537.74444 -13963256.87344  21692186.7314   21692187.2244
  -7643950.77944  -5956320.83644  22395598.7314   22395598.5104
 96  4  8  3 53 30.0000000  0  8G17G 6G16G20G21G22G23G26
 -20913597.18744 -16296287.06544  21084825.6044   21084825.1664
 -11745681.85444  -9152474.90444  20326408.9194   20326408.3684
  11103225.44744   8651868.77144  23720614.2394   23720615.0224
  16285553.24344  12690040.74544  23844515.9064   23844515.6924
    -98019.97244    -76378.48044  25049416.0094   25049415.2024
  -6443393.58444  -5020823.75844  23594953.7514   23594953.9434
 -17986797.11744 -14015666.75044  21679387.9444   21679388.0964
  -7683123.46844  -5986844.99044  22388144.7694   22388144.2564
 96  4  8  3 54  0.0000000  0  8G17G 6G16G20G21G22G23G26
 -20944834.26344 -16320627.62744  21078881.6594   21078881.2984
 -11722766.24544  -9134618.58644  20330769.7094   20330769.0014
  11201833.88244   8728706.51144  23739379.0404   23739378.1744
  16389269.60944  12770858.70944  23864251.6824   23864253.6614
   -195906.23044   -152653.34944  25030789.2684   25030786.1694
  -6479207.09544  -5048730.34344  23588137.4394   23588138.5034
 -18053664.35544 -14067771.06944  21666663.6684   21666663.6084
  -7721842.01444  -6017015.26644  22380776.8644   22380777.0134
 96  4  8  3 54 30.0000000  0  8G17G 6G16G20G21G22G23G26
 -20975897.74044 -16344832.91844  21072970.3544   21072969.9974
 -11699353.23444  -9116374.68244  20335224.9454   20335224.1454
  11300555.54444   8805632.48844  23758165.6434   23758167.3444
  16492997.63444  12851685.75144  23883991.1634   23883991.4334
   -293649.88944   -228817.12944  25012190.0974   25012186.9954
  -6514531.57644  -5076255.92344  23581415.2224   23581415.8044
 -18120139.80144 -14119570.09444  21654013.8634   21654013.6894
  -7760093.64344  -6046821.71444  22373497.7784   22373497.3224
 96  4  8  3 55  0.0000000  0  8G17G 6G16G20G21G22G23G26
 -21006779.83244 -16368896.87044  21067093.5114   21067093.4614
 -11675428.07544  -9097731.70644  20339777.7154   20339777.0394
  11399404.59944   8882657.71044  23776976.7484   23776977.9424
  16596735.24544  12932520.29144  23903731.2364   23903733.3354
   -391250.23444   -304869.27544  24993617.7674   24993615.5724
  -6549383.42044  -5103413.18744  23574783.6264   23574783.0624
 -18186224.46844 -14171064.61744  21641438.3784   21641438.5584
  -7797859.89044  -6076249.92844  22366311.1884   22366310.8104
 96  4  8  3 55 30.0000000  0  8G17G 6G16G20G21G22G23G26
 -21037485.45044 -16392823.31144  21061250.5994   21061250.4244
 -11650997.12744  -9078694.60444  20344426.7154   20344425.9674
  11498396.50644   8959794.26044  23795812.9704   23795814.4764
  16700490.86344  13013368.84044  23923475.7644   23923477.0384
   -488714.66944   -380815.48744  24975070.5874   24975069.8514
  -6583774.79144  -5130211.67144  23568239.9864   23568238.3044
 -18251936.61944 -14222268.87044  21628933.5764   21628933.3204
  -7835138.49344  -6105298.17044  22359217.3254   22359216.2614
 96  4  8  3 56  0.0000000  0  8G17G 6G16G20G21G22G23G26
 -21068009.86144 -16416608.55244  21055441.8824   21055441.9494
 -11626066.77944  -9059268.35944  20349171.1174   20349170.3534
  11597531.97344   9037042.68944  23814678.2964   23814677.4024
  16804266.97244  13094233.37844  23943223.3874   23943222.4444
   -586061.53444   -456670.11244  24956543.9824   24956544.0064
  -6617690.32944  -5156639.34944  23561787.2104   23561784.5294
 -18317289.30144 -14273193.01344  21616497.3664   21616497.4984
  -7871917.98744  -6133957.49544  22352218.4224   22352217.9684
 96  4  8  3 56 30.0000000  0  8G17G 6G16G20G21G22G23G26
 -21098335.30844 -16440238.75544  21049670.9814   21049670.9304
 -11600655.13944  -9039467.08344  20354006.6944   20354005.9554
  11696817.35344   9114407.89144  23833571.7924   23833571.2964
  16908079.67044  13175126.44044  23962978.4624   23962979.3604
   -683303.44544   -532442.87444  24938038.4414   24938041.6594
  -6651109.30244  -5182680.10444  23555427.1424   23555426.3944
 -18382285.72544 -14323839.55544  21604128.7344   21604128.8834
  -7908177.97644  -6162212.01344  22345318.3134   22345317.9004
 96  4  8  3 57  0.0000000  0  8G17G 6G16G20G21G22G23G26
 -21128468.69744 -16463719.30844  21043936.9334   21043936.7564
 -11574774.49944  -9019300.35044  20358931.4754   20358930.8134
  11796243.19944   9191882.59744  23852492.5754   23852493.1774
  17011922.05844  13256042.62044  23982738.2534   23982738.5574
   -780469.06444   -608156.23344  24919545.9704   24919552.1734
  -6684021.65544  -5208326.06744  23549164.1794   23549163.0204
 -18446932.40744 -14374213.56944  21591827.0784   21591827.1354
  -7943925.58344  -6190067.27444  22338515.9154   22338515.0084
 96  4  8  3 57 30.0000000  0  8G17G 6G16G20G21G22G23G26
 -21158429.75544 -16487065.57544  21038235.4514   21038235.4464
 -11548452.07744  -8998789.37944  20363940.5954   20363940.0714
  11895777.30444   9269441.64444  23871432.7644   23871433.7034
  17115763.11744  13336957.75744  24002499.8034   24002499.7094
   -877581.42444   -683828.07744  24901066.4214   24901073.8254
  -6716420.07044  -5233571.56144  23542998.3784   23542998.9534
 -18511243.46344 -14424326.05644  21579588.6994   21579588.6364
  -7979183.99644  -6217541.33944  22331806.4614   22331805.4574
 96  4  8  3 58  0.0000000  0  8G17G 6G16G20G21G22G23G26
 -21188199.85644 -16510263.04844  21032570.3034   21032570.4784
 -11521665.64144  -8977916.83744  20369037.7884   20369037.2934
  11995421.25344   9347086.26944  23890394.1324   23890394.7554
  17219604.42744  13417873.09044  24022259.3284   24022259.7294
   -974618.72944   -759441.42944  24882598.2424   24882606.4334
  -6748290.52444  -5258405.66444  23536933.5104   23536934.9594
 -18575185.77644 -14474151.21644  21567420.9504   21567421.4374
  -8013940.72744  -6244624.48944  22325192.0844   22325192.0754
 96  4  8  3 58 30.0000000  0  8G17G 6G16G20G21G22G23G26
 -21217791.67244 -16533321.59544  21026939.0084   21026939.2924
 -11494411.14244  -8956679.56744  20374224.0744   20374223.3074
  12095157.08944   9424802.49544  23909373.5834   23909374.4304
  17323432.59044  13498778.18444  24042018.1484   24042018.8064
  -1071572.96144   -834989.96844  24864148.4124   24864158.8374
  -6779660.20744  -5282849.58444  23530963.5234   23530963.5354
 -18638757.39744 -14523687.51744  21555323.9104   21555324.3224
  -8048212.98544  -6271330.12044  22318670.6114   22318670.4924
 96  4  8  3 59  0.0000000  0  8G17G 6G16G20G21G22G23G26
 -21247203.16344 -16556239.62744  21021342.0024   21021342.3594
 -11466656.52244  -8935052.59644  20379505.5664   20379505.1064
  12194970.99744   9502579.56944  23928367.5234   23928368.8884
  17427240.53944  13579667.52844  24061771.5554   24061773.1974
  -1168422.29344   -910456.86244  24845718.9674   24845723.0404
  -6810524.69144  -5306899.82844  23525090.4904   23525091.2754
 -18701941.13844 -14572921.57844  21543300.1124   21543300.6944
  -8082005.16744  -6297661.66844  22312240.0104   22312239.4894
 96  4  8  3 59 30.0000000  0  8G17G 6G16G20G21G22G23G26
 -21276416.82444 -16579003.50844  21015783.0854   21015783.0454
 -11438394.34644  -8913030.12244  20384883.7524   20384883.1924
  12294862.88144   9580417.38444  23947375.8704   23947374.7454
  17531025.12544  13660538.65544  24081520.4914   24081519.4584
  -1265139.62444   -985820.92744  24827316.5844   24827320.3814
  -6840885.93144  -5330557.94644  23519313.0864   23519311.0104
 -18764722.47044 -14621842.07344  21531353.4394   21531353.8144
  -8115307.66044  -6323611.65044  22305902.5224   22305902.2454
 96  4  8  4  0  0.0000000  0  8G17G 6G16G20G21G22G23G26
 -21305446.08944 -16601623.70444  21010259.1074   21010258.8784
 -11409635.53444  -8890620.65844  20390356.6224   20390356.0944
  12394815.57444   9658302.63944  23966396.3244   23966396.0434
  17634772.22044  13741380.58244  24101261.7334   24101262.1434
  -1361727.67944  -1061084.20044  24808937.6234   24808939.0344
  -6870771.68844  -5353845.55944  23513625.7204   23513626.0614
 -18827118.04044 -14670461.97844  21519480.1354   21519480.2404
  -8148126.36644  -6349184.66044  22299657.6124   22299657.1504
 96  4  8  4  0 30.0000000  0  8G17G 6G16G20G21G22G23G26
 -21334269.29144 -16624083.32144  21004774.1054   21004774.1084
 -11380366.90744  -8867813.93644  20395925.9164   20395925.4034
  12494846.41444   9736248.77244  23985432.2204   23985430.7264
  17738501.45044  13822208.58444  24121001.6984   24121002.6234
  -1458156.45044  -1136223.40444  24790587.9234   24790585.0854
  -6900148.27944  -5376736.45644  23508035.6914   23508035.0004
 -18889118.30444 -14718773.85444  21507681.6604   21507681.8234
  -8180430.94144  -6374357.03244  22293510.4124   22293509.2264
 96  4  8  4  1  0.0000000  0  8G17G 6G16G20G21G22G23G26
 -21362880.55244 -16646377.79344  20999329.8484   20999329.8604
 -11350600.96744  -8844619.69844  20401590.6004   20401590.0064
  12594959.95944   9814259.32144  24004482.4514   24004483.3964
  17842209.41544  13903020.01344  24140736.9814   24140738.6384
  -1554431.17144  -1211242.62744  24772267.5904   24772263.8774
  -6929005.33744  -5399223.29544  23502545.0534   23502544.8524
 -18950725.93144 -14766779.77744  21495958.2674   21495958.4064
  -8212213.70344  -6399122.79544  22287461.7164   22287461.2654
 96  4  8  4  1 30.0000000  0  8G17G 6G16G20G21G22G23G26
 -21391277.05744 -16668504.93444  20993926.0114   20993925.6704
 -11320348.53544  -8821046.37744  20407347.2294   20407346.6084
  12695187.70244   9892358.86644  24023554.7314   24023556.7254
  17945904.30744  13983821.24344  24160469.4394   24160471.8344
  -1650555.14844  -1286144.40244  24753976.6734   24753969.1444
  -6957342.22144  -5421302.86744  23497152.6134   23497153.0174
 -19011933.82744 -14814474.22544  21484311.0244   21484311.3274
  -8243466.87344  -6423475.88144  22281514.5714   22281513.9664
 96  4  8  4  2  0.0000000  0  8G17G 6G16G20G21G22G23G26
 -21419453.19344 -16690460.35544  20988564.2264   20988564.2004
 -11289606.46644  -8797091.51544  20413197.2694   20413196.6284
  12795540.69344   9970555.98744  24042650.6554   24042652.4014
  18049598.95444  14064622.30644  24180202.1584   24180200.9204
  -1746523.66444  -1360924.96744  24735713.9144   24735709.2444
  -6985148.39444  -5442970.18944  23491861.2924   23491863.1664
 -19072723.26344 -14861842.59944  21472742.9434   21472743.0894
  -8274177.80044  -6447406.45344  22275670.7414   22275669.7494
 96  4  8  4  2 30.0000000  0  8G23G17G 6G16G20G21G22G26
 -19133097.78844 -14908887.66844  21461254.0224   21461254.0814
 -21447415.85844 -16712249.43344  20983242.9554   20983242.8254
 -11258386.43544  -8772764.22044  20419138.1814   20419137.6374
  12896018.94244  10048850.75644  24061772.2654   24061770.6894
  18153296.91544  14145425.92944  24199935.8334   24199937.0664
  -1842356.54444  -1435599.88844  24717475.7134   24717472.0544
  -7012429.75944  -5464228.41244  23486669.5894   23486670.6824
  -8304361.78144  -6470926.41144  22269926.4864   22269926.0814
 96  4  8  4  3  0.0000000  0  8G23G17G 6G16G20G21G22G26
 -19193082.32144 -14955628.84344  21449839.3064   21449839.5444
 -21475201.35744 -16733900.46844  20977955.6224   20977955.8054
 -11226710.82544  -8748081.92644  20425165.5234   20425165.0974
  12996588.70744  10127216.80444  24080909.7874   24080910.9744
  18256961.78844  14226203.78644  24219661.6434   24219664.1294
  -1938103.87244  -1510208.09644  24699256.6854   24699256.2694
  -7039217.75744  -5485102.16744  23481571.6544   23481572.7454
  -8334059.61944  -6494067.56844  22264275.6984   22264274.8994
 96  4  8  4  3 30.0000000  0  8G23G17G 6G16G20G21G22G26
 -19252670.11644 -15002060.87644  21438499.8254   21438500.1674
 -21502807.77544 -16755411.94544  20972702.3744   20972702.3734
 -11194571.09944  -8723037.98244  20431281.9964   20431281.3004
  13097255.18744  10205658.25344  24100066.0024   24100067.9924
  18360596.42044  14306958.07744  24239383.7874   24239383.8894
  -2033757.75244  -1584743.52644  24681054.5944   24681055.4194
  -7065504.14244  -5505585.05744  23476569.1054   23476570.1134
  -8363262.76744  -6516823.25644  22258718.4124   22258717.2604
 96  4  8  4  4  0.0000000  0  8G23G17G 6G16G20G21G22G26
 -19311854.66744 -15048178.69144  21427237.3274   21427237.5334
 -21530215.37044 -16776768.49644  20967486.8284   20967486.7184
 -11161931.29844  -8697604.37944  20437493.1134   20437492.2114
  13198020.38344  10284176.58244  24119240.0664   24119241.0884
  18464222.58644  14387705.75944  24259103.1224   24259103.7064
  -2129282.95644  -1659178.66644  24662876.8344   24662876.4384
  -7091254.80544  -5525650.50844  23471668.7324   23471669.9254
  -8391936.49344  -6539166.40644  22253261.7494   22253261.2164
 96  4  8  4  4 30.0000000  0  8G23G17G 6G16G20G21G22G26
 -19370670.60844 -15094009.27544  21416044.9324   21416045.3674
 -21557449.43444 -16797989.82644  20962304.5804   20962304.4184
 -11128789.78144  -8671779.82344  20443799.7544   20443799.1914
  13298867.23244  10362758.52544  24138431.6554   24138431.4034
  18567818.70544  14468430.05844  24278816.1914   24278815.5494
  -2224692.16544  -1733523.42144  24644719.7944   24644720.7744
  -7116482.35244  -5545308.32844  23466868.1714   23466867.6984
  -8420096.03444  -6561108.90244  22247903.0744   22247902.3054
 96  4  8  4  5  0.0000000  0  8G23G17G 6G16G20G21G22G26
 -19429118.67644 -15139553.20244  21404923.1754   21404923.3864
 -21584509.57544 -16819075.63544  20957155.0564   20957155.0524
 -11095139.92844  -8645559.16644  20450202.8104   20450201.8854
  13399790.81044  10441400.26644  24157636.4784   24157639.3314
  18671368.68144  14549118.34544  24298519.4424   24298521.2814
  -2319965.43144  -1807762.23044  24626588.9444   24626592.1554
  -7141191.81544  -5564562.44444  23462166.8544   23462165.8554
  -8447730.79444  -6582642.47444  22242643.9824   22242643.2134
 96  4  8  4  5 30.0000000  0  8G23G17G 6G16G20G21G22G26
 -19487195.79444 -15184808.08444  21393870.9994   21393871.1654
 -21611382.57244 -16840015.61844  20952041.2704   20952041.3394
 -11060979.06944  -8618940.32144  20456703.6684   20456702.9684
  13500815.37044  10520120.67544  24176860.9084   24176863.8234
  18774891.04544  14629785.15544  24318220.4154   24318220.7404
  -2415064.31844  -1881865.14644  24608491.7254   24608495.9244
  -7165374.24744  -5583405.88344  23457564.9594   23457565.4124
  -8474819.36444  -6603750.45044  22237489.1244   22237489.4594
 96  4  8  4  6  0.0000000  0  8G17G 6G16G20G21G22G23G26
 -21638074.01744 -16860814.14544  20946961.8254   20946961.7064
 -11026310.30544  -8591925.70644  20463300.5654   20463300.0104
  13601929.13944  10598910.66144  24196102.6024   24196102.8584
  18878380.33544  14710426.21444  24337913.2964   24337915.4024
  -2509993.34244  -1955835.70544  24590424.9484   24590430.1534
  -7189047.57044  -5601852.60944  23453060.4404   23453059.8514
 -19544909.78144 -15229780.00444  21382888.6734   21382888.9784
  -8501365.38344  -6624435.58044  22232438.0054   22232436.4554
 96  4  8  4  6 30.0000000  0  8G17G 6G16G20G21G22G23G26
 -21664596.82044 -16881481.25244  20941914.7314   20941914.7954
 -10991173.77044  -8564546.58844  20469987.0314   20469986.4704
  13703109.98144  10677752.87144  24215356.3064   24215356.9794
  18981804.07144  14791016.16744  24357594.2794   24357592.7434
  -2604786.09444  -2029700.08844  24572387.0364   24572394.2784
  -7212251.51444  -5619933.59444  23448644.5324   23448643.6474
 -19602269.32544 -15274475.73544  21371973.6824   21371973.6434
  -8527400.20344  -6644722.45344  22227483.6864   22227483.2044
 96  4  8  4  7  0.0000000  0  8G23G17G 6G16G20G21G22G26
 -19659254.90144 -15318880.06244  21361129.2004   21361129.4364
 -21690937.42144 -16902006.38144  20936902.4434   20936902.5424
 -10955583.81944  -8536814.16144  20476759.5094   20476758.8734
  13804353.51044  10756643.90644  24234622.7514   24234624.6784
  19085164.91844  14871557.11544  24377263.8944   24377262.2344
  -2699445.23144  -2103460.40544  24554374.5134   24554379.3764
  -7234967.51644  -5637634.36244  23444321.8104   23444322.7964
  -8552911.26444  -6664601.19144  22222628.6364   22222628.2084
 96  4  8  4  7 30.0000000  0  8G17G 6G16G20G21G22G23G26
 -21717103.29144 -16922395.35944  20931923.1134   20931923.0104
 -10919550.89944  -8508736.56544  20483616.4174   20483615.9564
  13905648.25544  10835574.88744  24253897.5154   24253897.8704
  19188453.34144  14952041.63744  24396918.6394   24396919.4004
  -2793993.32044  -2177134.13944  24536385.1124   24536385.1524
  -7257193.80144  -5654953.52644  23440091.8714   23440092.3834
 -19715856.30444 -15362985.03244  21350358.1574   21350358.1984
  -8577896.20644  -6684069.96244  22217875.1014   22217874.3414
 96  4  8  4  8  0.0000000  0  8G23G17G 6G16G20G21G22G26
 -19772036.87844 -15406762.08144  21339667.9204   21339668.0114
 -21743077.19044 -16942634.74444  20926980.5554   20926980.7774
 -10883050.31644  -8480294.55644  20490562.2884   20490561.7164
  14006979.42144  10914534.23544  24273181.0924   24273180.7814
  19291668.40444  15032468.96844  24416560.2974   24416560.0234
  -2888431.08944  -2250721.93944  24518414.7614   24518416.3814
  -7278913.39044  -5671877.87144  23435959.5824   23435958.3814
  -8602333.93144  -6703112.32944  22213224.4884   22213223.9734
 96  4  8  4  8 30.0000000  0  8G23G17G 6G16G20G21G22G26
 -19827783.83844 -15450201.25144  21329059.4464   21329059.1874
 -21768854.53244 -16962720.97144  20922075.5784   20922075.6264
 -10846082.19044  -8451488.23144  20497597.0594   20497596.2304
  14108345.67444  10993520.95744  24292471.0334   24292473.2194
  19394808.47244  15112837.88444  24436187.0094   24436187.2114
  -2982748.87444  -2324216.25244  24500467.2354   24500466.7484
  -7300105.41344  -5688391.14144  23431926.1524   23431926.6654
  -8626224.66444  -6721728.46644  22208678.1444   22208677.3734
 96  4  8  4  9  0.0000000  0  8G23G17G 6G16G20G21G22G26
 -19883107.94344 -15493310.92444  21318531.8434   21318531.6514
 -21794450.33344 -16982665.73844  20917204.7434   20917204.7434
 -10808639.87144  -8422312.40244  20504722.2084   20504721.5794
  14209745.21344  11072533.58144  24311766.2004   24311764.7344
  19497873.63044  15193148.41044  24455798.5884   24455794.8884
  -3076941.60944  -2397613.12844  24482542.8784   24482542.3544
  -7320766.33644  -5704490.54344  23427994.6584   23427994.7604
  -8649572.93744  -6739921.91344  22204234.9554   22204234.3164
 96  4  8  4  9 30.0000000  0  8G23G17G 6G16G20G21G22G26
 -19938006.46244 -15536088.97544  21308084.7514   21308084.8484
 -21819846.07744 -17002454.61844  20912372.0154   20912371.9194
 -10770687.76044  -8392739.34444  20511944.1864   20511943.6454
  14311202.28044  11151591.05044  24331072.2684   24331071.4574
  19600878.78844  15273412.17144  24475401.6564   24475402.9884
  -3170976.90444  -2470887.32144  24464648.9394   24464647.9384
  -7340897.51144  -5720177.15944  23424163.7114   23424164.0544
  -8672379.65044  -6757693.35244  22199895.0104   22199894.4164
 96  4  8  4 10  0.0000000  0  8G23G17G 6G16G20G21G22G26
 -19992500.57344 -15578551.90344  21297714.6154   21297714.8784
 -21845038.47744 -17022085.04844  20907577.8634   20907577.8384
 -10732228.68944  -8362771.24444  20519262.6244   20519261.8514
  14412720.10744  11230695.87644  24350390.7414   24350392.9914
  19703833.68844  15353636.80144  24494992.3504   24494989.9744
  -3264849.20644  -2544034.50344  24446786.1754   24446784.1484
  -7360498.03044  -5735450.29044  23420433.5134   23420433.4824
  -8694662.94644  -6775056.95244  22195654.8034   22195653.9364
 96  4  8  4 10 30.0000000  0  8G23G17G 6G16G20G21G22G26
 -20046596.72044 -15620704.72644  21287420.4564   21287420.5294
 -21870016.38544 -17041548.34444  20902824.8114   20902824.7224
 -10693258.27144  -8332404.68644  20526678.5564   20526678.0174
  14514335.39944  11309876.61644  24369727.1944   24369728.3584
  19806759.93744  15433839.06744  24514578.0294   24514577.4344
  -3358546.13244  -2617045.07344  24428955.3984   24428952.3344
  -7379559.31344  -5750303.21744  23416806.4154   23416806.1324
  -8716421.55544  -6792011.69744  22191513.5824   22191513.2324
 96  4  8  4 11  0.0000000  0  8G23G17G 6G16G20G21G22G26
 -20100282.76044 -15662537.98444  21277204.0764   21277204.2414
 -21894768.53844 -17060835.73044  20898114.7134   20898114.3684
 -10653762.47844  -8301628.75044  20534194.3134   20534193.7764
  14616070.84744  11389150.98544  24389086.2754   24389085.7774
  19909673.19644  15514031.28244  24534163.3664   24534163.3414
  -3452055.82944  -2689909.71944  24411160.4064   24411160.0744
  -7398068.12944  -5764725.69844  23413285.0364   23413285.3174
  -8737642.79344  -6808547.69844  22187476.2924   22187475.6444
 96  4  8  4 11 30.0000000  0  8G17G 6G16G20G21G22G23G26
 -21919340.31444 -17079982.55744  20893438.7824   20893438.8024
 -10613797.58844  -8270487.29344  20541799.3644   20541798.7774
  14717868.60444  11468473.90444  24408457.8354   24408453.6314
  20012521.23444  15594172.61444  24553733.4854
  -3545424.89344  -2762664.78844  24393391.8514   24393392.9224
  -7416070.21744  -5778753.30444  23409858.7574   23409858.3764
 -20153593.49344 -15704078.79744  21267059.5534   21267059.8044
  -8758362.40944  -6824692.83744  22183533.1204   22183532.5884
 96  4  8  4 12  0.0000000  0  8G23G17G 6G16G20G21G22G26
 -20206510.50144 -15745312.81144  21256989.8654   21256989.8144
 -21943728.29244 -17098986.16344  20888797.8564   20888797.7684
 -10573367.80844  -8238983.57644  20549492.9634   20549492.2204
  14819725.11944  11547842.68044  24427842.0134   24427838.5834
  20115307.88444  15674266.11744  24573293.7354
  -3638652.78344  -2835309.84144  24375649.7844   24375650.1804
  -7433554.55144  -5792377.44044  23406530.8214   23406531.6274
  -8778550.96544  -6840424.16044  22179691.1714   22179690.6114
 96  4  8  4 12 30.0000000  0  8G23G17G 6G16G20G21G22G26
 -20259029.46944 -15786236.66444  21246995.7164   21246995.6174
 -21967935.60144 -17117848.98744  20884191.5394   20884191.5744
 -10532471.15144  -8207116.05744  20557275.4184   20557274.6914
  14921631.58644  11627250.28344  24447234.1464   24447233.7044
  20218014.55844                  24592838.5424
  -3731733.98444  -2907840.58144  24357936.1854   24357938.2594
  -7450531.80844  -5805606.47144  23403301.0254   23403300.4384
  -8798201.29644  -6855736.08844  22175952.1204   22175951.0204
 96  4  8  4 13  0.0000000  0  6G23G26G17G 6G16G21
 -20311157.17344 -15826855.63644  21237076.4294   21237076.3014
  -8817307.26344  -6870623.83244  22172316.0474   22172315.6684
 -21991968.56244 -17136575.96144  20879618.3324   20879618.0914
 -10491110.56344  -8174887.03244  20565146.0194   20565145.3404
  15023567.99944  11706681.29944  24466632.0104   24466632.4494
  -3824667.21144  -2980256.01844  24340250.4954   24340253.0394
 96  4  8  4 13 30.0000000  0  7G23G17G 6G16G21G28G26
 -20362897.07144 -15867172.41844  21227230.5214   21227230.6094
 -22015818.67944 -17155160.45544  20875079.6014   20875079.6954
 -10449272.21844  -8142285.73344  20573107.4254   20573107.0994
  15125524.72944  11786128.05844  24486032.7084   24486033.6104
  -3917449.74744  -3052554.03644  24322596.2004   24322598.8854
         0.28914         0.30514  25353649.923    25353650.166
  -8835851.34744  -6885073.74944  22168787.3714   22168786.5974
 96  4  8  4 14  0.0000000  0  8G23G17G 6G16G22G21G28G26
 -20414235.49944 -15907176.36844  21217460.9564   21217460.9874
 -22039457.25044 -17173580.10944  20870581.1334   20870581.4124
 -10406919.85744  -8109283.90344  20581167.0974   20581166.4014
  15227534.53044  11865616.19344  24505444.2914   24505443.9124
        -0.89754        -0.18854  23394176.6094   23394176.0184
  -4010049.38044  -3124709.55844  24304976.2774   24304980.7654
   -105664.166 4    -82335.624 4  25333542.993    25333543.823
  -8853803.24644  -6899062.21544  22165371.3044   22165370.4974
 96  4  8  4 14 30.0000000  0  8G23G17G 6G16G22G21G28G26
 -20465209.75744 -15946896.55044  21207760.6924   21207760.8964
 -22062931.18644 -17191871.48144  20866114.0664   20866114.1934
 -10364090.53844  -8075910.41444  20589317.3584   20589316.7394
  15329563.98744  11945119.71644  24524860.4904   24524859.8244
    -15001.23644    -11688.76944  23391322.4364   23391321.8954
  -4102506.17944  -3196753.76944  24287381.5874   24287382.1644
   -211371.967 4   -164705.300 4  25313427.380    25313430.838
  -8871202.95644  -6912620.40644  22162059.9254   22162059.4034
 96  4  8  4 15  0.0000000  0  8G23G17G 6G16G22G21G28G26
 -20515814.43144 -15986328.74544  21198131.4444   21198131.2784
 -22086234.18944 -17210029.66344  20861679.7564   20861679.5904
 -10320785.87344  -8042166.52344  20597557.7514   20597557.1874
  15431604.19944  12024631.58344  24544278.3464   24544276.7194
    -29512.56244    -22996.28544  23388560.9434   23388560.7574
  -4194813.17344  -3268681.25344  24269818.1464   24269818.8894
   -317109.729 4   -247098.302 4  25293305.881    25293314.420
  -8888042.17844  -6925741.87344  22158855.7944   22158854.3974
 96  4  8  4 15 30.0000000  0  8G23G17G 6G16G22G21G28G26
 -20566014.51344 -16025445.67544  21188578.1624   21188578.3864
 -22109347.31944 -17228039.88944  20857281.4834   20857281.5194
 -10276984.99344  -8008035.97244  20605892.6664   20605891.6784
  15533677.69644  12104169.34944  24563703.3114   24563701.1294
    -43504.16944    -33898.82844  23385898.5204   23385898.1924
  -4286949.71144  -3340475.89544  24252284.6914   24252286.6504
   -422859.394 4   -329500.635 4  25273182.507    25273190.403
  -8904313.60244  -6938420.86644  22155759.2084   22155758.8184
 96  4  8  4 16  0.0000000  0  8G23G17G 6G16G22G21G28G26
 -20615798.52944 -16064238.39844  21179104.7684   21179104.9354
 -22132277.27744 -17245907.37444  20852917.9124   20852918.2994
 -10232702.68144  -7973530.28244  20614319.5654   20614318.8504
  15635788.92544  12183736.59344  24583134.1474   24583135.2494
    -56972.48844    -44393.62444  23383335.6304   23383336.1754
  -4378921.85144  -3412142.46644  24234781.7884   24234784.2224
   -528625.051 4   -411915.436 4  25253056.606    25253063.062
  -8920035.44744  -6950671.63944  22152767.8124   22152766.4234
 96  4  8  4 16 30.0000000  0  8G23G17G 6G16G22G21G28G26
 -20665169.08844 -16102708.94344  21169709.5954   21169709.8834
 -22155026.45044 -17263633.99044  20848589.1654   20848589.2114
 -10187957.06444  -7938663.57644  20622834.4194   20622833.8024
  15737916.77144  12263316.74544  24602567.8164   24602567.1614
    -69927.96044    -54488.81044  23380870.6534   23380870.1134
  -4470748.05444  -3483695.31344  24217308.9204   24217307.9914
   -634414.393 4   -494348.738 4  25232925.442    25232928.277
  -8935241.38144  -6962520.40544  22149873.9184   22149873.7024
 96  4  8  4 17  0.0000000  0  8G23G17G 6G16G22G21G28G26
 -20714110.73844 -16140845.27444  21160396.5624   21160396.7924
 -22177573.09444 -17281202.79644  20844298.7574   20844298.9864
 -10142722.78744  -7903416.10444  20631442.2574   20631441.6634
  15840077.89944  12342922.84744  24622006.7484
    -82350.32944    -64168.57344  23378506.1194   23378506.4234
  -4562406.96044  -3555117.77144  24199867.5384   24199868.1114
   -740213.797 4   -576789.790 4  25212791.002    25212793.086
  -8949926.82844  -6973963.59144  22147079.6914   22147078.3284
 96  4  8  4 17 30.0000000  0  8G23G17G 6G16G22G21G28G26
 -20762612.67444 -16178638.97344  21151166.9684   21151167.1584
 -22199922.59944 -17298617.98844  20840045.7204   20840045.6334
 -10096984.01844  -7867775.51844  20640145.9924   20640145.3744
  15942292.19844  12422570.44544  24641458.3684   24641459.4294
    -94225.95644    -73422.31144  23376245.7894   23376247.0754
  -4653900.64744  -3626411.53244  24182456.2824   24182455.6324
   -846018.856 4   -659235.241 4  25192656.397    25192661.495
  -8964080.47444  -6984992.37444  22144386.0894   22144385.2404
 96  4  8  4 18  0.0000000  0  8G23G26G17G 6G16G22G21G28
 -20810701.97344 -16216111.13744  21142016.0044   21142016.0364
  -8977700.59644  -6995605.43944  22141794.1404   22141793.5684
 -22222090.40344 -17315891.59544  20835827.1554   20835827.1964
 -10050764.78344  -7831760.54844  20648941.1984   20648940.6424
  16044525.86044  12502233.05044  24660912.9464   24660912.5474
   -105575.33444    -82265.98644  23374085.6834   23374086.1994
  -4745249.55744  -3697592.47944  24165072.9904   24165071.2104
   -951840.663 4   -741693.667 4  25172518.209    25172523.982
 96  4  8  4 18 30.0000000  0  8G23G17G 6G16G22G21G28G26
 -20858373.55544 -16253257.80744  21132944.4634   21132944.5624
 -22244055.24044 -17333007.03944  20831647.4304   20831647.3324
 -10004040.52044  -7795352.03844  20657832.5194   20657831.9534
  16146788.93844  12581918.54944  24680373.5034   24680373.4934
   -116380.48444    -90685.60444  23372029.3254   23372030.8024
  -4836427.37944  -3768640.08144  24147721.1624   24147721.6804
  -1057654.216 4   -824145.780 4  25152382.183    25152388.356
  -8990757.32144  -7005779.49644  22139309.5424   22139308.5954
 96  4  8  4 19  0.0000000  0  8G23G26G17G 6G16G22G21G28
 -20905636.98044 -16290086.43344  21123950.3664   21123950.1074
  -9003234.38544  -7015501.86644  22136935.1474   22136934.1964
 -22265843.81044 -17349985.13244  20827501.4284   20827501.1114
  -9956828.86844  -7758563.74944  20666816.4284   20666815.8724
  16249074.84544  12661621.87744  24699838.2994
   -126644.94544    -98683.87544  23370077.0614   23370077.0914
  -4927445.63044  -3839563.33844  24130400.0274   24130403.1314
  -1163467.735 4   -906597.890 4  25132246.765    25132250.019
 96  4  8  4 19 30.0000000  0  7G23G26G17G 6G16G22G21
 -20952491.82444 -16326596.68344  21115033.9454   21115034.0384
  -9015113.33244  -7024758.16644  22134674.6784   22134673.9794
 -22287437.93844 -17366811.71344  20823392.1914   20823391.7634
  -9909144.58544  -7721407.18344  20675890.4564   20675889.8174
  16351376.95044  12741337.84444  24719306.3634   24719305.3884
   -136372.13044   -106263.48844  23368226.4254   23368225.5914
  -5018300.47444  -3910359.26744  24113109.7744   24113113.3064
 96  4  8  4 20  0.0000000  0  8G23G26G17G 6G16G22G21G28
 -20998944.78444 -16362793.77544  21106194.3164   21106194.2464
  -9026395.24344  -7033549.25144  22132527.9654   22132527.5094
 -22308816.49844 -17383470.31244  20819323.9234   20819323.7744
  -9860982.09744  -7683877.98444  20685055.9124   20685055.3584
  16453699.94444  12821070.07144  24738777.1684   24738775.3674
   -145571.95044   -113432.17044  23366476.3334   23366475.3384
  -5108970.12744  -3981010.88244  24095856.1304   24095857.8354
        -0.25914         0.15614  25091981.175    25092006.881
 96  4  8  4 20 30.0000000  0  7G23G16G22G21G17G 6G26
 -21045002.94844 -16398683.23544  21097429.7974   21097429.7334
  16556054.79944  12900827.12644  24758254.3044   24758254.8024
   -154256.08544   -120199.04744  23364823.6454   23364823.4714
  -5199463.06144  -4051524.82344  24078636.7354   24078634.6494
 -22329993.11344 -17399971.56544  20815294.2754   20815293.8894
  -9812352.01744  -7645984.42544  20694309.4664   20694308.8854
  -9037095.62944  -7041887.19744  22130491.3484   22130491.0254
 96  4  8  4 21  0.0000000  0  7G23G26G16G22G21G17G 6
 -21090680.05644 -16434275.77144  21088737.8044   21088737.6064
  -9047221.18744  -7049777.21244  22128564.5994   22128563.9634
  16658429.28344  12980599.36844  24777734.9544   24777736.1674
   -162448.87344   -126583.03744  23363264.0924   23363263.1314
  -5289791.96444  -4121910.96344  24061449.3114   24061447.6484
 -22350981.78944 -17416326.37844  20811300.0074   20811299.6984
  -9763269.50644  -7607738.32344  20703649.8644   20703649.1484
 96  4  8  4 21 30.0000000  0  7G23G26G16G22G21G17G 6
 -21135967.88544 -16469564.96944  21080119.7694   21080119.8134
  -9056775.01444  -7057221.73544  22126746.3434   22126745.6224
  16760834.56344  13060395.68744  24797223.2344   24797224.5294
   -170147.34644   -132581.83244  23361798.8514   23361799.2674
  -5379928.83244  -4192147.43044  24044296.8034   24044296.9884
 -22371754.94144 -17432513.23844  20807346.9934   20807346.9374
  -9713701.13544  -7569113.63044  20713082.2034   20713081.4004
 96  4  8  4 22  0.0000000  0  7G23G26G16G22G21G17G 6
 -21180858.68144 -16504544.79044  21071577.2814   21071577.2954
  -9065764.41544  -7064226.42444  22125036.1594   22125035.5944
  16863269.02044  13140214.81044  24816715.3394   24816718.6084
   -177351.40444   -138195.38944  23360426.9324   23360426.1314
  -5469882.83344  -4262241.43244  24027179.4764   24027179.0704
 -22392337.83744 -17448551.84644  20803430.2524   20803430.1884
  -9663639.93444  -7530104.89744  20722608.5814   20722608.0204
 96  4  8  4 22 30.0000000  0  7G23G26G16G22G21G17G 6
 -21225334.71844 -16539201.42344  21063113.7224   21063113.6514
  -9074174.79644  -7070779.94744  22123435.3034   22123434.4984
  16965717.28644  13220044.68344  24836209.2444   24836211.8544
   -184052.67544   -143417.16244  23359151.6224   23359152.1614
  -5559652.90744  -4332192.10144  24010096.9654   24010098.0554
 -22412731.57544 -17464443.06444  20799549.5224   20799549.1514
  -9613084.43444  -7490711.00744  20732229.1574   20732228.5234
 96  4  8  4 23  0.0000000  0  7G23G26G16G22G21G17G 6
 -21269405.47844 -16573542.25444  21054727.3544   21054727.3704
  -9082031.88544  -7076902.32844  22121940.4664   22121939.3864
  17068139.63044  13299854.21044  24855699.6924   24855701.9944
   -190274.24044   -148265.12744  23357968.1974   23357968.8404
  -5649232.61744  -4401994.45444  23993049.5524   23993047.5194
 -22432951.67544 -17480198.97844  20795701.4594   20795701.3944
  -9562041.33244  -7450937.17944  20741942.1124   20741941.5874
 96  4  8  4 23 30.0000000  0  7G23G26G16G22G21G17G 6
 -21313057.07344 -16607556.46444  21046420.9284   21046420.8774
  -9089350.98344  -7082605.50344  22120547.5124   22120546.7984
  17170527.71444  13379637.11144  24875184.8394   24875184.9564
   -196010.13244   -152734.64844  23356876.9834   23356876.7264
  -5738618.41444  -4471645.69044  23976040.3654   23976040.8484
 -22453005.15744 -17495825.06644  20791885.3734   20791885.2554
  -9510520.90844  -7410791.40644  20751746.1884   20751745.6484
 96  4  8  4 24  0.0000000  0  7G23G26G16G22G21G17G 6
 -21356262.90344 -16641223.32644  21038198.7414   21038198.7734
  -9096095.97744  -7087861.33044  22119263.6564   22119263.1264
  17272905.55544                  24894665.5534
   -201235.65744   -156806.47944  23355883.5954   23355882.6774
  -5827793.26544  -4541132.53644  23959070.8584   23959071.7024
 -22472871.35344 -17511305.21244  20788105.0984   20788104.8524
  -9458518.69744  -7370270.22244  20761642.0384   20761641.1694
 96  4  8  4 24 30.0000000  0  7G23G26G17G 6G16G22G21
 -21399054.26444 -16674567.23244  21030055.9224   21030055.9614
  -9102295.57444  -7092692.17844  22118084.0074   22118082.9794
 -22492555.40344 -17526643.42844  20784359.3314   20784359.1244
  -9406063.41144  -7329395.99144  20771623.9454   20771623.5444
  17375254.20744                  24914141.1594
   -205974.30444   -160498.93544  23354980.7914   23354980.5634
  -5916773.10644  -4610467.44744  23942139.1774   23942138.9314
 96  4  8  4 25  0.0000000  0  8G23G26G17G 6G16G22G21G28
 -21441434.33044 -16707590.64744  21021991.2424   21021991.1854
  -9107966.36244  -7097110.94144  22117004.7954   22117003.8864
 -22512057.06144 -17541839.50944  20780648.2264   20780648.0544
  -9353167.80544  -7288178.64744  20781689.2944   20781688.6644
  17477589.57044                  24933617.3384
   -210224.48944   -163810.78144  23354171.6134   23354171.4744
  -6005580.05044  -4679667.65044  23925239.8544   23925240.1144
        -0.93014        -0.01314  24890655.007    24890673.975
 96  4  8  4 25 30.0000000  0  8G23G26G17G 6G16G22G21G28
 -21483399.12044 -16740290.47144  21014005.5484   21014005.5794
  -9113070.80144  -7101088.40544  22116034.2354   22116033.1114
 -22531350.05944 -17556873.00144  20776977.1154   20776976.5494
  -9299817.87544  -7246607.28944  20791841.5494   20791841.0224
  17579944.57944  13698663.36744  24953094.8844   24953093.9674
   -213945.32444   -166710.12444  23353464.3514   23353463.4654
  -6094230.52244  -4748745.91144  23908369.6604   23908370.3614
   -105778.904 4    -82424.274 4  24870526.491    24870544.033
 96  4  8  4 26  0.0000000  0  8G23G26G17G 6G16G22G21G28
 -21524957.51644 -16772673.62444  21006097.3454   21006097.4114
  -9117596.83244  -7104615.15344  22115172.8214   22115171.8724
 -22550424.94844 -17571736.54744  20773347.0804   20773346.8514
  -9245997.07844  -7204669.01044  20802083.5374   20802082.9504
  17682324.63744  13778440.09444  24972577.3544   24972572.3444
   -217131.95744   -169193.22444  23352858.7624   23352858.5844
  -6182730.46344  -4817706.84144  23891527.7984   23891530.4984
   -211527.212 4   -164825.417 4  24850402.925    24850408.912
 96  4  8  4 26 30.0000000  0  7G23G26G22G21G28G17G 6
 -21566118.37744 -16804747.01144  20998264.5844   20998264.4354
  -9121566.01544  -7107708.00444  22114417.3464   22114416.5114
   -219781.71944   -171257.96844  23352354.4424   23352353.7084
  -6271084.50744  -4886554.12644  23874715.0374   23874715.3784
   -317246.433 4   -247204.153 4  24830288.880    24830291.257
 -22569301.03444 -17586445.17644  20769755.2044   20769754.9284
  -9191710.24544  -7162367.58644  20812413.8614   20812413.4214
 96  4  8  4 27  0.0000000  0  7G23G26G17G 6G22G21G28
 -21606881.21944 -16836510.24144  20990507.6734   20990507.8944
  -9124967.00244  -7110358.10544  22113769.8774   22113768.9234
 -22587987.04944 -17601005.69844  20766199.5354   20766199.1554
  -9136951.32344  -7119698.30444  20822834.1954   20822833.6564
   -221884.98044   -172896.84944  23351953.8644   23351953.5344
  -6359281.51544  -4955279.03044  23857931.1144   23857931.7174
   -422930.940 4   -329555.636 4  24810174.901    24810178.367
 96  4  8  4 27 30.0000000  0  8G26G17G 6G16G22G21G28G23
  -9127774.16244  -7112545.47944  22113235.9814   22113234.7444
 -22606470.77644 -17615408.59544  20762682.3414   20762681.8454
  -9081697.65844  -7076643.49944  20833348.5174   20833348.0404
        -0.57454         0.35554  25031026.2364
   -223439.50844   -174108.17144  23351657.5444   23351658.2154
  -6447283.90144  -5023852.29144  23841185.6604   23841186.2194
   -528573.754 4   -411874.653 4  24790069.588    24790073.683
 -21647244.75444 -16867962.32744  20982826.8184   20982826.8594
 96  4  8  4 28  0.0000000  0  8G26G17G 6G16G22G21G28G23
  -9129986.38844  -7114269.27844  22112814.6654   22112814.0234
 -22624747.25844 -17629650.00144  20759204.3444   20759204.0264
  -9025942.16244  -7033197.66744  20843958.4694   20843958.0944
    102383.69244                  25050509.9724
   -224458.55144   -174902.25244  23351463.5214   23351464.1824
  -6535048.63944  -5092240.36544  23824483.5854   23824483.2534
   -634163.694 4   -494152.462 4  24769975.198    24769979.378
 -21687184.73644 -16899084.36644  20975226.2664   20975226.3434
 96  4  8  4 28 30.0000000  0  7G26G22G21G28G17G 6G23
  -9131608.35944  -7115533.13344  22112506.2834   22112505.6494
   -224957.12344   -175290.74144  23351369.1114   23351368.6454
  -6622576.13744  -5160443.57844  23807826.0654   23807829.3544
   -739712.254 4   -576398.103 4  24749889.736    24749892.444
 -22642829.86944 -17643740.34544  20755763.1334   20755763.0854
  -8969711.82444  -6989381.83344  20854659.0084   20854658.4424
 -21726714.82044 -16929887.00344  20967704.0714   20967704.0284
 96  4  8  4 29  0.0000000  0  7G26G22G21G28G17G 6G23
  -9132626.63844  -7116326.57044  22112312.4284   22112312.6044
   -224972.99144   -175303.11844  23351365.7354   23351366.1634
  -6709874.83844  -5228468.48844  23791212.5584   23791216.6044
   -845231.811 4   -658621.135 4  24729810.120    24729810.458
 -22660718.75044 -17657679.72544  20752358.9604   20752358.8224
  -8913005.34344  -6945194.98244  20865449.6324   20865449.2484
 -21765847.33544 -16960379.84944  20960257.5274   20960257.6134
 96  4  8  4 29 30.0000000  0  7G22G21G28G26G17G 6G23
   -224479.59044   -174918.63944  23351459.4614   23351459.9434
  -6796918.95944  -5296295.05044  23774650.3584   23774651.3614
   -950686.817 4   -740793.844 4  24709742.186    24709741.696
  -9133004.28944  -7116620.82644  22112240.4904   22112239.4434
 -22678378.05444 -17671440.20544  20748998.2854   20748998.2664
  -8855782.43844  -6900605.72244  20876338.8924   20876338.2934
 -21804533.22144 -16990524.68144  20952895.6834   20952895.6604
 96  4  8  4 30  0.0000000  0  7G26G22G21G28G17G 6G23
  -9132787.42644  -7116451.81044  22112281.9594   22112281.3244
   -223516.58344   -174168.23844  23351642.4544   23351643.5544
  -6883761.74544  -5363964.70344  23758126.2784   23758126.6284
  -1056115.598 4   -822946.075 4  24689679.086    24689678.302
 -22695864.39144 -17685065.91344  20745670.8534   20745670.6424
  -8798094.78544  -6855654.31044  20887316.5144   20887316.0854
 -21842805.82044 -17020347.47244  20945612.9254   20945612.6694
 96  4  8  4 30 30.0000000  0  7G26G22G21G28G17G 6G23
  -9131993.84344  -7115833.41344  22112432.9334   22112431.8144
   -222100.16044   -173064.53144  23351912.6284   23351913.6214
  -6970446.64544  -5431511.36844  23741630.9924   23741631.3034
  -1161536.879 4   -905092.495 4  24669617.855    24669617.640
 -22713194.70844 -17698570.05244  20742373.0444   20742372.7614
  -8739957.67144  -6810352.66744  20898379.6014   20898379.1334
 -21880690.05244 -17049867.63144  20938403.5784   20938403.3904
 96  4  8  4 31  0.0000000  0  7G26G22G21G28G17G 6G23
  -9130630.72644  -7114771.22844  22112691.9964   22112690.8054
   -220213.79644   -171594.64044  23352271.6534   23352271.9944
  -7056981.95544  -5498941.46044  23725162.8464   23725162.2584
  -1266944.871 4   -987228.585 4  24649559.738    24649560.327
 -22730366.45444 -17711950.61844  20739105.5964   20739105.3214
  -8681362.48644  -6764694.10044  20909530.0364   20909529.5214
 -21918176.74744 -17079078.02544  20931270.2224   20931269.9954
 96  4  8  4 31 30.0000000  0  6G26G22G21G17G 6G23
  -9128706.46344  -7113271.77644  22113058.5234   22113057.3794
   -217811.14044   -169722.44244  23352729.1804   23352728.4434
  -7143360.76444  -5566249.59644  23708726.1164   23708725.9774
 -22747363.70644 -17725195.22444  20735870.9534   20735870.4824
  -8622313.29444  -6718681.75944  20920766.5544   20920766.0194
 -21955255.85544 -17107970.81944  20924214.2584   20924214.1204
 96  4  8  4 32  0.0000000  0  6G26G22G21G17G 6G23
  -9126249.53644  -7111357.26844  22113526.0474   22113524.4954
   -214916.61244   -167466.97044  23353280.2124   23353279.8554
  -7229600.29144  -5633449.21244  23692315.2664   23692316.9994
 -22764207.82044 -17738320.50544  20732665.4864   20732665.0774
  -8562849.41844  -6672346.28744  20932082.4534   20932081.9724
 -21991969.99444 -17136579.22144  20917227.8324   20917227.6324
 96  4  8  4 32 30.0000000  0  7G26G28G22G21G17G 6G23
  -9123209.97544  -7108988.76744  22114104.8864   22114103.6364
        -0.52114        -0.01814  24589418.924    24589422.030
   -211464.62544   -164777.10344  23353936.5244   23353936.3094
  -7315635.31344  -5700489.45944  23675944.4224   23675943.9364
 -22780820.05544 -17751265.09344  20729504.3414   20729504.0694
  -8502910.65444  -6625640.77844  20943488.0674   20943487.6494
 -22028267.84844 -17164863.24644  20910320.6654   20910320.3134
 96  4  8  4 33  0.0000000  0  7G26G28G22G21G17G 6G23
  -9119629.86944  -7106199.05244  22114785.5484   22114784.2034
   -105251.546 4    -82013.748 4  24569391.978    24569392.279
   -207485.46244   -161676.47444  23354693.7144   23354693.0884
  -7401478.56444  -5767380.27644  23659609.1654   23659607.7044
 -22797224.64644 -17764047.88044  20726382.4614   20726382.3324
  -8442526.93444  -6578588.53844  20954978.7714   20954978.2724
 -22064183.44244 -17192849.40644  20903485.9794   20903485.7524
 96  4  8  4 33 30.0000000  0  7G26G28G22G21G17G 6G23
  -9115534.87144  -7103008.12444  22115564.4684   22115563.8804
   -210484.429 4   -164013.273 4  24549368.026    24549368.281
   -203035.81844   -158209.20344  23355540.3164   23355541.4454
  -7487149.32144  -5834136.70144  23643305.8954   23643304.6784
 -22813450.48744 -17776691.38344  20723294.7244   20723294.6044
  -8381725.78344  -6531211.02244  20966548.9674   20966548.5024
 -22099737.70544 -17220554.00444  20896720.3114   20896720.1684
 96  4  8  4 34  0.0000000  0  7G26G28G22G21G17G 6G23
  -9110872.16444  -7099374.82444  22116452.2184   22116451.2044
   -315651.538 4   -245961.596 4  24529356.834    24529355.520
   -198094.76644   -154359.03544  23356480.9934   23356481.3904
  -7572591.70644  -5900715.16644  23627047.1434   23627046.4164
 -22829450.28144 -17789158.74944  20720250.1804   20720249.8594
  -8320453.43744  -6483466.34544  20978208.6554   20978208.1514
 -22134872.57244 -17247931.80344  20890034.3854   20890034.1404
 96  4  8  4 34 30.0000000  0  7G 6G26G28G22G21G17G23
  -8258691.41344  -6435340.09444  20989961.3024   20989960.8834
  -9105627.26944  -7095287.87744  22117449.9034   22117449.0974
   -420737.328 4   -327846.759 4  24509356.980    24509358.429
   -192653.45744   -150119.05744  23357515.9674   23357515.6174
  -7657798.75344  -5967110.24144  23610831.2494   23610831.8204
 -22845203.19744 -17801433.74444  20717252.5664   20717252.2864
 -22169562.15644 -17274962.62644  20883432.8854   20883432.8854
 96  4  8  4 35  0.0000000  0  7G 6G26G28G22G21G17G23
  -8196448.47944  -6386839.10944  21001805.7964   21001805.2884
  -9099787.79444  -7090737.62144  22118561.1154   22118560.5834
   -525746.681 4   -409672.175 4  24489376.296    24489375.401
   -186724.05044   -145498.35244  23358643.5884   23358643.6704
  -7742784.61344  -6033332.95144  23594658.4144   23594659.1384
 -22860727.81144 -17813530.83044  20714298.2624   20714297.8824
 -22203799.16044 -17301640.78844  20876917.9804   20876918.0504
 96  4  8  4 35 30.0000000  0  7G 6G26G28G22G21G17G23
  -8133735.59844  -6337971.93844  21013739.8804   21013739.4414
  -9093336.31544  -7085710.47044  22119788.9934   22119788.2924
   -630676.204 4   -491435.350 4  24469409.146    24469409.221
   -180296.67844   -140489.47144  23359867.6044   23359869.3854
  -7827548.81844  -6099382.94544  23578527.5394   23578528.0214
 -22876033.36644 -17825457.21844  20711385.7904   20711385.2914
 -22237584.43344 -17327966.96044  20870489.0014   20870488.7234
 96  4  8  4 36  0.0000000  0  7G 6G26G28G22G21G17G23
  -8070569.19144  -6288751.37644  21025760.1644   21025759.7024
  -9086275.82044  -7080208.77044  22121132.5864   22121131.7424
   -735532.222 4   -573141.367 4  24449454.497    24449455.576
   -173359.66944   -135083.97244  23361188.2764   23361187.9164
  -7912096.64344  -6165264.35044  23562438.9274   23562440.5194
 -22891126.57844 -17837218.14844  20708513.8354   20708513.5594
 -22270940.60344 -17353958.76244  20864141.3704   20864141.4784
 96  4  8  4 36 30.0000000  0  7G 6G26G28G22G21G17G23
  -8006962.51544  -6239187.74944  21037864.1174   21037863.7554
  -9078608.77544  -7074234.44644  22122590.9824   22122590.5124
   -840319.674 4   -654793.908 4  24429513.739    24429514.650
   -165912.84144   -129281.24744  23362604.8824   23362604.0234
  -7996433.64044  -6230981.46544  23546391.0164   23546391.3974
 -22906025.44744 -17848827.64644  20705678.4984   20705678.2674
 -22303883.38144 -17379628.44644  20857872.5144   20857872.1384
 96  4  8  4 37  0.0000000  0  6G 6G26G22G21G17G23
  -7942908.54744  -6189275.59044  21050053.2014   21050052.5634
  -9070327.61944  -7067781.58744  22124167.7604   22124166.8934
   -157943.31844   -123071.22244  23364121.2924   23364121.2924
  -8080536.96444  -6296516.51444  23530387.6714   23530388.1234
 -22920731.65344 -17860287.02544  20702879.9394   20702879.7474
 -22336412.81644 -17404976.04544  20851682.3114   20851682.2164
 96  4  8  4 37 30.0000000  0  6G 6G22G21G26G17G23
  -7878433.57444  -6139035.35144  21062322.1584   21062321.7674
   -149485.25244   -116480.51744  23365730.9994   23365730.1974
  -8164422.72144  -6361882.02144  23514423.7404   23514425.9174
  -9061464.86544  -7060875.52944  22125854.0254   22125853.3824
 -22935266.42044 -17871612.81244  20700113.9384   20700113.8284
 -22368558.22844 -17430024.40244  20845565.2014   20845564.9014
 96  4  8  4 38  0.0000000  0  6G 6G26G22G21G17G23
  -7813518.21344  -6088451.95144  21074675.4624   21074675.1324
  -9052021.69344  -7053517.20344  22127650.8454   22127649.8794
   -140543.46944   -109512.89344  23367432.3824   23367432.5244
  -8248078.82444  -6427068.56744  23498503.9244   23498506.5454
 -22949608.80744 -17882788.69344  20697384.8234   20697384.3874
 -22400295.95144 -17454755.07744  20839525.8374   20839525.4774
 96  4  8  4 38 30.0000000  0  6G 6G26G22G21G17G23
  -7748139.23244  -6037507.29144  21087116.2664   21087115.9164
  -9041990.30044  -7045700.51344  22129559.6364   22129558.4554
   -131108.20844   -102160.75244  23369228.1844   23369227.6894
  -8331500.43044  -6492072.38044  23482629.4234   23482631.6574
 -22963745.07544 -17893803.95944  20694694.7374   20694694.4094
 -22431612.88744 -17479157.87244  20833566.3784   20833565.9394
 96  4  8  4 39  0.0000000  0  7G 6G26G28G22G21G17G23
  -7682302.22044  -5986205.73144  21099644.9114   21099644.4044
  -9031380.50544  -7037433.12444  22131578.1624   22131577.7084
        -0.01514        -0.73114  24330022.008    24330023.772
   -121188.40044    -94431.01044  23371115.1714   23371115.5834
  -8414710.91744  -6556911.69844  23466796.3174   23466797.4154
 -22977684.56444 -17904665.89544  20692042.1674   20692041.9594
 -22462516.68944 -17503238.74044  20827685.4394   20827685.5774
 96  4  8  4 39 30.0000000  0  7G 6G26G28G22G21G17G23
  -7616026.17144  -5934562.07244  21112256.6234   21112256.2404
  -9020217.22644  -7028734.46544  22133702.4334   22133701.9114
   -104338.792 4    -81303.670 4  24310167.384    24310168.940
   -110802.98244    -86338.46044  23373090.6124   23373091.2304
  -8497740.44644  -6621610.01444  23450995.9654   23450996.3264
 -22991452.97644 -17915394.52544  20689422.1154   20689421.7664
 -22493025.45144 -17527011.78344  20821879.9964   20821879.6304
 96  4  8  4 40  0.0000000  0  6G 6G26G22G21G17G23
  -7549294.28544  -5882563.20444  21124955.4764   21124955.0354
  -9008487.58744  -7019594.45844  22135935.1404   22135934.6024
    -99928.22844    -77864.61644  23375161.3264   23375161.0604
  -8580583.80144  -6686163.25844  23435231.4534   23435232.0454
 -23005035.88644 -17925978.59944  20686837.4874   20686837.2464
 -22523139.86944 -17550477.54644  20816149.3024   20816149.2004
 96  4  8  4 40 30.0000000  0  7G 6G28G22G21G26G17G23
  -7482088.63344  -5830195.16444  21137744.3024   21137743.7944
        -0.95614        -0.51714  24270505.633    24270508.241
    -88539.28944    -68990.10544  23377328.7554   23377328.0404
  -8663237.55744  -6750568.76044  23419502.6284   23419503.5794
  -8996160.50644  -7009988.93744  22138280.9214   22138279.8804
 -23018431.44544 -17936416.69644  20684288.1664   20684287.7654
 -22552852.40444 -17573630.15644  20810495.3194   20810495.0204
 96  4  8  4 41  0.0000000  0  7G 6G28G22G21G26G17G23
  -7414410.77944  -5777459.17544  21150622.8914   21150622.2674
   -104071.941 4    -81094.784 4  24250702.086    24250703.626
    -76638.90244    -59717.07244  23379593.0934   23379592.8264
  -8745690.77744  -6814818.00144  23403811.9474   23403812.2804
  -8983235.25044  -6999917.30444  22140740.6354   22140739.2004
 -23031625.36544 -17946697.66644  20681777.4494   20681777.2354
 -22582146.68344 -17596456.84744  20804920.9614   20804920.5984
 96  4  8  4 41 30.0000000  0  7G 6G28G22G21G26G17G23
  -7346299.51644  -5724385.46444  21163584.0054   21163583.2894
   -208079.380 4   -162139.531 4  24230910.782    24230910.177
    -64270.00644    -50078.96944  23381947.3254   23381945.8044
  -8827963.69344  -6878926.75344  23388155.9394   23388156.4424
  -8969754.12944  -6989412.52244  22143306.3134   22143304.8924
 -23044636.09844 -17956835.89844  20679301.8864   20679301.4904
 -22611059.33044 -17618986.16444  20799418.7324   20799418.4304
 96  4  8  4 42  0.0000000  0  7G 6G28G22G21G26G17G23
  -7277735.46144  -5670958.93444  21176631.6914   21176631.0204
   -312003.790 4   -243119.542 4  24211134.304    24211134.462
    -51427.13644    -40071.53244  23384390.6904   23384389.9054
  -8910039.64544  -6942882.02544  23372538.7534   23372538.3124
  -8955685.00344  -6978449.54944  22145982.7474   22145982.2324
 -23057441.78944 -17966814.35744  20676864.8704   20676864.5564
 -22639578.40244 -17641208.79744  20793991.5904   20793991.4174
 96  4  8  4 42 30.0000000  0  6G 6G22G21G26G17G23
  -7208714.48844  -5617176.35744  21189765.9184   21189765.5854
    -38107.22544    -29692.36144  23386925.5524   23386923.8224
  -8991896.68644  -7006666.71644  23356961.7384   23356961.5124
  -8941021.98144  -6967023.80844  22148772.8424   22148772.0124
 -23070035.14944 -17976627.35544  20674468.4314   20674468.2724
 -22667686.16644 -17663110.93544  20788643.1514   20788642.9534
 96  4  8  4 43  0.0000000  0  7G 6G28G22G21G26G17G23
  -7139280.61144  -5563072.03744  21202978.5934   21202978.0924
        -0.35014         0.33014  24171628.590    24171629.017
    -24353.30344    -18975.03644  23389542.9724   23389542.5404
  -9073540.56444  -7070285.32244  23341425.3844   23341424.8514
  -8925802.79144  -6955164.68444  22151668.9154   22151667.6764
 -23082440.36244 -17986293.75344  20672107.7404   20672107.4374
 -22695416.91944 -17684719.30244  20783365.8994   20783365.7334
 96  4  8  4 43 30.0000000  0  7G 6G28G22G21G26G17G23
  -7069416.32844  -5508632.34544  21216273.4394   21216273.2464
   -103674.693 4    -80784.842 4  24151901.150    24151900.487
    -10141.70844     -7901.06444  23392246.6794   23392246.5414
  -9154954.24144  -7133724.54044  23325931.8374   23325931.6864
  -8909995.67644  -6942847.43844  22154677.4824   22154676.5234
 -23094662.41144 -17995817.41644  20669781.9784   20669781.6434
 -22722769.03244 -17706032.62244  20778161.2604   20778160.8254
 96  4  8  4 44  0.0000000  0  7G 6G28G22G21G26G17G23
  -6999094.60444  -5453836.21144  21229654.9224   21229654.5894
   -207225.452 4   -161473.696 4  24132195.985    24132196.657
      4563.73644      3557.73944  23395044.6104   23395045.1784
  -9236106.92744  -7196960.38144  23310488.9874   23310489.7914
  -8893567.29644  -6930046.10744  22157803.7634   22157802.7044
 -23106681.46444 -18005182.90544  20667494.8384   20667494.4334
 -22749704.91744 -17727021.60244  20773035.3204   20773034.8794
 96  4  8  4 44 30.0000000  0  7G 6G28G22G21G26G17G23
  -6928360.29044  -5398718.57744  21243115.2284   21243114.6544
   -310684.335 4   -242090.991 4  24112508.666    24112509.639
     19734.60344     15379.19144  23397931.9334   23397931.7554
  -9317029.19644  -7260016.68744  23295089.9734   23295089.9424
  -8876579.20544  -6916808.62244  22161036.2964   22161035.5094
 -23118523.67344 -18014410.59444  20665241.4254   20665241.1374
 -22776251.66244 -17747707.35944  20767983.5104   20767983.1674
 96  4  8  4 45  0.0000000  0  7G 6G28G22G21G26G17G23
  -6857223.02644  -5343286.95444  21256652.2814   21256651.7794
   -414056.196 4   -322640.454 4  24092836.909    24092839.493
     35366.33044     27559.74444  23400906.9954   23400906.5724
  -9397735.20744  -7322904.48544  23279732.7074   23279732.3084
  -8859039.86044  -6903141.58044  22164373.5364   22164373.0114
 -23130194.22444 -18023504.52144  20663020.3604   20663020.2604
 -22802412.93144 -17768092.75144  20763005.2414   20763004.8764
 96  4  8  4 45 30.0000000  0  7G 6G28G22G21G26G17G23
  -6785672.01044  -5287532.92044  21270267.8274   21270267.2314
   -517333.327 4   -403116.145 4  24073183.149    24073186.368
     51472.83844     40110.26744  23403971.9064   23403971.4864
  -9478223.45544  -7385622.58444  23264415.8194   23264414.9684
  -8840947.07444  -6889043.30644  22167816.8444   22167815.3344
 -23141670.43744 -18032447.01844  20660836.7564   20660836.5124
 -22828167.80344 -17788161.46944  20758104.2664   20758104.0264
 96  4  8  4 46  0.0000000  0  7G 6G28G22G21G26G17G23
  -6713718.40944  -5231465.18444  21283960.4594   21283960.1344
   -620520.105 4   -483521.424 4  24053548.288    24053548.938
     68045.56944     53024.07644  23407126.1514   23407126.0674
  -9558502.95944  -7448178.02644  23249137.9504   23249139.3854
  -8822323.56544  -6874531.45944  22171360.9284   22171359.2544
 -23152940.82244 -18041229.13344  20658692.1114   20658691.6374
 -22853515.32144 -17807912.76744  20753280.8174   20753280.4204
 96  4  8  4 46 30.0000000  0  7G 6G28G22G21G26G17G23
  -6641343.41244  -5175069.10344  21297732.6584   21297732.1544
   -723607.135 4   -563848.949 4  24033931.555    24033931.079
     85091.21144     66306.39844  23410369.1304   23410368.5984
  -9638565.53344  -7510564.44244  23233902.6594   23233903.2774
  -8803162.80044  -6859600.99044  22175006.9004   22175006.2474
 -23163997.60544 -18049844.80144  20656587.9984   20656587.8154
 -22878452.36744 -17827344.21244  20748535.3844   20748535.4544
 96  4  8  4 47  0.0000000  0  7G 6G28G22G21G26G17G23
  -6568530.76544  -5118331.98444  21311589.0364   21311588.2344
   -826570.718 4   -644080.284 4  24014337.808    24014336.998
    102628.07044     79971.49144  23413706.4444   23413706.8324
  -9718382.70044  -7572759.61744  23218713.8404   23218714.8104
  -8783422.63844  -6844219.04744  22178763.3214   22178762.4904
 -23174830.51144 -18058286.02044  20654526.6734   20654526.5164
 -22902963.32344 -17846443.64544  20743871.0244   20743870.6414
 96  4  8  4 47 30.0000000  0  7G 6G28G22G21G26G17G23
  -6495265.67244  -5061242.30144  21325530.2884   21325529.5994
   -929390.896 4   -724199.890 4  23994771.502    23994771.429
    120669.52744     94029.76844  23417139.7194   23417139.1834
  -9797941.36444  -7634753.35544  23203575.7414   23203575.2434
  -8763088.07244  -6828373.92444  22182632.8234   22182631.9544
 -23185424.23944 -18066540.86544  20652510.5454   20652510.3154
 -22927031.54444 -17865198.08544  20739291.0574   20739290.8954
 96  4  8  4 48  0.0000000  0  7G 6G28G22G21G26G17G23
  -6421573.83044  -5003820.10144  21339553.5474   21339552.9644
  -1032088.715 4   -804224.127 4  23975228.950    23975229.200
    139189.95444    108461.26344  23420664.0444   23420663.1724
  -9877271.04344  -7696568.68944  23188479.3514   23188479.9544
  -8742184.39244  -6812085.32444  22186610.4884   22186608.9624
 -23195818.88844 -18074640.58444  20650532.3214   20650532.0904
 -22950692.26744 -17883634.98244  20734788.2854   20734788.0114
 96  4  8  4 48 30.0000000  0  7G 6G28G22G21G26G17G23
  -6347445.96144  -4946058.13644  21353659.8984   21353658.8474
  -1134652.330 4   -884143.836 4  23955711.760    23955712.899
    158185.31544    123262.86444  23424278.9824   23424278.6284
  -9956355.78744  -7758193.14544  23173430.6284   23173430.6344
  -8720692.51144  -6795338.39944  22190700.3874   22190699.2724
 -23206004.06944 -18082577.09144  20648594.4834   20648594.0224
 -22973940.89544 -17901750.77144  20730364.6774   20730364.2294
 96  4  8  4 49  0.0000000  0  7G 6G28G22G21G26G17G23
  -6272901.44144  -4887971.51744  21367845.1244   21367844.5774
  -1237080.171 4   -963957.698 4  23936221.165    23936221.553
    177642.07344    138423.96044  23427981.1424   23427981.4814
 -10035203.46544  -7819632.88344  23158425.8834   23158426.6624
  -8698594.09344  -6778118.85544  22194905.4524   22194904.2784
 -23215971.06444 -18090343.57844  20646697.9004   20646697.2754
 -22996782.16744 -17919549.14744  20726017.7194   20726017.3034
 96  4  8  4 49 30.0000000  0  7G 6G28G22G21G26G17G23
  -6197926.54244  -4829549.53344  21382111.9674   21382111.5884
  -1339364.381 4  -1043659.635 4  23916756.934    23916758.000
    197560.59944    153944.88944  23431770.5604   23431772.8824
 -10113819.66044  -7880892.23644  23143465.6644   23143466.2414
  -8675891.52744  -6760428.52444  22199225.7994   22199224.7684
 -23225703.74344 -18097927.48044  20644845.6034   20644845.2024
 -23019212.01544 -17937026.94344  20721749.7614   20721749.4564
 96  4  8  4 50  0.0000000  0  7G 6G28G22G21G17G23G26
  -6122524.42244  -4770794.64444  21396460.9804   21396460.4854
  -1441516.352 4  -1123258.530 4  23897318.320    23897319.054
    217913.17544    169804.05044  23435643.2004   23435645.1424
 -10192219.22844  -7941982.77844  23128546.7484   23128548.2964
 -23235213.24144 -18105337.47444  20643036.2194   20643035.7064
 -23041262.82044 -17954209.37444  20717553.4184   20717552.9694
  -8652584.80844  -6742267.42744  22203661.0194   22203659.7564
 96  4  8  4 50 30.0000000  0  7G 6G28G22G21G17G23G26
  -6046689.27044  -4711702.32144  21410891.9114   21410891.3484
  -1543526.791 4  -1202747.146 4  23877905.957    23877907.114
    238710.21444    186009.53244  23439601.7374   23439602.5814
 -10270396.08044  -8002899.78844  23113669.9134   23113670.7464
 -23244487.13944 -18112563.88344  20641271.3634   20641270.8094
 -23062921.91544 -17971086.57844  20713431.8844   20713431.4924
  -8628651.85744  -6723618.37144  22208215.4154   22208213.8744
 96  4  8  4 51  0.0000000  0  7G 6G28G22G21G17G23G26
  -5970430.44244  -4652279.87444  21425403.1614   21425402.8174
  -1645400.261 4  -1282129.069 4  23858520.223    23858520.581
    259953.42644    202562.65944  23443643.9744   23443644.6504
 -10348356.86744  -8063648.43544  23098834.2984   23098834.3184
 -23253545.38844 -18119622.26644  20639547.5414   20639547.0994
 -23084194.82944 -17987662.86144  20709383.8714   20709383.3154
  -8604104.96144  -6704490.90244  22212886.4524   22212884.8054
 96  4  8  4 51 30.0000000  0  7G 6G28G22G21G17G23G26
  -5893746.61344  -4592526.24944  21439995.7044   21439995.4834
  -1747140.293 4  -1361406.974 4  23839159.885    23839159.790
    281648.14644    219467.64644  23447771.7114   23447773.3644
 -10426114.41044  -8124238.71744  23084038.2774   23084037.7894
 -23262398.90044 -18126521.10944  20637862.9314   20637862.4064
 -23105094.26744 -18003948.12644  20705406.6704   20705406.5914
  -8578982.09844  -6684914.63444  22217667.0124   22217665.7974
 96  4  8  4 52  0.0000000  0  7G 6G28G22G21G17G23G26
  -5816647.10944  -4532448.73044  21454667.6184   21454667.4444
  -1848746.906 4  -1440580.938 4  23819824.092    23819824.569
    303797.63544    236726.99144  23451986.8494   23451987.3074
 -10503663.02244  -8184666.20244  23069280.9764   23069281.4964
 -23271054.98744 -18133266.10944  20636215.8354   20636215.1894
 -23125613.64844 -18019937.23444  20701502.0234   20701501.7264
  -8553289.47844  -6664894.40344  22222555.8864   22222555.5434
 96  4  8  4 52 30.0000000  0  7G 6G28G22G21G17G23G26
  -5739163.14644  -4472071.62444  21469411.9154   21469411.5204
  -1950230.048 4  -1519658.684 4  23800512.553    23800513.035
    326401.34344    254340.26644  23456288.1634   23456287.9994
 -10580999.82544  -8244928.62644  23054564.3724   23054564.6714
 -23279528.34544 -18139868.72244  20634603.2614   20634602.6944
 -23145750.83644 -18035628.53244  20697670.0684   20697669.7074
  -8527059.20844  -6644455.22844  22227547.7364   22227546.8604
 96  4  8  4 53  0.0000000  0  7G 6G28G22G17G21G23G26
  -5661284.21744  -4411386.74944  21484231.9354   21484231.4294
  -2051582.738 4  -1598634.784 4  23781225.240    23781226.505
    349457.38444    272306.00844  23460676.4474   23460677.7834
 -23287814.48844 -18146325.45144  20633026.2074   20633025.7834
 -10658119.75244  -8305022.05444  23039888.8894   23039889.3424
 -23165512.67844 -18051027.36044  20693909.3744   20693909.1794
  -8500313.57844  -6623614.47144  22232637.5834   22232636.0474
 96  4  8  4 53 30.0000000  0  7G 6G28G22G21G17G23G26
  -5583007.04444  -4350391.56244  21499128.0384   21499127.5124
  -2152795.862 4  -1677502.146 4  23761965.423    23761966.197
    372970.47944    290627.88344  23465150.3364   23465152.4334
 -10735016.29544  -8364941.42344  23025255.9704   23025256.8354
 -23295903.18844 -18152628.32944  20631487.1334   20631486.6504
 -23184883.06444 -18066121.15944  20690223.6284   20690223.1954
  -8473056.29844  -6602375.02144  22237824.2114   22237822.8364
 96  4  8  4 54  0.0000000  0  7G 6G28G22G21G17G23G26
  -5504320.39144  -4289077.28844  21514101.8674   21514101.2304
  -2253855.118 4  -1756249.585 4  23742734.659    23742735.307
    396948.15244    309311.78444  23469714.3524   23469714.1554
 -10811647.14644  -8424653.75644  23010673.2634   23010673.8644
 -23303792.39944 -18158775.76344  20629985.9304   20629985.5744
 -23203837.00644 -18080890.45144  20686616.6354   20686616.1264
  -8445259.70744  -6580715.33744  22243113.7754   22243112.4374
 96  4  8  4 54 30.0000000  0  7G 6G28G22G21G17G23G26
  -5425215.79844  -4227437.35344  21529154.5434   21529154.0814
  -2354752.739 4  -1834871.075 4  23723534.893    23723535.047
    421395.53344    328361.68844  23474365.6394   23474365.7444
 -10888011.94544  -8484158.78144  22996142.1554   22996141.1834
 -23311480.85144 -18164766.75644  20628522.8974   20628522.4634
 -23222385.63044 -18095343.90644  20683087.0664   20683086.5464
  -8416919.42444  -6558631.99444  22248506.7324   22248505.4314
 96  4  8  4 55  0.0000000  0  7G 6G28G22G17G21G23G26
  -5345686.17944  -4165466.23844  21544288.1544   21544287.8944
  -2455484.045 4  -1913362.971 4  23704365.840    23704366.496
    446309.98844    347775.51744  23479106.4794   23479106.7864
 -23318962.97944 -18170596.97144  20627098.9484   20627098.4854
 -10964114.89544  -8543459.75144  22981658.9544   22981660.1354
 -23240525.18644 -18109478.61644  20679635.1564   20679634.7184
  -8388024.95144  -6536116.80444  22254004.7444   22254004.3374
 96  4  8  4 55 30.0000000  0  7G 6G28G22G17G21G23G26
  -5265760.78944  -4103186.72244  21559497.5234   21559497.1984
  -2556059.381 4  -1991733.357 4  23685227.613    23685227.859
    471680.47444    367544.72844  23483934.5564   23483935.5414
 -23326254.53244 -18176278.69444  20625711.2184   20625711.0834
 -11039948.89244  -8602551.15844  22967228.7474   22967229.2634
 -23258257.74144 -18123296.18344  20676260.6624   20676260.0744
  -8358555.55344  -6513153.62744  22259612.6474   22259611.3254
 96  4  8  4 56  0.0000000  0  7G 6G28G22G17G21G23G26
  -5185441.86444  -4040600.55344  21574782.1284   21574781.4684
  -2656484.742 4  -2069986.867 4  23666117.093    23666118.028
    497487.01544    387653.73944  23488845.6404   23488845.8634
 -23333356.14644 -18181812.41644  20624359.8574   20624359.8324
 -11115525.97144  -8661442.36744  22952846.9064   22952847.3254
 -23275609.48044 -18136817.00944  20672958.8074   20672958.3794
  -8328503.02244  -6489736.04944  22265331.4854   22265329.8704
 96  4  8  4 56 30.0000000  0  7G 6G28G22G17G21G23G26
  -5104737.39644  -3977713.95844  21590139.3044   21590138.7714
  -2756746.159 4  -2148112.638 4  23647037.831    23647038.566
    523727.49744    408100.85344  23493838.9524   23493839.4704
 -23340243.31844 -18187179.03744  20623049.3384   20623049.3894
 -11190865.93344  -8720148.81344  22938510.4834   22938510.6594
 -23292578.45644 -18150039.57644  20669729.7394   20669729.3964
  -8297856.14544  -6465855.36144  22271163.0254   22271162.2654
 96  4  8  4 57  0.0000000  0  7G 6G28G22G17G21G23G26
  -5023656.28244  -3914533.87744  21605568.0404   21605567.6434
  -2856842.367 4  -2226109.652 4  23627990.070    23627991.003
    550389.03044    428876.07944  23498913.0554   23498912.4924
 -23346911.01144 -18192374.63744  20621780.7754   20621780.4884
 -11265960.21744  -8778663.81544  22924220.1254   22924220.8304
 -23309148.43844 -18162951.24144  20666576.4264   20666576.0794
  -8266608.28544  -6441506.36244  22277110.0844   22277108.8624
 96  4  8  4 57 30.0000000  0  7G 6G28G22G17G21G23G26
  -4942199.52144  -3851061.08044  21621069.5464   21621069.1734
  -2956773.748 4  -2303978.242 4  23608972.921    23608974.041
    577466.86244    449975.69244  23504065.8464   23504064.6764
 -23353360.88944 -18197400.51344  20620553.2184   20620553.1154
 -11340820.37144  -8836996.39244  22909974.9944   22909975.4504
 -23325327.60544 -18175558.37744  20663497.7784   20663497.3504
  -8234774.36444  -6416700.69844  22283167.3384   22283166.5714
 96  4  8  4 58  0.0000000  0  7G 6G28G22G17G21G23G26
  -4860365.95144  -3787294.67344  21636641.7844   21636641.3394
  -3056541.648 4  -2381719.466 4  23589988.249    23589989.096
    604946.50344    471388.39944  23509295.0464   23509295.7774
 -23359589.61044 -18202254.05044  20619367.6814   20619367.6084
 -11415476.77244  -8895170.19744  22895768.4734   22895768.8994
 -23341129.34444 -18187871.41544  20660490.9074   20660490.3384
  -8202384.75144  -6391462.03544  22289330.9624   22289329.8054
 96  4  8  4 58 30.0000000  0  7G 6G28G22G17G21G23G26
  -4778162.32444  -3723239.90144  21652284.6154   21652284.3134
  -3156140.602 4  -2459329.021 4  23571035.345    23571035.653
    632848.16244    493129.95444  23514604.4844   23514604.1514
 -23365589.22344 -18206929.07044  20618226.2024   20618226.2114
 -11489912.17844  -8953171.81044  22881604.0054   22881603.7734
 -23356535.99444 -18199876.59144  20657559.0354   20657558.6194
  -8169446.74044  -6365796.04644  22295599.0134   22295598.4474
 96  4  8  4 59  0.0000000  0  7G 6G28G22G17G21G23G26
  -4695551.80444  -3658868.07644  21668005.0374   21668004.5534
  -3255558.467 4  -2536797.466 4  23552116.591    23552117.274
    661186.44344    515211.71544  23519996.7734   23519996.0694
 -23371354.02644 -18211421.12744  20617129.3854   20617129.0994
 -11564098.84044  -9010979.59744  22867487.0754   22867486.5924
 -23371534.32844 -18211563.59644  20654705.0304   20654704.4714
  -8135949.22944  -6339694.08244  22301973.3114   22301971.9434
 96  4  8  4 59 30.0000000  0  7G 6G28G22G17G21G23G26
  -4612523.67844  -3594170.83344  21683804.2884   21683803.8124
  -3354786.946 4  -2614118.339 4  23533234.015    23533235.225
    689965.90544    537637.27144  23525473.3084   23525473.7854
 -23376878.22944 -18215725.70044  20616077.8294   20616077.6344
 -11638047.01444  -9068601.55144  22853414.9734   22853415.3054
 -23386136.12044 -18222941.60144  20651925.9004   20651925.4704
  -8101890.69944  -6313154.95444  22308454.4644   22308453.8074
 96  4  8  5  0  0.0000000  0  7G 6G28G17G22G21G23G26
  -4529095.12044  -3529161.57344  21699681.3114   21699681.5154
  -3453829.954 4  -2691294.719 4  23514386.253    23514387.611
 -23382167.63244 -18219847.31144  20615071.5104   20615071.0724
    719178.39844    560400.24744  23531031.7974   23531031.3694
 -11711756.18344  -9126037.25544  22839388.2304   22839388.0124
 -23400348.06344 -18234015.82944  20649221.8314   20649221.3834
  -8067268.14744  -6286176.34344  22315042.6064   22315042.1324
 96  4  8  5  0 30.0000000  0  7G 6G28G17G22G21G23G26
  -4445258.88544  -3463834.64244  21715634.1584   21715633.6434
  -3552679.891 4  -2768320.621 4  23495576.058    23495576.624
 -23387226.47944 -18223789.26844  20614108.7844   20614108.5224
    748835.56144    583509.72744  23536674.9144   23536674.7954
 -11785207.96244  -9183272.41044  22825411.0334   22825411.3874
 -23414162.46644 -18244780.29444  20646592.8444   20646592.3964
  -8032070.97944  -6258749.96944  22321740.4874   22321739.4894
 96  4  8  5  1  0.0000000  0  7G 6G28G17G22G21G23G26
  -4361012.48844  -3398188.10444  21731665.4124   21731664.9734
  -3651330.375 4  -2845191.089 4  23476804.368    23476804.694
 -23392064.30544 -18227558.99644  20613188.5264   20613188.0744
    778934.73744    606963.60944  23542402.8714   23542402.3244
 -11858414.51244  -9240316.47644  22811480.4624   22811480.1534
 -23427593.54344 -18255246.06044  20644036.9744   20644036.7904
  -7996288.13144  -6230867.21644  22328549.9934   22328548.5614
 96  4  8  5  1 30.0000000  0  7G 6G28G17G22G21G23G26
  -4276405.87644  -3332260.88644  21747765.3394   21747764.9414
  -3749799.756 4  -2921920.464 4  23458065.510    23458066.813
 -23396700.24844 -18231171.41144  20612306.1794   20612305.7414
    809464.90244    630753.35544  23548212.1054   23548211.5704
 -11931406.58844  -9297193.40244  22797590.4924   22797590.4054
 -23440669.21444 -18265434.88544  20641548.8324   20641548.2944
  -7959947.73244  -6202550.00544  22335465.6954   22335463.9094
 96  4  8  5  2  0.0000000  0  7G 6G28G17G22G21G23G26
  -4191436.44644  -3266050.94244  21763934.8034   21763934.3494
  -3848077.232 4  -2998500.307 4  23439364.031    23439364.677
 -23401129.25644 -18234622.58244  20611463.3854   20611462.9824
    840439.19544    654889.16744  23554107.2484   23554106.1794
 -12004158.78544  -9353883.40644  22783746.0304   22783746.4824
 -23453368.71844 -18275330.59144  20639132.1054   20639131.8834
  -7923041.24044  -6173791.69344  22342488.2144   22342486.9434
 96  4  8  5  2 30.0000000  0  7G 6G28G17G22G21G23G26
  -4106091.83744  -3199548.66144  21780175.6904   21780175.0194
  -3946157.360 4  -3074926.361 4  23420699.668    23420701.300
 -23405352.53244 -18237913.44044  20610659.6014   20610659.2824
    871854.31744    679368.47844  23560084.3994   23560083.6384
 -12076664.19444  -9410381.10544  22769948.4854   22769948.8244
 -23465691.33744 -18284932.63044  20636787.2184   20636786.8454
  -7885561.24644  -6144586.49344  22349620.7154   22349619.4164
 96  4  8  5  3  0.0000000  0  7G 6G17G28G22G21G23G26
  -4020398.35744  -3132774.52144  21796481.8954   21796482.0614
 -23409384.79044 -18241055.46344  20609892.0144   20609891.7364
  -4044061.264 4  -3151215.098 4  23402069.466    23402070.567
    903675.52844    704164.23444  23566140.2274   23566140.0724
 -12148942.74044  -9466702.02944  22756194.4484   22756194.6954
 -23477664.30144 -18294262.20244  20634508.8824   20634508.4234
  -7847534.82644  -6114955.50944  22356856.3504   22356855.3794
 96  4  8  5  3 30.0000000  0  7G 6G28G17G22G21G23G26
  -3934347.07444  -3065721.58244  21812857.3694   21812857.4034
  -4141782.601 4  -3227361.571 4  23383473.643    23383474.765
 -23413200.70944 -18244028.90644  20609165.9644   20609165.6934
    935893.42644    729269.08544  23572270.3514   23572270.7424
 -12220977.31644  -9522832.85944  22742487.3544   22742487.3924
 -23489261.24644 -18303298.77944  20632302.1274   20632301.6554
  -7808979.84344  -6084912.65244  22364193.6514   22364192.2574
 96  4  8  5  4  0.0000000  0  7G 6G17G28G22G21G23G26
  -3847917.11344  -2998373.56644  21829304.1814   21829303.9554
 -23416790.04444 -18246825.78644  20608483.0664   20608482.7344
  -4239313.666 4  -3303359.777 4  23364914.006    23364915.203
    968498.16344    754675.35544  23578475.4104   23578475.9204
 -12292741.14344  -9578752.70744  22728830.2984   22728831.3184
 -23500472.32244 -18312034.66844  20630168.6444   20630168.1274
  -7769900.17244  -6054460.95844  22371629.9314   22371628.8234
 96  4  8  5  4 30.0000000  0  7G 6G28G17G22G21G23G26
  -3761103.54244  -2930726.63744  21845824.8604   21845824.1974
  -4336641.836 4  -3379199.909 4  23346392.528    23346393.986
 -23420141.10644 -18249436.99944  20607845.3404   20607845.0154
   1001496.35744    780388.23644  23584755.4674   23584755.6284
 -12364234.92044  -9634462.12744  22715225.9204   22715226.4654
 -23511301.61844 -18320473.06844  20628107.8004   20628107.4494
  -7730296.55044  -6023600.99344  22379166.5734   22379165.5134
 96  4  8  5  5  0.0000000  0  7G 6G28G17G22G21G23G26
  -3673905.27544  -2862779.93244  21862417.7144   21862417.2164
  -4433750.548 4  -3454869.022 4  23327914.230    23327914.142
 -23423234.35344 -18251847.32244  20607256.7284   20607256.3164
   1034906.41644    806422.04544  23591113.1704   23591114.6954
 -12435451.55844  -9689955.60644  22701674.0214   22701674.0294
 -23521733.86544 -18328602.08544  20626122.6984   20626122.2644
  -7690169.25344  -5992332.95644  22386802.2344   22386801.6854
 96  4  8  5  5 30.0000000  0  7G 6G17G28G22G21G23G26
  -3586346.45244  -2794552.28344  21879080.1494   21879079.6984
 -23426100.69344 -18254080.83344  20606711.1914   20606710.8934
  -4530658.060 4  -3530381.325 4  23309473.641    23309473.613
   1068711.75644    832763.83344  23597545.8064   23597546.8094
 -12506412.93744  -9745250.16444  22688169.8744   22688170.1274
 -23531780.67044 -18336430.75344  20624210.9444   20624210.6254
  -7649534.66844  -5960669.64244  22394534.7364   22394532.8954
 96  4  8  5  6  0.0000000  0  7G 6G17G28G22G21G23G26
  -3498426.26744  -2726043.04944  21895810.3154   21895809.8254
 -23428763.27044 -18256155.56344  20606204.6214   20606204.4034
  -4627355.990 4  -3605730.345 4  23291071.756    23291072.989
   1102923.31344    859422.19544  23604056.8794   23604057.1924
 -12577122.84044  -9800348.78344  22674714.4584   22674715.4454
 -23541461.68144 -18343974.38744  20622368.7324   20622368.2974
  -7608373.86844  -5928596.28144  22402367.6534   22402366.2524
 96  4  8  5  6 30.0000000  0  7G 6G17G28G22G21G23G26
  -3410137.50444  -2657246.61344  21912610.9614   21912610.7454
 -23431215.46744 -18258066.36344  20605738.0974   20605737.8004
  -4723825.468 4  -3680901.390 4  23272714.044    23272715.739
   1137552.23244    886405.76944  23610646.3884   23610646.1684
 -12647591.67744  -9855259.55144  22661304.6164   22661305.1994
 -23550762.02944 -18351221.40044  20620598.8494   20620598.2434
  -7566660.43244  -5896092.29944  22410305.2714   22410303.5094
 96  4  8  5  7  0.0000000  0  7G 6G17G28G22G21G23G26
  -3321471.23944  -2588156.02344  21929484.0284   21929483.5404
 -23433451.69544 -18259808.87644  20605312.4644   20605312.1714
  -4820059.954 4  -3755889.288 4  23254401.711    23254402.749
   1172595.86244    913712.48544  23617314.9004   23617315.8304
 -12717809.34744  -9909974.59944  22647942.4624   22647942.4964
 -23559671.53844 -18358163.86744  20618903.1264   20618902.8834
  -7524378.94144  -5863145.68144  22418351.0254   22418349.2524
 96  4  8  5  7 30.0000000  0  7G 6G17G28G22G21G23G26
  -3232425.15744  -2518769.45844  21946428.9924   21946428.8734
 -23435476.09744 -18261386.32144  20604927.1314   20604926.8394
  -4916059.268 4  -3830693.919 4  23236133.571    23236134.312
   1208047.29944    941336.97944  23624061.3644   23624063.0144
 -12787774.17044  -9964492.63144  22634629.4484   22634628.6904
 -23568199.62144 -18364809.11944  20617280.5384   20617280.0874
  -7481523.81644  -5829752.07144  22426506.1584   22426505.1674
 96  4  8  5  8  0.0000000  0  7G 6G17G28G22G21G23G26
  -3143025.18244  -2449107.13244  21963441.5234   21963441.6174
 -23437285.44244 -18262796.19344  20604582.7724   20604582.7094
  -5011832.304 4  -3905322.232 4  23217908.343    23217909.385
   1243888.01144    969264.78644  23630881.1694   23630881.2374
 -12857506.84344 -10018829.76344  22621358.2734   22621358.2274
 -23576368.06644 -18371174.12944  20615726.2564   20615725.7644
  -7438105.04944  -5795919.26644  22434768.2224   22434767.6284
 96  4  8  5  8 30.0000000  0  7G 6G17G28G22G21G23G26
  -3053304.08944  -2379194.59544  21980514.5374   21980514.2404
 -23438884.73044 -18264042.39244  20604278.3604   20604278.1934
  -5107396.601 4  -3979787.898 4  23199722.470    23199724.091
   1280094.28444    997477.47744  23637770.2164   23637770.5294
 -12927022.94144 -10072998.12944  22608130.5454   22608130.1874
 -23584185.49644 -18377265.62944  20614238.3694   20614238.0544
  -7394136.48344  -5761658.04244  22443135.6294   22443133.8154
 96  4  8  5  9  0.0000000  0  7G 6G17G28G22G21G23G26
  -2963252.86944  -2309024.82544  21997650.5664   21997650.1134
 -23440261.02044 -18265114.83144  20604016.7354   20604016.1184
  -5202740.416 4  -4054081.774 4  23181579.364    23181580.859
   1316681.16344   1025986.72144  23644732.6284   23644731.6014
 -12996292.47444 -10126974.37444  22594949.0444   22594949.0634
 -23591631.68444 -18383067.83944  20612821.5714   20612821.0124
  -7349617.84744  -5726968.18644  22451606.5504   22451605.8484
 96  4  8  5  9 30.0000000  0  7G17G 6G28G22G21G23G26
 -23441408.38244 -18266008.87944  20603798.2864   20603797.8164
  -2872869.78944  -2238596.45944  22014849.9574   22014849.5824
  -5297857.927 4  -4128199.289 4  23163480.660    23163480.556
   1353658.06144   1054799.87544  23651769.7364   23651767.1864
 -13065305.77144 -10180750.94844  22581816.4514   22581816.1394
 -23598702.69244 -18388577.70044  20611475.9784   20611475.5594
  -7304566.63944  -5691863.34444  22460179.7334   22460178.9364
 96  4  8  5 10  0.0000000  0  7G 6G17G28G22G21G23G26
  -2782161.51744  -2167914.69444  22032110.4514   22032110.0264
 -23442333.78744 -18266729.97544  20603622.2424   20603621.7704
  -5392754.231 4  -4202144.433 4  23145422.040    23145421.926
   1391013.27244   1083907.84444  23658877.3074   23658875.9584
 -13134077.31844 -10234339.15944  22568729.6674   22568729.2514
 -23605398.53044 -18393795.23244  20610201.7694   20610201.3334
  -7258995.37844  -5656353.26444  22468852.5014   22468851.0144
 96  4  8  5 10 30.0000000  0  7G17G 6G28G22G21G23G26
 -23443032.44444 -18267274.38044  20603489.5054   20603489.0574
  -2691091.93644  -2096951.39244  22049440.8774   22049440.9524
  -5487413.947 4  -4275905.243 4  23127408.264    23127408.773
   1428759.05644   1113320.14544  23666060.4854   23666059.9974
 -13202584.43844 -10287721.31544  22555693.0254   22555693.4494
 -23611700.21444 -18398705.63144  20609002.4524   20609002.0724
  -7212905.17944  -5620438.81244  22477622.9184   22477621.8824
 96  4  8  5 11  0.0000000  0  7G 6G17G28G22G21G23G26
  -2599638.09644  -2025688.67844  22066843.7864   22066844.0784
 -23443485.74044 -18267627.59644  20603402.8824   20603402.5694
  -5581824.605 4  -4349472.003 4  23109443.012    23109443.201
   1466906.86344   1143045.69644  23673320.5374   23673319.9564
 -13270821.67444 -10340893.18544  22542707.6934   22542707.3084
 -23617603.75644 -18403305.79044  20607879.0624   20607878.7374
  -7166304.01344  -5584126.21744  22486490.9084   22486489.5864
 96  4  8  5 11 30.0000000  0  7G 6G17G28G22G21G23G26
  -2507807.90544  -1954132.68944  22084318.7254   22084317.9804
 -23443693.04844 -18267789.13544  20603363.7934   20603363.4064
  -5675987.770 4  -4422845.879 4  23091524.463    23091524.421
   1505446.78644   1173076.78844  23680653.6504   23680654.0574
 -13338807.44044 -10393869.10044  22529770.3974   22529770.3984
 -23623134.55044 -18407615.48544  20606826.5854   20606826.0374
  -7119187.58544  -5547412.11644  22495456.4024   22495455.8644
 96  4  8  5 12  0.0000000  0  7G17G 6G28G22G21G23G26
 -23443659.47644 -18267762.97644  20603369.9484   20603369.5754
  -2415615.65044  -1882294.59444  22101861.9934   22101861.7674
  -5769899.714 4  -4496023.974 4  23073653.261    23073653.590
   1544369.61244   1203406.26744  23688061.2114   23688062.4614
 -13406549.84244 -10446655.38744  22516879.5434   22516879.7164
 -23628290.18644 -18411632.85444  20605845.4994   20605845.0534
  -7071538.63344  -5510283.06544  22504524.0664   22504522.3334
 96  4  8  5 12 30.0000000  0  7G17G 6G28G22G21G23G26
 -23443401.25344 -18267561.75144  20603419.0794   20603418.6744
  -2323083.96244  -1810191.99044  22119469.9474   22119469.1904
  -5863570.159 4  -4569013.918 4  23055827.740    23055829.004
   1583663.17744   1234024.61044  23695537.8204   23695539.5124
 -13474048.67844 -10499251.88344  22504035.0144   22504034.3734
 -23633090.55244 -18415373.39244  20604931.8444   20604931.4704
  -7023372.65544  -5472751.12844  22513689.6854   22513688.7334
 96  4  8  5 13  0.0000000  0  7G17G 6G28G22G21G23G26
 -23442911.23244 -18267179.91244  20603512.3234   20603511.9134
  -2230230.85144  -1737838.91944  22137140.0624   22137139.6434
  -5956990.941 4  -4641809.333 4  23038050.369    23038051.556
   1623330.00844   1264933.82144  23703086.1914   23703085.2894
 -13541294.26744 -10551651.03144  22491238.7164   22491239.2494
 -23637535.88044 -18418837.27444  20604086.1224   20604085.6564
  -6974684.42144  -5434812.24044  22522954.8134   22522953.5464
 96  4  8  5 13 30.0000000  0  7G17G 6G28G22G21G23G26
 -23442191.08044 -18266618.74744  20603649.5534   20603649.2254
  -2137058.81544  -1665237.34844  22154869.5834   22154868.9144
  -6050148.246 4  -4714399.415 4  23020323.992    23020324.063
   1663375.57044   1296138.17244  23710707.0334   23710706.1474
 -13608268.94644 -10603839.08044  22478493.9514   22478494.1334
 -23641617.33344 -18422017.61144  20603309.3664   20603309.0034
  -6925455.61044  -5396452.12244  22532321.8564   22532320.5684
 96  4  8  5 14  0.0000000  0  7G17G 6G28G22G21G23G26
 -23441238.65744 -18265876.60044  20603830.4704   20603830.0714
  -2043567.74044  -1592387.16444  22172660.6034   22172660.2624
  -6143041.391 4  -4786783.666 4  23002646.425    23002647.719
   1703796.16444   1327634.71644  23718398.2454   23718398.3744
 -13674967.41244 -10655811.89744  22465801.7954   22465801.4044
 -23645339.78044 -18424918.21744  20602601.2744   20602600.8444
  -6875695.91944  -5357678.33744  22541791.3254   22541789.3584
 96  4  8  5 14 30.0000000  0  7G17G 6G28G22G21G23G26
 -23440053.67644 -18264953.23344  20604056.0604   20604055.7354
  -1949755.67144  -1519286.84844  22190512.8774   22190511.7454
  -6235674.448 4  -4858965.280 4  22985018.609    22985020.079
   1744585.07744   1359418.29544  23726159.9564   23726160.1444
 -13741393.54144 -10707572.50344  22453160.9034   22453160.7304
 -23648721.60944 -18427553.39844  20601957.5054   20601957.1924
  -6825427.88344  -5318508.44244  22551356.9704   22551355.8944
 96  4  8  5 15  0.0000000  0  7G17G 6G28G22G21G23G26
 -23438632.26944 -18263845.63644  20604326.4474   20604326.2024
  -1855636.58344  -1445947.30844  22208423.1304   22208422.6304
  -6328049.460 4  -4930945.797 4  22967440.800    22967441.662
   1785743.70744   1391489.95244  23733992.3104   23733991.8214
 -13807560.69244 -10759131.31744  22440569.8714   22440569.8414
 -23651768.11144 -18429927.27944  20601377.8974   20601377.3874
  -6774658.51544  -5278947.88544  22561018.2684   22561017.5684
 96  4  8  5 15 30.0000000  0  7G17G 6G28G22G21G23G26
 -23436989.47544 -18262565.53344  20604639.0434   20604638.7504
  -1761226.45844  -1372380.98344  22226388.4314   22226387.8714
  -6420183.315 4  -5002738.380 4  22949908.303    22949909.173
   1827257.20644   1423838.12444  23741892.3864   23741892.6844
 -13873503.48044 -10810515.28844  22428021.1794   22428021.3514
 -23654497.61044 -18432054.15244  20600858.4654   20600857.9294
  -6723395.92544  -5239003.00544  22570773.0534   22570771.6834
 96  4  8  5 16  0.0000000  0  7G17G 6G28G22G21G23G26
 -23435087.11344 -18261083.16644  20605001.1944   20605000.9354
  -1666488.45744  -1298559.17044  22244416.1914   22244416.2264
  -6512032.252 4  -5074308.964 4  22932429.929    22932430.797
   1869164.56144   1456493.21644  23749866.4524   23749865.9994
 -13939185.90644 -10861696.38544  22415522.2654   22415522.7014
 -23656867.58244 -18433900.87544  20600407.5634   20600406.9804
  -6671599.08844  -5198641.83844  22580629.8884   22580628.6654
 96  4  8  5 16 30.0000000  0  7G17G 6G28G22G21G23G26
 -23432935.19844 -18259406.34544  20605410.6864   20605410.7224
  -1571437.32544  -1224493.37444  22262504.6814   22262504.0554
  -6603594.463 4  -5145656.133 4  22915006.034    22915007.002
   1911463.52044   1489453.43044  23757916.3004   23757917.2334
 -14004606.67644 -10912673.59444  22403073.4434   22403073.1674
 -23658868.30544 -18435459.87344  20600026.6494   20600026.2314
  -6619273.67644  -5157868.78544  22590586.9854   22590585.5524
 96  4  8  5 17  0.0000000  0  7G17G 6G28G22G21G23G26
 -23430555.26744 -18257551.84844  20605863.4084   20605863.4824
  -1476096.55444  -1150201.86244  22280647.1784   22280647.2204
  -6694887.271 4  -5216793.376 4  22897633.341    22897634.498
   1954129.47144   1522699.59544  23766035.6844   23766036.2014
 -14069783.21144 -10963460.49344  22390670.3224   22390670.6494
 -23660516.68944 -18436744.32244  20599713.0944   20599712.6804
  -6566424.50544  -5116687.61544  22600643.7934   22600643.0884
 96  4  8  5 17 30.0000000  0  7G17G 6G28G22G21G23G26
 -23427960.75044 -18255530.14744  20606357.4224   20606357.0274
  -1380462.11944  -1075681.52744  22298845.5494   22298844.9064
  -6785919.971 4  -5287727.930 4  22880310.562    22880311.822
   1997131.65644   1556207.80444  23774218.7654   23774217.8464
 -14134722.19844 -11014062.28744  22378312.9994   22378313.6404
 -23661827.42344 -18437765.65944  20599463.7024   20599463.0544
  -6513060.91044  -5075105.59044  22610798.0744   22610797.1834
 96  4  8  5 18  0.0000000  0  7G17G 6G28G22G21G23G26
 -23425142.45844 -18253334.07344  20606893.7334   20606893.3314
  -1284512.42544  -1000915.53744  22317104.8574   22317104.3594
  -6876674.210 4  -5358445.494 4  22863040.397    22863041.701
   2040477.03744   1589983.41844  23782466.9184   23782466.1074
 -14199383.79044 -11064447.93744  22366008.0764   22366008.5174
 -23662786.53244 -18438513.00544  20599281.0784   20599280.6014
  -6459176.01344  -5033117.36744  22621052.4954   22621051.2094
 96  4  8  5 18 30.0000000  0  7G17G 6G28G22G21G23G26
 -23422092.50444 -18250957.48044  20607473.8214   20607473.3994
  -1188235.63444   -925894.67144  22335424.6724   22335424.5614
  -6967149.972 4  -5428946.067 4  22845823.515    22845824.602
   2084156.81944   1624019.62044  23790778.8114   23790779.2554
 -14263764.27044 -11114614.53344  22353757.1214   22353756.9804
 -23663389.44444 -18438982.80244  20599166.4214   20599165.8194
  -6404781.45744  -4990732.00144  22631403.4854   22631402.8094
 96  4  8  5 19  0.0000000  0  7G17G 6G28G22G21G23G26
 -23418802.56844 -18248393.88744  20608100.2214   20608099.8474
  -1091613.49044   -850604.70344  22353811.7474   22353811.3534
  -7057343.401 4  -5499226.641 4  22828660.366    22828661.560
   2128170.97344   1658316.35944  23799154.9534   23799153.8744
 -14327866.47544 -11164564.29044  22341558.7724   22341559.4174
 -23663632.90044 -18439172.49544  20599120.2544   20599119.6404
  -6349870.17944  -4947943.98044  22641852.9064   22641851.7134
 96  4  8  5 19 30.0000000  0  7G17G 6G28G22G21G23G26
 -23415281.37244 -18245650.08744  20608770.0984   20608769.8254
   -994645.01444   -775044.87644  22372264.3664   22372263.7744
  -7147254.918 4  -5569287.561 4  22811550.745    22811551.911
   2172516.99444   1692871.72444  23807593.3924   23807592.3934
 -14391695.42144 -11214301.11544  22329412.2784   22329412.6614
 -23663519.19744 -18439083.88944  20599141.5634   20599141.1624
  -6294453.88944  -4904762.45344  22652398.1804   22652396.7634
 96  4  8  5 20  0.0000000  0  7G17G 6G28G22G21G23G26
 -23411538.94544 -18242733.89944  20609482.2644   20609481.6894
   -897346.87044   -699228.14344  22390778.9154   22390778.5814
  -7236888.881 4  -5639132.189 4  22794494.421    22794494.891
   2217193.26944   1727684.42844  23816095.0554   23816094.9684
 -14455260.45644 -11263832.30644  22317316.5624   22317316.1404
 -23663059.47444 -18438725.66344  20599229.0704   20599228.3794
  -6238543.23144  -4861195.71344  22663037.6954   22663037.1894
 96  4  8  5 20 30.0000000  0  7G17G 6G28G22G21G23G26
 -23407554.47244 -18239629.10244  20610240.4214   20610239.9854
   -799727.13144   -623160.81444  22409356.1454   22409356.1404
  -7326239.725 4  -5708756.201 4  22777491.229    22777492.454
   2262201.76244   1762755.96144  23824659.1744   23824660.2694
 -14518588.79744 -11313179.05844  22305265.6034   22305265.3754
 -23662257.10944 -18438100.43744  20599381.8904   20599381.4554
  -6182140.95844  -4817245.89644  22673770.3804   22673769.7924
 96  4  8  5 21  0.0000000  0  7G17G 6G28G22G21G23G26
 -23403339.75744 -18236344.90544  20611042.6804   20611042.1064
   -701816.42444   -546866.77644  22427987.4164   22427987.7374
  -7415315.503 4  -5778165.886 4  22760540.175    22760541.651
   2307534.53444   1798080.20844  23833285.1944   23833286.4074
 -14581701.05044 -11362357.43244  22293255.9154   22293255.3084
 -23661140.95344 -18437230.69944  20599594.1694   20599593.8634
  -6125257.32844  -4772920.98444  22684595.2324   22684593.3064
 96  4  8  5 21 30.0000000  0  7G17G 6G28G22G21G23G26
 -23398899.11844 -18232884.66844  20611887.3544   20611887.0154
   -603631.27144   -470358.87544  22446671.3764   22446670.9484
  -7504115.472 4  -5847360.657 4  22743642.108    22743642.883
   2353177.60744   1833646.20244  23841972.0224   23841972.5464
 -14644602.86944 -11411371.82444  22281286.0114   22281285.7134
 -23659723.41944 -18436126.12144  20599863.9184   20599863.3294
  -6067911.07144  -4728235.59144  22695507.8664   22695506.5334
 96  4  8  5 22  0.0000000  0  7G17G 6G28G22G21G23G26
 -23394217.48544 -18229236.65044  20612778.3344   20612778.0274
   -505186.58644   -393648.74744  22465405.4524   22465405.4704
  -7592629.179 4  -5916332.346 4  22726798.822    22726799.460
   2399134.28444   1869456.60044  23850715.6754   23850718.1364
 -14707289.37844 -11460218.44944  22269356.9214   22269357.3864
 -23657993.31744 -18434777.98144  20600193.2454   20600192.7644
  -6010108.12944  -4683194.33844  22706507.0244   22706505.8754
 96  4  8  5 22 30.0000000  0  7G17G 6G28G22G21G23G26
 -23389283.03144 -18225391.62544  20613717.4044   20613716.8424
   -406482.50544   -316736.50544  22484188.2874   22484188.7914
  -7680843.424 4  -5985070.706 4  22710012.133    22710013.123
   2445413.99444   1905518.70044  23859523.6824   23859525.9014
 -14769749.07644 -11508888.34144  22257471.5894   22257471.5054
 -23655928.63344 -18433169.13244  20600586.0074   20600585.6304
  -5951844.97044  -4637794.46544  22717594.2424   22717592.7634
 96  4  8  5 23  0.0000000  0  7G17G 6G28G22G21G23G26
 -23384104.67144 -18221356.54244  20614702.6374   20614702.1974
   -307507.54644   -239613.16244  22503023.2364   22503022.9304
  -7768743.645 4  -6053564.376 4  22693285.264    22693286.587
   2492025.15144   1941839.06844  23868393.8414   23868393.6624
 -14831938.07344 -11557347.28944  22245636.7394   22245636.8064
 -23653504.19444 -18431279.95144  20601047.5134   20601046.7884
  -5893105.45444  -4592023.40744  22728771.9424   22728771.5524
 96  4  8  5 23 30.0000000  0  8G17G 6G28G22G21G 1G23G26
 -23378666.40444 -18217118.93044  20615737.7714   20615737.2324
   -208232.14644   -162255.70844  22521913.6594   22521913.2424
  -7856308.713 4  -6121796.906 4  22676622.348    22676623.578
   2538977.28944   1978425.17444  23877328.1034   23877328.0574
 -14893828.97344 -11605573.95544  22233859.5044   22233860.1464
        -0.87454                  25213124.9424
 -23650687.15244 -18429084.85344  20601583.4984   20601583.1754
  -5833874.58444  -4545869.48744  22740043.5354   22740042.6184
 96  4  8  5 24  0.0000000  0  8G17G 6G28G22G21G 1G23G26
 -23372993.97344 -18212698.84844  20616817.0424   20616816.6474
   -108693.60044    -84693.22144  22540854.8074   22540855.0444
  -7943573.056 4  -6189795.082 4  22660017.216    22660017.498
   2586246.54844   2015258.37044  23886323.5044   23886323.1954
 -14955446.44644 -11653587.55944  22222134.3954   22222134.2864
   -110280.86644    -85933.10144  25192139.7184   25192137.9034
 -23647509.21644 -18426608.53744  20602188.3084   20602187.8184
  -5774175.20844  -4499350.49144  22751404.0904   22751402.8404
 96  4  8  5 24 30.0000000  0  8G17G 6G28G22G21G 1G23G26
 -23367088.83944 -18208097.44144  20617940.9994   20617940.4874
     -8867.16844     -6906.40344  22559851.9344   22559851.0954
  -8030534.229 4  -6257557.017 4  22643468.605    22643469.108
   2633829.68044   2052336.13244  23895378.8864   23895378.2334
 -15016781.76344 -11701381.30544  22210462.1574   22210462.3324
   -220645.55344   -171931.58544  25171138.1194
 -23643978.87044 -18423857.60344  20602860.0434   20602859.3534
  -5713994.53644  -4452456.45544  22762856.3834   22762853.5154
 96  4  8  5 25  0.0000000  0  8G17G 6G28G22G21G 1G23G26
 -23360930.71144 -18203298.90344  20619112.7814   20619112.3724
     91279.65044     71130.06544  22578908.8204   22578908.4634
  -8117167.229 4  -6325063.243 4  22626982.660    22626983.184
   2681742.81444   2089671.04144  23904496.6944   23904494.9374
 -15077809.53644 -11748935.40344  22198849.0764   22198849.5184
   -331068.65344   -257975.53544  25150124.7614
 -23640093.33444 -18420829.90944  20603599.4434   20603598.9454
  -5653316.02744  -4405174.49644  22774402.9364   22774401.5154
 96  4  8  5 25 30.0000000  0  8G17G 6G28G22G21G 1G23G26
 -23354489.85144 -18198280.05044  20620338.4944   20620338.0034
    191765.12744    149430.43044  22598030.8664   22598030.3584
  -8203453.155 4  -6392299.015 4  22610562.735    22610563.662
   2730003.71744   2127276.92844  23913679.9244   23913678.7344
 -15138538.37044 -11796256.57144  22187292.0664   22187292.5974
   -441528.62244   -344048.23644  25129105.2374
 -23635852.54244 -18417525.38944  20604406.4984   20604405.9344
  -5592124.28844  -4357492.63244  22786046.8094   22786045.6434
 96  4  8  5 26  0.0000000  0  8G17G 6G28G22G21G 1G23G26
 -23347774.37044 -18193047.19744  20621616.2184   20621615.8474
    292568.08044    227978.17944  22617212.9354   22617212.3314
  -8289403.609 4  -6459273.378 4  22594206.871    22594208.389
   2778605.77744   2165148.65944  23922927.9554   23922929.1844
 -15198984.79144 -11843357.67144  22175790.0414   22175790.1614
   -552041.78544   -430162.38744  25108074.6064
 -23631283.38344 -18413964.99744  20605276.0864   20605275.4294
  -5530424.18744  -4309414.63344  22797787.6194   22797786.8064
 96  4  8  5 26 30.0000000  0  8G17G 6G28G22G21G 1G23G26
 -23340814.55044 -18187623.95744  20622940.5164   20622940.3604
    393671.13244    306759.76644  22636452.4974   22636451.7214
  -8375028.549 4  -6525994.105 4  22577912.780    22577914.022
   2827519.44744   2203263.20444  23932236.2894   23932234.5964
 -15259171.06444 -11890256.05544  22164336.8184   22164337.0574
   -662621.55844                  25087032.1124
 -23626406.15744 -18410164.55344  20606203.8624   20606203.4994
  -5468246.46544  -4260964.45844  22809620.1284   22809619.3754
 96  4  8  5 27  0.0000000  0  8G17G 6G28G22G21G 1G23G26
 -23333612.07744 -18182011.64244  20624311.0414   20624310.8044
    495048.75344    385755.30444  22655743.3104   22655743.1204
  -8460328.051 4  -6592461.229 4  22561680.849    22561682.160
   2876750.20944   2241624.83144  23941604.8534   23941605.9044
 -15319110.86544 -11936962.38644  22152930.7774   22152930.7834
   -773283.27544   -602558.36244  25065973.4564   25065973.5684
 -23621216.52044 -18406120.67844  20607191.3034   20607190.8874
  -5405596.77744  -4212146.51844  22821542.2654   22821540.4954
 96  4  8  5 27 30.0000000  0  8G17G 6G28G22G21G 1G23G26
 -23326198.40344 -18176234.75244  20625721.9504   20625721.6104
    596657.07144    464930.62444  22675079.0074   22675078.6464
  -8545327.551 4  -6658694.603 4  22545506.079    22545507.497
   2926266.72044   2280209.11244  23951026.5134   23951027.8444
 -15378836.33644 -11983501.71244  22141565.6834   22141565.3394
   -884051.97144                  25044893.9694
 -23615727.28644 -18401843.34044  20608236.2614   20608235.7344
  -5342496.24444  -4162977.26644  22833549.4114   22833548.8184
 96  4  8  5 28  0.0000000  0  8G17G 6G28G22G21G 1G23G26
 -23318563.25144 -18170285.28444  20627174.7824   20627174.6014
    698499.03344    544287.99044  22694458.6294   22694458.2914
  -8630007.182 4  -6724678.723 4  22529392.390    22529393.275
   2976073.86344   2319019.84944  23960504.6504   23960506.2044
 -15438312.72644 -12029846.93544  22130247.8084   22130247.4904
   -994898.20944   -775245.22444  25023800.9574
 -23609913.90244 -18397313.42344  20609342.2714   20609342.2254
  -5278941.94944  -4113454.43944  22845643.5514   22845642.3084
 96  4  8  5 28 30.0000000  0  8G17G 6G28G22G21G 1G23G26
 -23310701.76344 -18164159.46244  20628670.7384   20628670.4254
    800583.50544    623834.31644  22713884.7764   22713884.3044
  -8714354.383 4  -6790403.802 4  22513341.292    22513342.383
   3026173.27344   2358058.35844  23970038.6354   23970038.5884
 -15497529.94944 -12075990.21344  22118979.1534   22118979.2574
  -1105791.70144   -861655.73444  25002700.3374
 -23603757.77244 -18392516.43344  20610513.8734   20610513.4334
  -5214936.46344  -4063580.05044  22857823.1584   22857822.8764
 96  4  8  5 29  0.0000000  0  8G17G 6G28G22G21G 1G23G26
 -23302597.75344 -18157844.65944  20630213.0394   20630212.8884
    902923.47844    703579.75044  22733358.6974   22733358.3544
  -8798357.632 4  -6855860.873 4  22497356.020    22497356.965
   3076570.19144   2397328.65944  23979628.3694   23979628.6484
 -15556483.01144 -12121927.65644  22107760.9154   22107761.3094
  -1216709.72444   -948085.33844  24981592.7924   24981592.8514
 -23597251.14444 -18387446.32844  20611751.7524   20611751.3534
  -5150460.71944  -4013339.21544  22870092.5054   22870091.0224
 96  4  8  5 29 30.0000000  0  8G17G 6G28G22G21G 1G23G26
 -23294233.86944 -18151327.35144  20631804.5434   20631804.2974
   1005531.00344    783533.65944  22752884.4974   22752884.9554
  -8882009.711 4  -6921044.311 4  22481437.662    22481438.595
   3127254.03644   2436822.55444  23989275.0634   23989274.5814
 -15615160.00344 -12167649.97544  22096594.9714   22096595.4914
  -1327640.18744  -1034524.67544  24960483.1854
 -23590395.84244 -18382104.52944  20613056.3684   20613056.0074
  -5085515.28544  -3962732.39744  22882451.7094   22882450.1904
 96  4  8  5 30  0.0000000  0  7G17G 6G28G22G21G23G26
 -23285601.57544 -18144600.88544  20633447.1734   20633446.8784
   1108405.90144    863695.90044  22772461.9514   22772461.9634
  -8965318.501 4  -6985960.242 4  22465584.743    22465585.742
   3178219.64844   2476536.02444  23998972.6944   23998972.2814
 -15673573.38444 -12213166.88844  22085479.2384   22085479.4644
 -23583214.88144 -18376508.97444  20614423.0634   20614422.4924
  -5020109.16544  -3911766.58744  22894898.1144   22894896.3914
 96  4  8  5 30 30.0000000  0  8G17G 6G28G22G21G 1G23G26
 -23276720.54344 -18137680.60244  20635137.2194   20635136.8944
   1211537.24144    944057.96944  22792086.8544   22792086.5004
  -9048302.081 4  -7050622.743 4  22449793.529    22449794.143
   3229450.46044   2516456.10544  24008721.3124   24008721.5804
 -15731747.27144 -12258497.17844  22074408.9414   22074408.7734
        -0.53654        -0.38254  24918252.6174   24918253.2354
 -23575738.96444 -18370683.57644  20615845.6304   20615845.1524
  -4954256.21444  -3860452.60144  22907429.2294   22907429.0684
 96  4  8  5 31  0.0000000  0  8G17G 6G28G22G21G 1G23G26
 -23267544.64944 -18130530.55644  20636883.4484   20636883.3154
   1314946.69044   1024636.75044  22811765.2464   22811765.4604
  -9130923.669 4  -7115003.180 4  22434070.893    22434072.189
   3280985.14544   2556612.98244  24018527.2364   24018527.6784
 -15789642.36344 -12303610.23244  22063392.3914   22063392.0704
   -111018.62844                  24897124.2284
 -23567940.54744 -18364606.88244  20617329.5564   20617329.0264
  -4887915.09444  -3808758.22244  22920053.4354   22920052.8824
 96  4  8  5 31 30.0000000  0  8G17G 6G28G22G21G 1G23G26
 -23258077.68544 -18123153.70844  20638684.8184   20638684.6874
   1418603.23444   1105408.07244  22831490.3244   22831490.9284
  -9213186.340 4  -7179103.950 4  22418417.011    22418417.968
   3332821.43144   2597004.87544  24028392.2574   24028394.2804
 -15847253.76844 -12348502.22544  22052429.0094   22052428.5414
   -222072.55244   -173043.46544  24875991.5894
 -23559825.84744 -18358283.74044  20618873.6294   20618873.1444
  -4821105.12244  -3756698.49644  22932766.8534   22932766.9874
 96  4  8  5 32  0.0000000  0  8G17G 6G28G22G21G 1G23G26
 -23248363.16944 -18115583.95544  20640533.5314   20640533.2044
   1522476.15044   1186348.00344  22851257.0564   22851257.7044
  -9295110.282 4  -7242940.772 4  22402827.354    22402828.246
   3384931.81744   2637610.37144  24038308.2344   24038307.3904
 -15904600.77944 -12393188.19744  22041516.1544   22041516.0274
   -333177.90044   -259619.06844  24854849.4644
 -23551426.55644 -18351738.83144  20620472.0814   20620471.5274
  -4753852.46744  -3704293.82944  22945564.7884   22945564.0054
 96  4  8  5 32 30.0000000  0  8G17G 6G28G22G21G 1G23G26
 -23238395.37644 -18107816.84844  20642430.0234   20642429.8314
   1626569.94944   1267460.05644  22871064.7834   22871065.9594
  -9376673.034 4  -7306496.164 4  22387306.737    22387307.306
   3437329.16044   2678439.49744  24048278.9804   24048278.0254
 -15961663.99444 -12437653.03144  22030657.6754   22030657.5814
   -444323.20244   -346225.82044  24833698.4344
 -23542721.74044 -18344955.85344  20622128.6974   20622128.1824
  -4686147.05344  -3651536.38144  22958448.8174   22958447.1294
 96  4  8  5 33  0.0000000  0  8G17G 6G28G22G21G 1G23G26
 -23228175.15644 -18099853.04944  20644375.2084   20644374.8434
   1730865.52144   1348729.34244  22890911.9194   22890911.7194
  -9457877.894 4  -7369772.669 4  22371854.101    22371854.304
   3490004.49544   2719485.22844  24058303.1184   24058302.7344
 -16018462.14244 -12481911.31444  22019849.2644   22019849.1674
   -555500.51544   -432857.49444  24812543.9154   24812546.1964
 -23533705.72544 -18337930.38744  20623844.2804   20623843.8744
  -4618000.22144  -3598434.96344  22971415.8114   22971414.1914
 96  4  8  5 33 30.0000000  0  8G17G 6G28G22G21G 1G23G26
 -23217702.32544 -18091692.40544  20646368.2494   20646367.7724
   1835392.22144   1430178.74144  22910802.8574   22910802.3374
  -9538711.447 4  -7432759.830 4  22356471.937    22356472.625
   3542948.12044   2760740.01644  24068376.9964   24068377.2994
 -16074995.25644 -12525963.07644  22009091.3874   22009091.5174
   -666686.03944   -519495.54844  24791384.7854   24791388.8214
 -23524368.62344 -18330654.71944  20625621.0904   20625620.5534
  -4549409.27244  -3544987.48044  22984469.0004   22984467.8954
 96  4  8  5 34  0.0000000  0  8G17G 6G28G22G21G 1G23G26
 -23206979.63844 -18083337.06644  20648408.5804   20648408.2104
   1940178.42944   1511830.33744  22930741.8204   22930741.7314
  -9619171.605 4  -7495456.042 4  22341160.246    22341161.639
   3596160.44644   2802204.16744  24078503.4774   24078503.4104
 -16131270.95044 -12569814.25944  21998382.5894   21998382.9454
   -777887.87944   -606146.29044  24770222.8324
 -23514714.35544 -18323131.90444  20627458.0614   20627457.5054
  -4480363.34644  -3491185.46944  22997608.0714   22997607.6394
 96  4  8  5 34 30.0000000  0  8G17G 6G28G22G21G 1G23G26
 -23196002.42644 -18074783.39844  20650497.4214   20650497.1704
   2045220.18144   1593681.04844  22950731.6804   22950731.9794
  -9699260.803 4  -7557863.199 4  22325919.919    22325920.970
   3649641.23744   2843877.49344  24088680.8574   24088680.3544
 -16187308.65844 -12613479.99644  21987718.6434   21987718.3264
   -889119.71544   -692820.44444  24749056.0584   24749057.8314
 -23504726.09744 -18315348.83444  20629358.8304   20629358.3284
  -4410873.00944  -3437037.16144  23010831.2884   23010830.3904
 96  4  8  5 35  0.0000000  0  8G17G 6G28G22G21G 1G23G26
 -23184774.76244 -18066034.57144  20652633.9794   20652633.7534
   2150520.52744   1675733.24944  22970769.1534   22970769.4814
  -9778982.962 4  -7619984.349 4  22310749.394    22310750.078
   3703383.21444   2885754.34544  24098907.3654   24098908.6874
 -16243113.58244 -12656964.34744  21977098.8814   21977099.0024
  -1000382.95444   -779519.13644  24727882.4764   24727882.7394
 -23494410.14344 -18307310.42144  20631321.9624   20631321.3614
  -4340948.35644  -3382550.42044  23024137.3094   23024136.8184
 96  4  8  5 35 30.0000000  0  8G17G 6G28G22G21G 1G23G26
 -23173297.82444 -18057091.49044  20654818.1744   20654817.6144
   2256081.99344   1757988.94944  22990857.2494   22990856.5184
  -9858340.556 4  -7681821.417 4  22295648.121    22295648.899
   3757382.70444   2927831.86844  24109183.7774   24109183.6424
 -16298678.57144 -12700261.73444  21966525.5714   21966525.5944
  -1111688.67444   -866250.86044  24706700.6874
 -23483781.60844 -18299028.44444  20633344.2624   20633343.9474
  -4270599.70144  -3327733.27944  23037524.8084   23037524.3884
 96  4  8  5 36  0.0000000  0  7G 6G17G28G21G 1G23G26
   2361885.27844   1840433.08644  23010991.0644   23010990.5504
 -23161571.76244 -18047954.29244  20657049.5524   20657049.0034
  -9937333.711 4  -7743374.515 4  22280616.053    22280617.158
 -16353997.93544 -12743367.72144  21955998.5094   21955998.3824
  -1223044.28444   -953021.41644  24685511.4644   24685511.9544
 -23472834.93444 -18290498.56344  20635427.2484   20635426.9784
  -4199843.29544  -3272598.41744  23050989.6054   23050988.4034
 96  4  8  5 36 30.0000000  0  7G 6G17G28G21G 1G23G26
   2467914.64444   1923053.39944  23031167.8254   23031167.2894
 -23149592.56544 -18038619.86744  20659328.9614   20659328.5374
 -10015957.548 4  -7804639.834 4  22265654.384    22265655.356
 -16409062.59244 -12786275.23244  21945519.9634   21945519.8294
  -1334433.38344  -1039818.15544  24664315.5524   24664315.7274
 -23461560.96344 -18281713.64044  20637572.9264   20637572.4744
  -4128690.54144  -3217154.71944  23064529.7274   23064528.6604
 96  4  8  5 37  0.0000000  0  7G 6G17G28G21G 1G23G26
   2574188.45844   2005864.15144  23051390.4884   23051390.2714
 -23137339.96544 -18029072.39344  20661660.5244   20661660.1484
 -10094187.538 4  -7865598.256 4  22250767.766    22250769.015
 -16463841.49744 -12828960.08644  21935095.8454   21935096.2074
  -1445811.42244  -1126606.19944  24643119.8964   24643122.6374
 -23449961.66844 -18272675.22144  20639780.1024   20639779.5904
  -4057116.16344  -3161382.47444  23078149.8264   23078147.9344
 96  4  8  5 37 30.0000000  0  7G 6G17G28G21G 1G23G26
   2680690.18744   2088852.48644  23071658.1614   23071657.5084
 -23124825.19144 -18019320.63244  20664041.9544   20664041.4544
 -10172023.239 4  -7926249.446 4  22235956.430    22235957.375
 -16518337.84344 -12871424.76544  21924726.0024   21924725.6654
  -1557176.81444  -1213384.47144  24621928.0774   24621929.4894
 -23438044.10344 -18263388.79944  20642048.0664   20642047.4054
  -3985118.68844  -3105280.56044  23091849.6144   23091848.3044
 96  4  8  5 38  0.0000000  0  7G17G 6G28G21G 1G23G26
 -23112052.27644 -18009367.71744  20666472.6954   20666472.4474
   2787412.39144   2172012.65744  23091967.0364   23091965.8554
 -10249456.460 4  -7986587.009 4  22221221.300    22221222.244
 -16572546.99444 -12913665.65444  21914410.1734   21914410.1064
  -1668512.34044  -1300139.42944  24600742.7374   24600742.4384
 -23425807.07144 -18253853.43744  20644376.6074   20644376.1294
  -3912673.41744  -3048829.71344  23105636.2044   23105633.9884
 96  4  8  5 38 30.0000000  0  7G 6G17G28G21G 1G23G26
   2894340.27944   2255333.09744  23112313.8234   23112312.9204
 -23099023.68144 -17999215.56344  20668951.8384   20668951.5174
 -10326498.748 4  -8046619.955 4  22206560.335    22206561.538
 -16626482.43744 -12955693.26144  21904146.3174   21904146.6404
  -1779810.81844  -1386865.48744  24579563.5154   24579563.9264
 -23413280.25944 -18244092.27644  20646760.2644   20646759.8564
  -3839781.54644  -2992030.85944  23119506.7434   23119505.2654
 96  4  8  5 39  0.0000000  0  7G17G 6G28G21G 1G23G26
 -23085732.94044 -17988859.14444  20671481.0554   20671480.8844
   3001469.75144   2338810.61144  23132699.4324   23132699.1114
 -10403145.448 4  -8106344.658 4  22191975.202    22191976.366
 -16680151.50244 -12997513.30444  21893933.6414   21893933.3964
  -1891067.19144  -1473558.75644  24558392.2134   24558392.8224
 -23400479.49744 -18234117.64844  20649196.3294   20649195.6854
  -3766434.17544  -2934877.06944  23133464.1424   23133463.1304
 96  4  8  5 39 30.0000000  0  7G 6G17G28G21G 1G23G26
   3108791.56344   2422437.98644  23153122.5074   23153122.0374
 -23072178.95244 -17978297.59944  20674060.5024   20674060.1254
 -10479407.331 4  -8165769.486 4  22177463.085    22177463.986
 -16733559.79744 -13039130.14644  21883770.2724   21883770.3764
  -2002311.16144  -1560242.38844  24537223.4614   24537227.2614
 -23387408.01044 -18223932.06644  20651683.5874   20651683.1084
  -3692645.28644  -2877379.24544  23147505.5554   23147505.1404
 96  4  8  5 40  0.0000000  0  7G 6G17G28G21G 1G23G26
   3216328.42444   2506232.93444  23173585.7144   23173585.6924
 -23058331.50344 -17967507.37744  20676695.1924   20676694.9314
 -10555275.456 4  -8224887.493 4  22163025.653    22163026.587
 -16786690.09544 -13080530.37144  21873660.1514   21873660.2304
  -2113533.44744  -1646909.08044  24516056.9774   24516055.1144
 -23374046.53944 -18213520.52344  20654226.4374   20654225.9594
  -3618425.28744  -2819545.47944  23161629.4944   23161628.3884
 96  4  8  5 40 30.0000000  0  7G 6G17G28G21G 1G23G26
   3324076.63144   2590192.56744  23194090.3174   23194089.3374
 -23044203.88444 -17956498.84144  20679383.5894   20679383.5964
 -10630763.468 4  -8283709.313 4  22148660.590    22148661.912
 -16839564.59744 -13121731.27344  21863598.3054   21863598.6214
  -2224771.80144  -1733588.27844  24494889.0164   24494890.1874
 -23360407.85344 -18202892.96644  20656821.7754   20656821.2274
  -3543818.50444  -2761410.32344  23175826.3674   23175825.9794
 96  4  8  5 41  0.0000000  0  7G17G 6G28G21G 1G23G26
 -23029814.55744 -17945286.38244  20682122.0194   20682121.6444
   3432025.02744   2674308.20544  23214632.0534   23214630.7554
 -10705872.532 4  -8342235.855 4  22134367.765    22134369.095
 -16892197.23744 -13162743.70644  21853582.7784   21853582.9304
  -2336052.76944  -1820300.73144  24473712.4414   24473714.0294
 -23346489.77744 -18192047.70644  20659470.1254   20659469.6484
  -3468838.32244  -2702984.20744  23190094.8174   23190093.3804
 96  4  8  5 41 30.0000000  0  8G17G 6G28G 9G21G 1G23G26
 -23015131.68744 -17933845.18044  20684915.8564   20684915.5484
   3540210.94144   2758608.93644  23235218.2384   23235217.7904
 -10780567.656 4  -8400439.841 4  22120153.972    22120155.202
         0.11954                  25095459.7354
 -16944554.98544 -13203541.94244  21843619.0584   21843619.2054
  -2447343.30644  -1907020.62544  24452534.0264   24452534.1454
 -23332248.27844 -18180950.42844  20662180.1914   20662179.8144
  -3393473.70144  -2644258.51744  23204436.3754   23204435.7564
 96  4  8  5 42  0.0000000  0  8G17G 6G28G 9G21G 1G23G26
 -23000208.70244 -17922216.88244  20687755.7084   20687755.3334
   3648569.19644   2843043.99044  23255838.9844   23255839.3344
 -10854886.004 4  -8458350.238 4  22106011.879    22106012.827
    -61172.42544                  25083817.9584
 -16996693.93344 -13244169.68544  21833697.7424   21833697.3814
  -2558676.04144  -1993773.42844  24431349.1354   24431351.1944
 -23317738.72244 -18169644.27644  20664941.2624   20664940.8524
  -3317774.07644  -2585271.79844  23218841.3914   23218841.2234
 96  4  8  5 42 30.0000000  0  8G17G 6G28G 9G21G 1G23G26
 -22985033.42744 -17910391.98944  20690643.5434   20690643.1934
   3757099.75144   2927613.27244  23276491.1784   23276491.0854
 -10928795.699 4  -8515942.198 4  22091947.106    22091948.118
   -122222.92644                  25072199.9364
 -17048607.26944 -13284621.62644  21823818.7164   21823818.8164
  -2670011.66044  -2080528.43344  24410162.2464   24410162.1984
 -23302956.45044 -18158125.62044  20667754.2134   20667753.8374
  -3241697.00444  -2525990.97244  23233318.2774   23233318.5594
 96  4  8  5 43  0.0000000  0  8G17G 6G28G 9G21G 1G23G26
 -22969568.79244 -17898341.63244  20693586.3144   20693585.7894
   3865828.27844   3012336.82444  23297182.3324   23297182.0134
 -11002258.771 4  -8573186.146 4  22077967.517    22077968.771
   -183111.00644                  25060615.1504
 -17100262.45844 -13324872.41444  21813989.4994   21813989.4524
  -2781279.03644  -2167230.29144  24388989.6454   24388990.9404
 -23287863.96044 -18146365.23744  20670626.1744   20670625.7544
  -3165196.15844  -2466379.94944  23247875.7974   23247875.4714
 96  4  8  5 43 30.0000000  0  8G17G 6G28G 9G21G 1G23G26
 -22953833.85244 -17886080.64144  20696580.6754   20696580.2944
   3974739.39444   3097202.62344  23317907.0424   23317905.9804
 -11075290.621 4  -8630094.079 4  22064070.082    22064071.144
   -243858.51944                  25049054.4704
 -17151663.89844 -13364925.47444  21804207.9794   21804207.9124
  -2892487.62544  -2253886.34444  24367829.0404   24367832.1044
 -23272475.97344 -18134374.58744  20673554.4514   20673553.9844
  -3088290.80644  -2406453.68444  23262510.4044   23262509.3134
 96  4  8  5 44  0.0000000  0  7G 6G17G28G21G 1G23G26
   4083828.77544   3182207.34244  23338666.1234   23338666.6234
 -22937836.66744 -17873615.30244  20699624.8694   20699624.5544
 -11147891.985 4  -8686666.571 4  22050254.270    22050255.305
 -17202804.14944 -13404775.01044  21794475.9214   21794476.1154
  -3003637.84344  -2340496.90644  24346677.1754   24346679.4124
 -23256793.01344 -18122154.09344  20676538.6814   20676538.2904
  -3010968.80144  -2346202.76544  23277223.7534   23277223.3354
 96  4  8  5 44 30.0000000  0  7G 6G28G17G21G 1G23G26
   4193102.40544   3267355.62544  23359460.0684   23359459.5724
 -11220087.184 4  -8742922.568 4  22036516.066    22036516.997
 -22921604.08344 -17860966.53444  20702713.6324   20702713.5454
 -17253702.54844 -13444436.08844  21784790.2674   21784790.6904
  -3114751.96244  -2427079.33944  24325531.8514   24325532.5374
 -23240824.03744 -18109710.73444  20679577.5744   20679577.0144
  -2933248.39644  -2285641.43244  23292014.6524   23292013.2844
 96  4  8  5 45  0.0000000  0  7G17G 6G28G21G 1G23G26
 -22905123.65244 -17848124.65044  20705849.9784   20705849.6324
   4302575.95144   3352659.70144  23380291.4744   23380291.2914
 -11291874.747 4  -8798860.919 4  22022855.635    22022856.516
 -17304332.16544 -13483887.72744  21775156.0994   21775156.0084
  -3225840.41344  -2513641.76244  24304392.6234   24304391.4514
 -23224555.59044 -18097034.01944  20682673.4594   20682672.8634
  -2855140.38244  -2224778.04944  23306878.4664   23306876.7354
 96  4  8  5 45 30.0000000  0  7G17G 6G28G21G 1G23G26
 -22888370.01144 -17835069.86844  20709038.0954   20709037.9224
   4412263.91744   3438130.87544  23401164.4044   23401164.1024
 -11363233.406 4  -8854465.061 4  22009276.313    22009277.368
 -17354661.99244 -13523105.76444  21765578.4754   21765578.3304
  -3336897.64344  -2600179.88744  24283259.0184   24283259.4144
 -23207984.50344 -18084121.49144  20685826.6754   20685826.2234
  -2776638.18544  -2163607.50744  23321816.5224   23321814.7724
 96  4  8  5 46  0.0000000  0  8G17G 6G28G 9G21G 1G23G26
 -22871329.97244 -17821791.91444  20712280.6414   20712280.4084
   4522153.35444   3523759.01344  23422077.1354   23422077.0624
 -11434164.552 4  -8909736.083 4  21995778.632    21995779.764
        -0.46154                  24991661.6964
 -17404706.74044 -13562101.66944  21756055.0904   21756055.0714
  -3447915.87844  -2686687.57544  24262133.8404   24262135.2274
 -23191128.04244 -18070986.58444  20689034.5784   20689033.9544
  -2697742.68544  -2102130.48644  23336829.4314   23336827.5814
 96  4  8  5 46 30.0000000  0  8G17G 6G28G 9G21G 1G23G26
 -22854021.82844 -17808305.04544  20715574.3744   20715574.0784
   4632200.96944   3609510.39944  23443017.6824   23443017.7594
 -11504690.380 4  -8964691.274 4  21982357.950    21982359.106
    -59936.16544                  24980256.1104
 -17454500.49544 -13600901.98944  21746579.8424   21746579.9864
  -3558928.40244  -2773190.84044  24241008.0224   24241007.9174
 -23174029.03844 -18057662.67844  20692288.0394   20692287.6134
  -2618489.56544  -2040374.82744  23351911.2044   23351910.9514
 96  4  8  5 47  0.0000000  0  7G17G 6G28G21G 1G23G26
 -22836432.38144 -17794598.97544  20718921.3424   20718920.9894
   4742383.48844   3695366.90144  23463984.9324   23463984.2394
 -11574800.378 4  -9019322.435 4  21969016.548    21969017.435
 -17504028.98444 -13639495.61144  21737154.6574   21737154.7624
  -3669921.95644  -2859679.33644  24219886.4414   24219886.9674
 -23156688.82944 -18044150.82944  20695587.9124   20695587.5734
  -2538884.51944  -1978344.93544  23367059.3294   23367058.2764
 96  4  8  5 47 30.0000000  0  8G17G 6G28G 9G21G 1G23G26
 -22818531.99744 -17780650.62744  20722327.9594   20722327.3874
   4852724.82144   3781347.14044  23484981.8084   23484981.1954
 -11644454.480 4  -9073598.354 4  21955761.802    21955762.562
        -0.50054                  24957530.5174
 -17553273.04744 -13677867.60044  21727784.0124   21727783.7884
  -3780845.28644  -2946113.10644  24198779.3954   24198777.4164
 -23139074.10144 -18030425.06444  20698940.0934   20698939.5904
  -2458886.91244  -1916009.13244  23382282.4374   23382281.4954
 96  4  8  5 48  0.0000000  0  8G17G 6G28G 9G21G 1G23G26
 -22800321.06544 -17766460.29544  20725793.2154   20725792.9534
   4963236.04144   3867459.77544  23506011.9704   23506009.6324
 -11713641.094 4  -9127509.997 4  21942595.993    21942596.947
    -59437.29044                  24946219.5124
 -17602229.37544 -13716015.37844  21718467.6294   21718467.4504
  -3891696.34744  -3032490.54444  24177685.1144   24177684.3524
 -23121162.17144 -18016467.71544  20702348.4104   20702347.9154
  -2378485.57044  -1853358.75244  23397581.6914   23397579.4394
 96  4  8  5 48 30.0000000  0  8G17G 6G28G 9G21G 1G23G26
 -22781844.52844 -17752063.01144  20729308.9454   20729308.5224
   5073898.57144   3953690.31244  23527069.3724   23527067.5244
 -11782388.272 4  -9181079.232 4  21929513.710    21929514.950
   -118715.29044                  24934939.9024
 -17650922.65844 -13753958.18444  21709201.6384   21709201.6784
  -4002506.08844  -3118835.75944  24156598.2504   24156599.6504
 -23102977.37244 -18002297.73744  20705808.9744   20705808.4104
  -2297722.15244  -1790426.20844  23412950.6894   23412949.7514
 96  4  8  5 49  0.0000000  0  8G17G 6G28G 9G21G 1G23G26
 -22763107.33244 -17737462.61944  20732874.7074   20732874.6414
   5184734.40144   4040055.92544  23548161.6714   23548161.6664
 -11850694.868 4  -9234305.145 4  21916515.689    21916516.466
   -177826.95144                  24923691.6064
 -17699346.17544 -13791690.78644  21699987.0044   21699987.3924
  -4113259.57444  -3205137.19644  24135522.7704   24135523.6424
 -23084502.16044 -17987901.46144  20709324.8234   20709324.1834
  -2216595.04344  -1727210.26744  23428389.0804   23428389.1554
 96  4  8  5 49 30.0000000  0  8G17G 6G28G 9G21G 1G23G26
 -22744103.67444 -17722654.58544  20736490.8424   20736490.7184
   5295756.99944   4126567.04144  23569287.5124   23569287.7874
 -11918558.662 4  -9287186.013 4  21903601.541    21903602.561
   -236795.14544                  24912469.4914
 -17747510.22444 -13829221.20444  21690821.7854   21690821.8124
  -4223965.10744  -3291401.23844  24114455.4384   24114456.3574
 -23065745.34244 -17973285.75044  20712894.1474   20712893.6154
  -2135110.27344  -1663715.64444  23443895.4874   23443894.7704
 96  4  8  5 50  0.0000000  0  8G17G 6G28G 9G21G 1G23G26
 -22724819.94344 -17707628.29444  20740160.7454   20740160.6304
   5406978.78744   4213233.38144  23590453.6834   23590452.6714
 -11985969.815 4  -9339714.185 4  21890773.393    21890774.556
   -295615.62444                  24901277.8454
 -17795407.74244 -13866543.94244  21681707.1724   21681707.2224
  -4334626.35844  -3377630.76544  24093398.4114   24093397.2324
 -23046702.98744 -17958447.55144  20716517.6164   20716517.0204
  -2053261.27744  -1599937.22644  23459469.8114   23459469.1764
 96  4  8  5 50 30.0000000  0  8G17G 6G28G 9G21G 1G23G26
 -22705235.21344 -17692367.46444  20743887.2404   20743887.1004
   5518401.25844   4300056.06344  23611655.8454   23611654.4124
 -12052919.256 4  -9391882.585 4  21878033.367    21878034.401
   -354258.61644                  24890116.9344
 -17843033.45044 -13903654.88044  21672644.1714   21672644.2154
  -4445213.20544  -3463802.33044  24072354.8784   24072355.7514
 -23027368.08144 -17943381.38544  20720196.7854   20720196.3024
  -1971039.90444  -1535868.59444  23475116.2744   23475115.8444
